[[{"header":{"parameterUnit":"m.s-1","parameterCategory":1,"la1":30.6,"la2":29.2853,"lo1":-89.7004,"lo2":-87.6739,"dx":0.0162,"dy":0.0183,"nx":112,"ny":82,"refTime":"2022-12-14T06:00:00:Z","depth":0,"parameterNumber":2,"parameterNumberName":"U-component_of_WINDS"},"data":[0.0,0.0,0.0,0.0,0.0,0.0,0.0,0.0,0.0,0.0,0.0,0.0,0.0,0.0,0.0,0.0,0.0,0.0,0.0,0.0,0.0,0.0,0.0,0.0,0.0,0.0,0.0,0.0,0.0,0.0,0.0,0.0,0.0,0.0,0.0,0.0,0.0,0.0,0.0,0.0,0.0,0.0,0.0,0.0,0.0,0.0,0.0,0.0,0.0,0.0,0.0,0.0,0.0,0.0,0.0,0.0,0.0,0.0,0.0,0.0,0.0,0.0,0.0,0.0,0.0,0.0,0.0,0.0,0.0,0.0,0.0,0.0,0.0,0.0,0.0,0.0,0.0,0.0,0.0,0.0,0.0,0.0,0.0,0.0,0.0,0.0,0.0,0.0,0.0,0.0,1.9092,1.9374,1.9441,1.9227,1.8611,1.908,1.916,1.8597,0.0,0.0,0.0,0.0,0.0,0.0,0.0,0.0,0.0,0.0,0.0,0.0,0.0,0.0,0.0,0.0,0.0,0.0,0.0,0.0,0.0,0.0,0.0,0.0,0.0,0.0,0.0,0.0,0.0,0.0,0.0,0.0,0.0,0.0,0.0,0.0,0.0,0.0,0.0,0.0,0.0,0.0,0.0,0.0,0.0,0.0,0.0,0.0,0.0,0.0,0.0,0.0,0.0,0.0,0.0,0.0,0.0,0.0,0.0,0.0,0.0,0.0,0.0,0.0,0.0,0.0,0.0,0.0,0.0,0.0,0.0,0.0,0.0,0.0,0.0,0.0,0.0,0.0,0.0,0.0,0.0,0.0,0.0,0.0,0.0,0.0,0.0,0.0,0.0,0.0,0.0,0.0,0.0,0.0,0.0,0.0,0.0,0.0,0.0,0.0,0.0,0.0,0.0,0.0,1.9348,1.9388,1.9586,1.9492,1.8876,1.9172,1.9254,1.885,0.0,0.0,0.0,0.0,0.0,0.0,0.0,0.0,0.0,0.0,0.0,0.0,0.0,0.0,0.0,0.0,0.0,0.0,0.0,0.0,0.0,0.0,0.0,0.0,0.0,0.0,0.0,0.0,0.0,0.0,0.0,0.0,0.0,0.0,0.0,0.0,0.0,0.0,0.0,0.0,0.0,0.0,0.0,0.0,0.0,0.0,0.0,0.0,0.0,0.0,0.0,0.0,0.0,0.0,0.0,0.0,0.0,0.0,0.0,0.0,0.0,0.0,0.0,0.0,0.0,0.0,0.0,0.0,0.0,0.0,0.0,0.0,0.0,0.0,0.0,0.0,0.0,0.0,0.0,0.0,0.0,0.0,0.0,0.0,0.0,0.0,0.0,0.0,0.0,0.0,0.0,0.0,0.0,0.0,0.0,0.0,0.0,0.0,0.0,0.0,0.0,0.0,0.0,1.9519,1.9629,1.9629,1.9615,1.9386,1.893,1.9199,1.9267,1.8916,1.8945,0.0,0.0,0.0,0.0,0.0,0.0,0.0,0.0,0.0,0.0,0.0,0.0,0.0,0.0,0.0,0.0,0.0,0.0,0.0,0.0,0.0,0.0,0.0,0.0,0.0,0.0,0.0,0.0,0.0,0.0,0.0,0.0,0.0,0.0,0.0,0.0,0.0,0.0,0.0,0.0,0.0,0.0,0.0,0.0,0.0,0.0,0.0,0.0,0.0,0.0,0.0,0.0,0.0,0.0,0.0,0.0,0.0,0.0,0.0,0.0,0.0,0.0,0.0,0.0,0.0,0.0,0.0,0.0,0.0,0.0,0.0,0.0,0.0,0.0,0.0,0.0,0.0,0.0,0.0,0.0,0.0,0.0,0.0,0.0,0.0,0.0,0.0,0.0,0.0,0.0,0.0,0.0,0.0,0.0,0.0,0.0,0.0,0.0,0.0,0.0,0.0,0.0,2.0013,1.9973,1.9907,1.9706,1.9426,1.9065,1.9239,1.9334,1.9116,1.9279,0.0,0.0,0.0,0.0,0.0,0.0,0.0,0.0,0.0,0.0,0.0,0.0,0.0,0.0,0.0,0.0,0.0,0.0,0.0,0.0,0.0,0.0,0.0,0.0,0.0,0.0,0.0,0.0,0.0,0.0,0.0,0.0,0.0,0.0,0.0,0.0,0.0,0.0,0.0,0.0,0.0,0.0,0.0,0.0,0.0,0.0,0.0,0.0,0.0,0.0,0.0,0.0,0.0,0.0,0.0,0.0,0.0,0.0,0.0,0.0,0.0,0.0,0.0,0.0,0.0,0.0,0.0,0.0,0.0,0.0,0.0,0.0,0.0,0.0,0.0,0.0,0.0,0.0,0.0,0.0,0.0,0.0,0.0,0.0,0.0,0.0,0.0,0.0,0.0,0.0,0.0,0.0,0.0,0.0,0.0,0.0,0.0,0.0,0.0,0.0,0.0,0.0,2.0646,2.0508,2.0197,2.0157,1.9947,1.9415,1.9388,1.9508,1.972,1.9535,0.0,0.0,0.0,0.0,0.0,0.0,0.0,0.0,0.0,0.0,0.0,0.0,0.0,0.0,0.0,0.0,0.0,0.0,0.0,0.0,0.0,0.0,0.0,0.0,0.0,0.0,0.0,0.0,0.0,0.0,0.0,0.0,0.0,0.0,0.0,0.0,0.0,0.0,0.0,0.0,0.0,0.0,0.0,0.0,0.0,0.0,0.0,0.0,0.0,0.0,0.0,0.0,0.0,0.0,0.0,0.0,0.0,0.0,0.0,0.0,0.0,0.0,0.0,0.0,0.0,0.0,0.0,0.0,0.0,0.0,0.0,0.0,0.0,0.0,0.0,0.0,0.0,0.0,0.0,0.0,0.0,0.0,0.0,0.0,0.0,0.0,0.0,0.0,0.0,0.0,0.0,0.0,0.0,0.0,0.0,0.0,0.0,0.0,0.0,0.0,0.0,0.0,2.0508,2.033,2.021,1.9907,1.9599,1.9415,1.9401,1.9522,1.9786,0.0,0.0,0.0,0.0,0.0,0.0,0.0,0.0,0.0,0.0,0.0,0.0,0.0,0.0,0.0,0.0,0.0,0.0,0.0,0.0,0.0,0.0,0.0,0.0,0.0,0.0,0.0,0.0,0.0,0.0,0.0,0.0,0.0,0.0,0.0,0.0,0.0,0.0,0.0,0.0,0.0,0.0,0.0,0.0,0.0,0.0,0.0,0.0,0.0,0.0,0.0,0.0,0.0,0.0,0.0,0.0,0.0,0.0,0.0,0.0,0.0,0.0,0.0,0.0,0.0,0.0,0.0,0.0,0.0,0.0,0.0,0.0,0.0,0.0,0.0,0.0,0.0,0.0,0.0,0.0,0.0,0.0,0.0,0.0,0.0,0.0,0.0,0.0,0.0,0.0,0.0,0.0,0.0,0.0,0.0,0.0,0.0,0.0,0.0,0.0,0.0,0.0,2.0775,2.0641,2.041,2.0224,1.988,1.9602,1.9415,1.9401,1.9562,1.9907,0.0,0.0,0.0,0.0,0.0,0.0,0.0,0.0,0.0,0.0,0.0,0.0,0.0,0.0,0.0,0.0,0.0,0.0,0.0,0.0,0.0,0.0,0.0,0.0,0.0,0.0,0.0,0.0,0.0,0.0,0.0,0.0,0.0,0.0,0.0,0.0,0.0,0.0,0.0,0.0,0.0,0.0,0.0,0.0,0.0,0.0,0.0,0.0,0.0,0.0,0.0,0.0,0.0,0.0,0.0,0.0,0.0,0.0,0.0,0.0,0.0,0.0,0.0,0.0,0.0,0.0,0.0,0.0,0.0,0.0,0.0,0.0,0.0,0.0,0.0,0.0,0.0,0.0,0.0,0.0,0.0,0.0,0.0,0.0,0.0,0.0,0.0,0.0,0.0,0.0,0.0,0.0,0.0,0.0,0.0,0.0,0.0,0.0,0.0,0.0,0.0,0.0,2.1069,2.1109,2.0882,2.0264,2.021,2.0,1.9455,1.9401,1.9626,0.0,0.0,0.0,0.0,0.0,0.0,0.0,0.0,0.0,0.0,0.0,0.0,0.0,0.0,0.0,0.0,0.0,0.0,0.0,0.0,0.0,0.0,0.0,0.0,0.0,0.0,0.0,0.0,0.0,0.0,0.0,0.0,0.0,0.0,0.0,0.0,0.0,0.0,0.0,0.0,0.0,0.0,0.0,0.0,0.0,0.0,0.0,0.0,0.0,0.0,0.0,0.0,0.0,0.0,0.0,0.0,0.0,0.0,0.0,0.0,0.0,0.0,0.0,0.0,0.0,0.0,0.0,0.0,0.0,0.0,0.0,0.0,0.0,0.0,0.0,0.0,0.0,0.0,0.0,0.0,0.0,0.0,0.0,0.0,0.0,0.0,0.0,0.0,0.0,0.0,0.0,0.0,0.0,0.0,0.0,0.0,0.0,0.0,0.0,0.0,0.0,0.0,0.0,2.1069,2.0922,2.0735,2.0561,2.033,2.013,1.9987,1.9786,2.0013,2.0802,0.0,0.0,0.0,0.0,0.0,0.0,0.0,0.0,0.0,0.0,0.0,0.0,0.0,0.0,0.0,0.0,0.0,0.0,0.0,0.0,0.0,0.0,0.0,0.0,0.0,0.0,0.0,0.0,0.0,0.0,0.0,0.0,0.0,0.0,0.0,0.0,0.0,0.0,0.0,0.0,0.0,0.0,0.0,0.0,0.0,0.0,0.0,0.0,0.0,0.0,0.0,0.0,0.0,0.0,0.0,0.0,0.0,0.0,0.0,0.0,0.0,0.0,0.0,0.0,0.0,0.0,0.0,0.0,0.0,0.0,0.0,0.0,0.0,0.0,0.0,0.0,0.0,0.0,0.0,0.0,0.0,0.0,0.0,0.0,0.0,0.0,0.0,0.0,0.0,0.0,0.0,0.0,0.0,0.0,0.0,0.0,0.0,0.0,0.0,0.0,0.0,0.0,2.1283,2.1167,2.1007,2.0855,2.0588,2.0361,2.021,2.0037,2.0294,2.1056,0.0,0.0,0.0,0.0,0.0,0.0,0.0,0.0,0.0,0.0,0.0,0.0,0.0,0.0,0.0,0.0,0.0,0.0,0.0,0.0,0.0,0.0,0.0,0.0,0.0,0.0,0.0,0.0,0.0,0.0,0.0,0.0,0.0,0.0,0.0,0.0,0.0,0.0,0.0,0.0,0.0,0.0,0.0,0.0,0.0,0.0,0.0,0.0,0.0,0.0,0.0,0.0,0.0,0.0,0.0,0.0,0.0,0.0,0.0,0.0,0.0,0.0,0.0,0.0,0.0,0.0,0.0,0.0,0.0,0.0,0.0,0.0,0.0,0.0,0.0,0.0,0.0,0.0,0.0,0.0,0.0,0.0,0.0,0.0,0.0,0.0,0.0,0.0,0.0,0.0,0.0,0.0,0.0,0.0,0.0,0.0,0.0,0.0,0.0,0.0,0.0,0.0,2.1662,2.1622,2.1515,2.1189,2.0935,2.0695,2.0384,2.0317,2.053,2.1149,0.0,0.0,0.0,0.0,0.0,0.0,0.0,0.0,0.0,0.0,0.0,0.0,0.0,0.0,0.0,0.0,0.0,0.0,0.0,0.0,0.0,0.0,0.0,0.0,0.0,0.0,0.0,0.0,0.0,0.0,0.0,0.0,0.0,0.0,0.0,0.0,0.0,0.0,0.0,0.0,0.0,0.0,0.0,0.0,0.0,0.0,0.0,0.0,0.0,0.0,0.0,0.0,0.0,0.0,0.0,0.0,0.0,0.0,0.0,0.0,1.9423,1.8798,0.0,0.0,0.0,0.0,0.0,0.0,0.0,0.0,0.0,0.0,0.0,0.0,0.0,0.0,0.0,0.0,0.0,0.0,0.0,0.0,0.0,0.0,0.0,0.0,0.0,0.0,0.0,0.0,0.0,0.0,0.0,0.0,0.0,0.0,0.0,0.0,0.0,0.0,0.0,0.0,2.197,2.193,2.181,2.1515,2.1636,2.1683,2.1617,2.1189,2.1176,2.1764,2.1609,0.0,0.0,0.0,0.0,0.0,0.0,0.0,0.0,0.0,0.0,0.0,0.0,0.0,0.0,0.0,0.0,0.0,0.0,0.0,0.0,0.0,0.0,0.0,0.0,0.0,0.0,0.0,0.0,0.0,0.0,0.0,0.0,0.0,0.0,0.0,0.0,0.0,0.0,0.0,0.0,0.0,0.0,0.0,0.0,0.0,0.0,0.0,0.0,0.0,0.0,0.0,0.0,0.0,0.0,0.0,0.0,0.0,0.0,0.0,2.0094,1.9679,0.0,0.0,0.0,0.0,0.0,0.0,0.0,0.0,0.0,0.0,0.0,0.0,0.0,0.0,0.0,0.0,0.0,0.0,0.0,0.0,0.0,0.0,0.0,0.0,0.0,0.0,0.0,0.0,0.0,0.0,0.0,0.0,0.0,0.0,0.0,0.0,0.0,0.0,0.0,0.0,2.2479,2.2285,2.2138,2.1991,2.1977,2.1991,2.1991,2.171,2.1777,2.2398,2.2171,0.0,0.0,0.0,0.0,0.0,0.0,0.0,0.0,0.0,0.0,0.0,0.0,0.0,0.0,0.0,0.0,0.0,0.0,0.0,0.0,0.0,0.0,0.0,0.0,0.0,0.0,0.0,0.0,0.0,0.0,0.0,0.0,0.0,0.0,0.0,0.0,0.0,0.0,0.0,0.0,0.0,0.0,0.0,0.0,0.0,0.0,0.0,0.0,0.0,0.0,0.0,0.0,0.0,2.0949,2.1007,2.1243,2.0731,2.0668,2.094,2.094,2.082,2.0575,2.0304,0.0,0.0,0.0,0.0,0.0,0.0,0.0,0.0,0.0,0.0,0.0,0.0,0.0,0.0,0.0,0.0,0.0,0.0,0.0,0.0,0.0,0.0,2.1871,2.1443,2.1523,2.1823,2.2104,0.0,0.0,0.0,0.0,0.0,0.0,0.0,0.0,0.0,0.0,0.0,2.2947,2.2699,2.2552,2.2498,2.2378,2.2298,2.2298,2.2238,2.2398,2.2947,2.2659,2.2752,0.0,0.0,0.0,0.0,0.0,0.0,0.0,0.0,0.0,0.0,0.0,0.0,0.0,0.0,0.0,0.0,0.0,0.0,0.0,0.0,0.0,0.0,0.0,0.0,0.0,0.0,0.0,0.0,0.0,0.0,0.0,0.0,1.9428,1.9653,0.0,0.0,0.0,0.0,0.0,0.0,0.0,0.0,0.0,0.0,0.0,0.0,0.0,2.0762,2.1042,2.1056,2.1203,2.1529,2.1489,2.1622,2.1871,2.179,2.1777,2.1817,2.1817,0.0,2.0264,2.0224,0.0,0.0,0.0,0.0,0.0,0.0,0.0,0.0,0.0,0.0,0.0,0.0,0.0,0.0,0.0,0.0,0.0,0.0,0.0,0.0,0.0,0.0,2.2031,2.2205,2.2271,2.2378,2.2719,2.2184,2.1703,2.1917,2.1997,2.2184,0.0,0.0,0.0,0.0,0.0,0.0,2.3,2.306,2.31,2.2867,2.3281,2.3576,2.3576,2.3081,2.2899,2.3247,2.2979,2.2966,2.3278,2.3252,0.0,0.0,0.0,0.0,0.0,0.0,0.0,0.0,0.0,0.0,0.0,0.0,0.0,0.0,0.0,0.0,0.0,0.0,0.0,0.0,0.0,0.0,0.0,0.0,0.0,0.0,0.0,0.0,0.0,1.9626,1.9773,2.0241,2.0147,2.001,0.0,0.0,0.0,0.0,0.0,0.0,0.0,0.0,0.0,2.1194,2.1355,2.155,2.1844,2.1844,2.1991,2.2318,2.2318,2.2385,2.2519,2.2519,2.2519,2.2519,2.2519,2.2224,2.1683,2.1349,2.139,2.1643,0.0,0.0,0.0,0.0,2.1683,2.181,2.1643,2.1603,2.1603,2.1603,0.0,0.0,0.0,0.0,0.0,0.0,0.0,2.2825,2.2586,2.2773,2.2974,2.2712,2.2806,2.2966,2.31,2.2819,2.2485,2.2271,2.2512,2.2873,2.3335,2.3629,0.0,0.0,0.0,2.4062,2.3661,2.3594,2.3527,2.3429,2.3643,2.3803,2.3803,2.3562,2.3567,2.3999,2.3634,2.3581,2.4012,2.3901,2.3741,0.0,0.0,0.0,0.0,0.0,0.0,0.0,0.0,0.0,0.0,0.0,0.0,0.0,0.0,0.0,0.0,0.0,0.0,0.0,0.0,0.0,0.0,0.0,0.0,0.0,0.0,0.0,0.0,2.0201,2.0214,2.0722,2.0588,2.045,0.0,0.0,0.0,0.0,0.0,0.0,2.1443,2.1756,2.1957,2.2037,2.2218,2.2472,2.2766,2.2766,2.2873,2.3134,2.3134,2.3134,2.3134,2.3134,2.3134,2.3134,2.3134,2.3134,2.3081,2.2492,2.2378,2.2598,2.2418,2.2512,2.2726,2.2432,2.2325,2.2311,2.2231,2.2238,2.2238,2.2238,2.2291,2.2325,2.2325,0.0,0.0,0.0,0.0,2.3487,2.3215,2.3469,2.3696,2.3241,2.3273,2.3447,2.3447,2.3465,2.3394,2.2873,2.3126,2.3554,2.3928,2.3995,0.0,2.4863,2.4596,2.4262,2.4115,2.3968,2.3888,2.3888,2.3941,2.3995,2.3995,2.3928,2.4102,2.4572,2.4235,2.4222,2.4693,2.4462,2.4249,2.4151,0.0,0.0,0.0,0.0,0.0,0.0,0.0,0.0,0.0,0.0,0.0,0.0,0.0,0.0,0.0,0.0,0.0,0.0,0.0,0.0,0.0,0.0,0.0,0.0,0.0,0.0,0.0,0.0,0.0,2.1056,2.1069,0.0,0.0,0.0,0.0,2.1924,2.2191,2.2318,2.2318,2.2632,2.296,2.3198,2.3212,2.3407,2.3736,2.3736,2.375,2.3763,2.3763,2.3763,2.3763,2.3763,2.3763,2.3763,2.3763,2.3763,2.371,2.3108,2.3006,2.3238,2.3225,2.3447,2.371,2.3367,2.3225,2.3185,2.296,2.2853,2.2853,2.2853,2.302,2.3225,2.3225,2.3625,0.0,0.0,2.3915,2.4088,2.383,2.379,2.3803,2.3763,2.3777,2.379,2.379,2.3968,2.4075,2.3768,2.3763,2.3928,2.4452,0.0,2.4572,2.4613,2.4599,2.4422,2.3897,2.4022,2.4182,2.4182,2.4422,2.4559,2.4559,2.4342,2.4315,2.4586,2.4572,2.4693,2.5037,2.477,2.4706,2.5048,2.4218,0.0,0.0,0.0,0.0,0.0,0.0,0.0,0.0,0.0,0.0,0.0,0.0,0.0,0.0,0.0,0.0,0.0,0.0,0.0,0.0,0.0,0.0,0.0,0.0,0.0,0.0,0.0,0.0,2.1643,2.1844,0.0,2.2098,2.2552,2.2846,2.2846,2.3126,2.3287,2.3287,2.3429,2.3536,2.3607,2.3607,2.3754,2.4048,2.4048,2.4142,2.4329,2.4329,2.4329,2.4329,2.4329,2.4329,2.4329,2.4329,2.4329,2.4315,2.4088,2.3848,2.3607,2.3607,2.3674,2.379,2.3647,2.3607,2.3594,2.3522,2.3482,2.3482,2.3482,2.3562,2.3607,2.3607,2.3754,2.3901,2.383,2.3981,2.4182,2.4075,2.4195,2.4329,2.4329,2.4329,2.4329,2.4329,2.4372,2.4412,2.4342,2.4182,2.4168,2.4532,2.4439,2.4489,2.4863,2.4756,2.4519,2.4356,2.4422,2.4439,2.4439,2.4532,2.4599,2.4599,2.4506,2.4572,2.4903,2.4917,2.505,2.5344,2.5251,2.5251,2.5358,2.4863,2.4756,0.0,0.0,0.0,0.0,0.0,0.0,0.0,0.0,0.0,0.0,0.0,0.0,0.0,0.0,0.0,0.0,0.0,0.0,0.0,0.0,0.0,0.0,0.0,0.0,0.0,2.181,2.2024,2.2392,2.2605,2.2766,2.2859,2.3233,2.3474,2.3474,2.3754,2.3915,2.3915,2.4008,2.4062,2.4062,2.4062,2.4155,2.4342,2.4342,2.4502,2.4783,2.4783,2.4836,2.4893,2.4893,2.4893,2.4893,2.4893,2.4893,2.4893,2.4893,2.4703,2.4342,2.4142,2.4062,2.4062,2.4062,2.4062,2.4062,2.4062,2.4062,2.4062,2.4062,2.4062,2.4062,2.4062,2.4062,2.4088,2.4218,2.4356,2.4516,2.4623,2.4783,2.4893,2.4893,2.4893,2.4893,2.4893,2.4893,2.4893,2.4893,2.4623,2.4372,2.4572,2.4439,2.4583,2.5315,2.4957,2.4706,2.5037,2.4786,2.4599,2.4599,2.4599,2.4599,2.4599,2.4879,2.5037,2.493,2.5398,2.5571,2.5371,2.5745,2.5905,2.5812,2.5625,2.5518,2.5504,0.0,0.0,0.0,0.0,0.0,0.0,0.0,0.0,0.0,0.0,0.0,0.0,0.0,0.0,0.0,0.0,0.0,0.0,0.0,0.0,0.0,0.0,0.0,2.296,2.2632,2.2652,2.3238,2.3319,2.3474,2.379,2.383,2.383,2.383,2.4062,2.4222,2.4235,2.4452,2.4613,2.4626,2.4626,2.4626,2.4626,2.4626,2.4773,2.509,2.509,2.5237,2.5518,2.5518,2.5518,2.5518,2.5518,2.5518,2.5518,2.5518,2.5518,2.5451,2.4853,2.4626,2.4626,2.4626,2.4626,2.4626,2.4626,2.4626,2.4626,2.4626,2.4626,2.4626,2.4626,2.4626,2.4693,2.501,2.509,2.5157,2.5438,2.5518,2.5518,2.5518,2.5518,2.5518,2.5518,2.5518,2.5518,2.5518,2.5013,2.4626,2.4626,2.4626,2.4957,2.585,2.5211,0.0,2.5877,2.5197,2.4639,2.4653,2.4666,2.4666,2.4653,2.544,2.5521,2.4605,2.5804,2.6082,2.4955,2.6003,2.6467,2.6188,2.6268,2.6027,2.5416,0.0,0.0,0.0,0.0,0.0,0.0,0.0,0.0,0.0,0.0,0.0,0.0,0.0,0.0,0.0,0.0,0.0,0.0,0.0,0.0,0.0,2.3781,2.3541,2.3247,2.3313,2.3496,2.3634,2.3834,2.3995,2.4075,2.4275,2.4396,2.4396,2.4439,2.4609,2.4823,2.4917,2.505,2.5264,2.5239,2.5239,2.5239,2.5239,2.5317,2.5398,2.5398,2.5438,2.5518,2.5518,2.5518,2.5518,2.5518,2.5518,2.5518,2.5518,2.5518,2.5491,2.5331,2.5239,2.5239,2.5239,2.5239,2.5239,2.5239,2.5239,2.5239,2.5239,2.5239,2.5239,2.5239,2.5239,2.5253,2.5371,2.5398,2.5411,2.5491,2.5518,2.5518,2.5518,2.5518,2.5518,2.5518,2.5518,2.5518,2.5518,2.5384,2.5239,2.5239,2.5239,2.5358,2.5598,2.5424,2.5358,2.5598,2.5424,2.5438,2.5865,2.6092,2.6132,2.5919,2.4909,2.3873,2.2992,2.2031,2.1347,2.1044,2.1541,2.175,2.1684,2.322,2.3918,0.0,0.0,0.0,0.0,0.0,0.0,0.0,0.0,0.0,0.0,0.0,0.0,0.0,0.0,0.0,0.0,0.0,0.0,0.0,0.0,0.0,0.0,2.4142,2.3941,2.3852,2.3915,2.3995,2.4115,2.4289,2.4436,2.4556,2.473,2.4877,2.4959,2.4973,2.5077,2.5251,2.5264,2.5344,2.5504,2.5518,2.5518,2.5518,2.5518,2.5571,2.5705,2.5825,2.5945,2.6066,2.6186,2.6253,2.6253,2.6253,2.6253,2.6253,2.6253,2.6253,2.6199,0.0,0.0,0.0,0.0,2.5518,2.5518,2.5518,2.5518,2.5518,2.5518,2.5518,2.5518,2.5518,2.5518,2.5558,2.5812,2.5879,2.5932,2.6186,2.6253,2.6253,2.6253,2.6253,2.6253,2.6253,2.6253,2.6253,2.6253,2.6253,0.0,2.6253,2.5838,2.5638,2.6012,2.5745,2.5651,2.6012,2.5745,2.5638,2.5985,2.5374,2.4835,2.4709,2.323,0.0,0.0,0.0,2.0209,2.0209,2.026,0.0,0.0,0.0,2.2063,2.1764,2.306,0.0,0.0,2.4856,2.5242,0.0,0.0,0.0,0.0,0.0,0.0,0.0,0.0,0.0,0.0,0.0,0.0,0.0,0.0,0.0,0.0,2.4476,2.4396,2.4613,2.4489,2.4436,2.4626,2.4653,2.4796,2.5104,2.5168,2.5237,2.5491,2.5518,2.5531,2.5558,2.5598,0.0,0.0,0.0,2.5705,2.5705,2.5705,2.5838,2.6145,2.6399,2.6627,2.6881,2.7148,2.7309,2.7309,2.7309,2.7309,2.7309,2.7309,2.7309,2.7202,2.6119,2.5705,2.5705,2.5705,2.5705,2.5705,2.5705,0.0,0.0,2.5705,2.5705,2.5705,2.5705,2.5705,2.5825,2.6346,2.6493,2.6613,2.7175,2.7309,2.7309,2.7309,2.7309,2.7309,2.7309,2.7309,2.7309,2.7309,2.7309,2.7227,2.6928,2.6241,2.5972,2.6747,2.6213,2.5869,2.6399,2.6029,2.5539,2.505,2.3583,0.0,2.2204,2.1073,1.9967,1.9032,1.9848,2.0374,2.0374,2.0147,2.0092,2.021,2.0422,2.0229,1.9571,1.9825,1.9825,1.9693,2.3776,2.4477,0.0,0.0,0.0,0.0,0.0,0.0,0.0,0.0,0.0,0.0,0.0,0.0,0.0,0.0,0.0,2.4957,2.4943,2.493,2.4983,2.5144,2.5197,2.501,2.4997,2.5104,2.5398,2.5424,2.5451,2.5504,2.5518,2.5611,2.5891,2.6092,2.6333,2.652,2.68,2.6961,2.6961,2.6961,2.7001,2.7055,2.7108,0.0,2.7229,2.7282,2.7309,2.7309,2.7309,2.7309,2.7309,2.7309,2.7309,2.7282,2.7055,2.6961,2.6961,2.6961,2.6961,2.6961,2.6961,2.6961,2.6961,2.6961,2.6961,2.6961,2.6961,2.6961,0.0,2.7108,2.7135,2.7162,2.7282,2.7309,2.7309,2.7309,2.7309,2.7309,2.7309,2.7309,2.7309,2.7309,2.7309,2.6723,2.4795,2.5875,2.7028,2.7202,2.7081,2.6326,2.4615,2.5905,2.5684,2.2358,2.3563,2.3693,2.1578,1.9822,1.846,1.7549,1.6084,1.5244,1.5244,1.5172,1.5149,1.5192,1.6967,1.7764,1.765,1.94,1.9317,1.7684,2.0079,2.0897,0.0,0.0,0.0,0.0,0.0,0.0,0.0,0.0,0.0,0.0,0.0,2.5077,2.5077,0.0,2.5077,2.5077,2.5197,2.5291,2.5291,2.5424,2.5464,2.5317,2.5291,2.5411,2.5705,2.5865,2.6012,2.6159,2.6306,2.6453,2.664,2.6787,2.6894,2.7041,2.7229,2.7309,2.7309,2.7309,2.7309,2.7309,2.7456,2.7482,2.7523,2.7684,2.775,2.775,2.775,2.775,2.775,2.775,2.775,2.775,2.775,2.7563,2.7309,2.7309,2.7309,2.7309,2.7309,2.7309,2.7309,2.7309,2.7309,2.7309,2.7309,2.6464,2.5573,2.5711,2.5749,2.5787,2.5966,2.6851,2.775,2.775,2.6851,2.6004,2.6004,2.5126,2.4364,2.4364,2.4415,2.4112,2.2955,2.3727,2.4368,2.3995,2.4,2.3607,2.2467,2.3312,2.3275,2.1244,2.1192,2.0777,1.9463,1.7587,1.6298,1.5917,1.4782,1.4133,1.4133,1.4109,1.4034,1.396,1.5023,1.5537,1.5446,1.6535,1.6493,1.5481,1.6399,1.7434,0.0,0.0,0.0,0.0,0.0,0.0,0.0,2.1904,2.2826,2.4328,2.5157,2.5531,2.5291,2.5438,2.5545,2.5358,2.5531,2.5718,2.5838,2.5852,2.5892,2.6012,2.5825,2.5825,2.6212,2.6466,2.6653,2.6894,2.7175,2.7309,2.7309,2.7362,2.7389,2.7389,2.7443,2.7483,2.7483,2.7483,2.751,2.7576,2.7762,2.7909,2.7963,2.8245,2.8366,2.8366,2.8366,2.8366,2.8366,2.8366,2.8366,2.8366,2.8419,2.8152,2.7724,2.7536,2.7483,2.7483,2.7483,2.7483,2.7401,2.6987,2.6835,2.6765,2.6348,2.489,2.3446,2.3651,2.3707,2.3796,2.4043,2.553,2.6953,2.6953,2.5487,2.4143,2.4143,2.2717,2.1439,2.1439,2.158,2.1566,2.1076,2.1025,2.0993,2.0836,2.0895,2.0821,2.0351,2.07,2.0656,1.9696,1.8436,1.7433,1.7001,1.5459,1.4566,1.4687,1.4579,1.4557,1.4557,1.4448,1.4326,1.4204,1.4204,1.4143,1.3971,1.3971,1.3971,1.3971,1.3971,1.4887,1.3879,1.49,1.6392,1.6633,1.8238,1.9866,0.0,2.1419,2.2706,2.2917,2.4569,2.5931,2.5904,2.5931,2.6024,2.6213,2.6266,2.648,2.7041,2.7108,2.7309,2.7831,2.6961,2.6507,2.7108,2.7188,2.7229,2.7255,2.7282,2.7309,2.7309,2.7509,2.7655,2.7655,2.7951,2.8085,2.8085,2.8085,2.8232,2.8457,2.8484,2.8644,2.8855,2.8881,2.8895,2.8895,2.8895,2.8895,2.8895,2.8895,2.8895,2.8921,2.9232,2.9299,2.9138,2.8379,2.8085,2.8085,2.8085,2.8085,2.7788,2.5811,2.5184,2.4788,2.2909,2.2124,2.1958,2.1978,2.1988,2.1999,2.2019,2.2251,2.2428,2.2428,2.2251,2.2029,2.2029,2.1828,2.167,2.167,2.168,2.1031,1.8952,1.8683,1.9427,2.1274,2.161,2.0829,1.8747,2.0304,1.9982,1.585,1.7018,1.728,1.5178,1.479,1.4674,1.4694,1.4681,1.4667,1.4667,1.4654,1.4633,1.462,1.462,1.4613,1.4593,1.4593,1.4593,1.4593,1.4593,1.4442,1.3507,1.3952,1.4642,1.4642,1.5385,1.6779,1.9339,2.0522,2.178,2.4308,2.5596,2.6252,2.6252,2.6346,2.656,2.6854,2.7041,2.7295,2.7764,2.7817,2.7978,2.8364,2.7976,2.7709,2.7804,2.7817,2.7817,2.7817,2.7817,2.7898,2.8043,2.8163,2.831,2.8428,2.8604,2.8657,2.8657,2.8657,2.8724,2.8815,2.8815,2.8881,2.9001,2.9001,2.9095,2.9312,2.9472,2.9508,2.9508,2.9508,2.8639,2.7278,2.7389,2.6516,2.5534,2.8186,2.822,2.692,2.692,2.5925,2.4519,2.3582,2.3255,2.3097,2.2197,2.1001,1.9961,1.9961,1.9961,1.9961,1.9961,2.0955,2.191,2.191,2.091,1.9961,1.9961,1.8957,1.8024,1.8024,1.8113,1.7858,1.6842,1.6713,1.7106,1.8007,1.8,1.7548,1.6596,1.7318,1.718,1.5183,1.5864,1.6049,1.509,1.4997,1.4997,1.4997,1.4923,1.4875,1.4875,1.4741,1.4694,1.4694,1.4694,1.4694,1.4694,1.4694,1.4694,1.4694,1.4694,1.4559,1.3383,1.3403,1.341,1.3451,1.3464,1.4297,1.7492,1.8695,2.0007,2.319,2.4392,2.5085,2.5779,2.6094,2.6557,2.7613,2.7869,2.8083,2.85,2.8486,2.8607,2.9032,2.9018,2.8938,2.8928,2.87,2.8553,2.8553,2.8634,2.8724,2.8951,2.8898,2.8978,2.9228,2.9161,2.9161,2.9242,2.9242,2.9282,2.9406,2.9406,2.9402,2.9482,2.9482,2.9646,2.986,3.006,2.9734,2.9086,2.9086,2.7549,2.5192,2.5259,2.4127,2.2932,2.6813,2.6842,2.4934,2.4934,2.3701,2.2014,2.1427,2.1224,2.1094,2.0499,1.9172,1.7828,1.7828,1.7828,1.7828,1.7828,1.9078,2.0331,2.0331,1.9031,1.7828,1.7828,1.6565,1.5472,1.5472,1.5512,1.5593,1.5593,1.5593,1.5593,1.5593,1.5452,1.5296,1.5248,1.5208,1.5181,1.5181,1.5181,1.5181,1.5181,1.5181,1.5181,1.5181,1.5132,1.5078,1.5078,1.4923,1.4862,1.4862,1.4862,1.4862,1.4862,1.4856,1.4877,1.4877,1.4924,1.4944,1.3437,1.3403,1.3437,1.3545,1.3578,1.3661,1.3918,1.5643,1.7205,1.7366,1.9288,2.1736,2.4299,2.4772,2.5689,2.8495,2.8764,2.8778,2.9366,2.9192,2.9339,3.0253,3.006,3.01,3.0662,2.994,2.9446,2.9446,2.97,2.986,2.9873,2.9606,2.9593,2.9873,2.9619,2.9606,2.9887,2.9887,3.0034,3.036,3.036,3.0461,3.0742,3.0742,3.0742,3.0755,3.0768,2.933,2.7004,2.7004,2.545,2.3118,2.3377,2.342,2.344,2.3904,2.3294,2.2234,2.2234,2.2188,2.1767,1.9654,1.9008,1.8578,1.6433,1.5766,1.567,1.567,1.567,1.567,1.567,1.5766,1.5815,1.5815,1.5718,1.567,1.567,1.5628,1.5587,1.5587,1.5587,1.5593,1.5593,1.5593,1.5593,1.5593,1.558,1.5526,1.5425,1.5276,1.5181,1.5181,1.5181,1.5181,1.5181,1.5181,1.5181,1.5181,1.5181,1.5174,1.5174,1.5174,1.5167,1.5167,1.5167,1.5167,1.5167,1.5316,1.5391,1.5398,1.5492,1.5566,1.3639,1.3585,1.3545,1.3693,1.3727,1.4188,1.5867,1.6851,1.7819,1.948,2.0576,2.1493,2.2348,2.3937,2.5488,2.6697,2.6817,2.6879,2.7247,2.5899,2.4977,2.5315,2.6872,2.7974,2.8204,2.9358,3.0105,3.0105,2.9967,3.0007,3.0207,3.0159,3.0194,3.0488,3.0408,3.0394,3.0501,3.0501,3.0555,3.0648,3.0648,3.0702,3.0795,3.0996,3.1076,3.1089,3.1289,2.9917,2.751,2.751,2.4955,2.1008,2.1119,2.0081,1.8594,1.8698,1.8474,1.8374,2.0088,1.9567,1.8002,1.7291,1.7013,1.6881,1.6159,1.5934,1.5934,1.5934,1.5934,1.5934,1.5934,1.5934,1.5934,1.5934,1.5934,1.5934,1.5934,1.5934,1.5934,1.5934,1.6015,1.6083,1.6083,1.6164,1.6157,1.5961,1.5715,1.5573,1.5519,1.5472,1.5486,1.5486,1.5486,1.5486,1.5486,1.5486,1.5486,1.5486,1.5391,1.5337,1.5337,1.5235,1.5181,1.5181,1.5282,1.5337,1.5337,1.5486,1.5512,1.5512,1.5566,1.5593,1.3714,1.3693,1.37,1.3885,1.3926,1.4348,1.5966,1.6392,1.69,1.8488,1.8991,1.9375,2.0334,2.1895,2.3374,2.4528,2.4742,2.4798,2.4954,2.3788,2.289,2.3008,2.4565,2.6064,2.711,2.8597,2.9785,3.0629,3.0595,3.0621,3.0868,3.0774,3.0808,3.1102,3.1009,3.0996,3.1102,3.1102,3.1102,3.1102,3.1102,3.1156,3.1216,3.0432,3.0669,3.1609,2.9825,2.8135,2.6531,2.5544,2.2637,1.8747,1.8747,1.7684,1.6164,1.6164,1.613,1.6325,1.8031,1.7494,1.6083,1.6083,1.6083,1.6083,1.6083,1.6083,1.6083,1.6083,1.6083,1.6083,1.6083,1.6083,1.6083,1.6083,1.6083,1.6096,1.6151,1.6164,1.6178,1.6232,1.632,1.6388,1.6388,1.6463,1.6456,1.6266,1.6076,1.583,1.5614,1.5593,1.5593,1.5593,1.5593,1.5593,1.5593,1.5593,1.5593,1.5593,1.5594,1.5547,1.5445,1.5445,1.5473,1.5473,1.552,1.5594,1.5649,1.5805,1.583,1.583,1.5884,1.5905,1.3653,1.3714,1.3849,1.4048,1.4125,1.4166,1.4278,1.4414,1.4516,1.4529,1.4774,1.5753,1.825,1.8833,1.973,2.2187,2.259,2.258,2.26,2.2601,2.2724,2.2989,2.3125,2.4321,2.712,2.754,2.8499,3.064,3.1362,3.1711,3.1711,3.1396,3.1383,3.1711,3.1396,3.1396,3.1738,3.1751,3.1669,3.1513,3.1513,3.1612,3.1623,2.9007,2.9396,3.1884,2.6579,2.4287,2.4087,2.1495,1.8838,1.6524,1.6524,1.6435,1.632,1.632,1.6232,1.6103,1.6103,1.6096,1.6083,1.6083,1.6083,1.6083,1.6083,1.6083,1.6083,1.6083,1.6083,1.6083,1.6083,1.6083,1.6083,1.6083,1.6083,1.6123,1.6279,1.6307,1.6354,1.649,1.653,1.6537,1.6544,1.6537,1.653,1.653,1.6473,1.627,1.5708,1.5634,1.5634,1.5634,1.5634,1.5634,1.5634,1.5627,1.5627,1.5634,1.5798,1.5805,1.5627,1.5798,1.5915,1.5915,1.5922,1.5996,1.6096,1.6246,1.632,1.6327,1.6456,1.6524,1.4075,1.4075,1.4048,1.4204,1.4245,1.4278,1.4428,1.4482,1.4577,1.4808,1.4997,1.5362,1.6161,1.7781,1.9278,1.9932,1.9958,1.9913,2.0017,1.8566,1.7556,1.7813,1.9631,2.1142,2.1921,2.3734,2.512,2.5731,2.9432,3.1711,3.1711,3.1597,3.1597,3.1711,3.1644,3.169,3.1984,3.226,3.1322,2.9225,2.9225,2.8208,2.6233,2.5539,2.567,2.633,2.4926,2.3236,2.1394,2.0696,1.8838,1.6524,1.6524,1.6497,1.6469,1.6469,1.6442,1.6408,1.6408,1.6266,1.6083,1.6083,1.6083,1.6083,1.6083,1.6083,1.6083,1.6083,1.6083,1.6083,1.6083,1.6083,1.6083,1.6083,1.6083,1.6123,1.6279,1.6307,1.6354,1.649,1.656,1.6675,1.6842,1.6768,1.6642,1.6642,1.654,1.6418,1.6263,1.6249,1.6249,1.6249,1.6249,1.6249,1.6249,1.6198,1.6185,1.6243,1.6123,1.6056,1.6137,1.6062,1.6071,1.6071,1.6137,1.6212,1.6252,1.6395,1.6469,1.6469,1.6503,1.6524,1.415,1.4183,1.419,1.4278,1.4299,1.4353,1.4518,1.4665,1.4801,1.5099,1.533,1.5554,1.5588,1.6685,1.7533,1.7533,1.7504,1.7473,1.7573,1.6555,1.5859,1.5996,1.7343,1.8764,1.988,2.1343,2.2701,2.3914,2.6658,2.8308,2.8367,2.8379,2.8379,2.8437,2.8437,2.8508,2.8663,2.8855,2.8174,2.6628,2.6628,2.5876,2.4478,2.3219,2.3418,2.4578,2.2151,2.0935,2.0645,1.945,1.8151,1.6822,1.689,1.6876,1.6815,1.6815,1.6775,1.672,1.672,1.6619,1.6442,1.6246,1.6137,1.6083,1.6083,1.6083,1.6083,1.6083,1.6083,1.6083,1.6083,1.6083,1.6083,1.6083,1.613,1.6225,1.6368,1.6405,1.6493,1.6693,1.6795,1.6876,1.6965,1.691,1.6849,1.6849,1.6775,1.672,1.672,1.6605,1.6524,1.6524,1.6524,1.6524,1.6524,1.6449,1.6435,1.6517,1.6429,1.6381,1.6402,1.6381,1.6374,1.6374,1.6463,1.6537,1.6605,1.6686,1.672,1.672,1.672,1.672,1.4089,1.4211,1.4326,1.4306,1.4333,1.4428,1.466,1.4889,1.5086,1.5404,1.5724,1.5908,1.5928,1.5764,1.5614,1.5593,1.5593,1.5593,1.5593,1.5879,1.6056,1.6083,1.6083,1.7013,1.9249,1.9511,2.0475,2.2871,2.2983,2.3268,2.4096,2.4106,2.4186,2.4327,2.4357,2.4367,2.4367,2.4398,2.4217,2.3866,2.3866,2.3863,2.3692,2.1251,2.1603,2.3826,1.9044,1.8327,2.04,1.8126,1.7195,1.7209,1.7358,1.7338,1.7222,1.7222,1.7148,1.7039,1.7039,1.7026,1.6944,1.653,1.6307,1.6198,1.6178,1.6171,1.6164,1.6123,1.6123,1.6137,1.6117,1.6123,1.6137,1.6137,1.6239,1.6374,1.6524,1.6621,1.677,1.6951,1.6978,1.6978,1.6978,1.6978,1.6978,1.6978,1.6978,1.6978,1.6978,1.6748,1.6585,1.6585,1.6585,1.6585,1.6585,1.6564,1.6558,1.6578,1.6635,1.6648,1.6585,1.6655,1.673,1.673,1.673,1.6842,1.6978,1.6978,1.6978,1.6978,1.6978,1.6978,1.419,1.4367,1.4448,1.4333,1.4482,1.4713,1.4889,1.5045,1.5309,1.5738,1.5867,1.5942,1.6015,1.5969,1.5778,1.5607,1.5593,1.5593,1.5593,1.5784,1.599,1.6069,1.6083,1.6275,1.6715,1.6885,1.7121,1.7594,1.774,1.9705,2.4028,2.4277,2.4287,2.4277,2.4558,2.4699,2.4699,2.4951,2.3917,2.1673,2.1673,2.0509,1.8335,1.7865,1.7939,1.8372,1.7391,1.7293,1.766,1.7346,1.7195,1.7209,1.7358,1.7405,1.7378,1.7378,1.7365,1.7344,1.7344,1.7263,1.7121,1.6931,1.6849,1.6802,1.6673,1.6581,1.6533,1.6341,1.6354,1.6415,1.63,1.6361,1.6442,1.6442,1.6463,1.6473,1.6628,1.6829,1.6951,1.6978,1.6978,1.6978,1.6978,1.6978,1.6978,1.6978,1.6978,1.6978,1.6978,1.6937,1.6904,1.6904,1.6904,1.6904,1.6904,1.6781,1.6761,1.689,1.6802,1.6743,1.6897,1.6924,1.6937,1.6937,1.6937,1.6951,1.6978,1.6978,1.6978,1.6978,1.6978,1.6978,1.4217,1.4407,1.4496,1.4428,1.4532,1.4755,1.5031,1.5133,1.5289,1.5662,1.5854,1.5928,1.5996,1.5949,1.5881,1.5764,1.575,1.575,1.575,1.5879,1.6051,1.6076,1.6083,1.611,1.6191,1.6266,1.6374,1.6479,1.6554,1.7704,2.023,2.0423,2.0473,2.0473,2.0659,2.0761,2.0761,2.0853,2.0279,1.8992,1.8992,1.8275,1.6978,1.6978,1.7019,1.7087,1.7087,1.7134,1.7222,1.7372,1.7433,1.7446,1.7595,1.765,1.765,1.765,1.765,1.765,1.765,1.7602,1.7528,1.7514,1.7282,1.6965,1.689,1.687,1.6822,1.6547,1.6533,1.6554,1.6456,1.6469,1.6524,1.6524,1.6533,1.6628,1.6836,1.6931,1.6978,1.6978,1.6978,1.6978,1.6978,1.6978,1.6978,1.6978,1.6978,1.6978,1.6978,1.6978,1.6978,1.6978,1.6978,1.6978,1.6978,1.691,1.6904,1.6978,1.691,1.6904,1.6978,1.6978,1.6978,1.6978,1.6978,1.6978,1.6978,1.6978,1.6978,1.6978,1.6978,1.6978,1.4306,1.4502,1.4604,1.457,1.4699,1.4896,1.5126,1.5208,1.5309,1.5533,1.573,1.5867,1.5894,1.5901,1.5901,1.5901,1.5928,1.5942,1.5908,1.6037,1.6083,1.6083,1.6083,1.6144,1.6293,1.6341,1.6463,1.6675,1.673,1.675,1.675,1.6917,1.6978,1.6978,1.6978,1.6978,1.6978,1.6978,1.6978,1.6978,1.6978,1.6978,1.6985,1.7012,1.7087,1.7195,1.7229,1.7311,1.7433,1.7534,1.7595,1.7609,1.7812,1.7915,1.7915,1.7915,1.7915,1.7915,1.7915,1.7915,1.7915,1.7915,1.7602,1.7161,1.7134,1.7121,1.7087,1.6844,1.679,1.6757,1.6659,1.6619,1.6619,1.6619,1.6714,1.6836,1.6951,1.6978,1.6978,1.6978,1.6978,1.6978,1.6978,1.6978,1.6978,1.6978,1.6978,1.6978,1.6978,1.6978,1.6978,1.6978,1.6978,1.6978,1.6978,1.6978,1.6978,1.6978,1.6978,1.6978,1.6978,1.6978,1.6978,1.6978,1.6978,1.6978,1.6978,1.6978,1.6978,1.6978,1.6978,1.6978,1.4584,1.4814,1.4896,1.4708,1.493,1.5147,1.5174,1.5289,1.5438,1.5553,1.56,1.5696,1.5881,1.5901,1.5901,1.5901,1.6017,1.6058,1.5922,1.6037,1.6083,1.6083,1.6083,1.6144,1.6293,1.6429,1.652,1.6682,1.6876,1.6958,1.6958,1.6971,1.6978,1.6978,1.6978,1.6978,1.6978,1.6978,1.6978,1.6978,1.6978,1.6978,1.6985,1.7114,1.7182,1.7202,1.7338,1.7405,1.7433,1.7534,1.7595,1.7609,1.7812,1.7915,1.7915,1.7915,1.7915,1.7915,1.7915,1.7915,1.7915,1.7915,1.7881,1.7758,1.7629,1.7534,1.7473,1.7236,1.7154,1.7121,1.6978,1.6937,1.6937,1.6937,1.6951,1.6965,1.6978,1.6978,1.6978,1.6978,1.6978,1.6978,1.6978,1.6978,1.6978,1.6978,1.6978,1.6978,1.6978,1.6978,1.6978,1.6978,1.6978,1.6978,1.6978,1.6978,1.6978,1.6978,1.6978,1.6978,1.6978,1.6978,1.6978,1.6978,1.6978,1.6978,1.6978,1.6978,1.6978,1.6978,1.6978,1.6978,1.4557,1.478,1.5003,1.4896,1.5031,1.5181,1.5181,1.5228,1.5289,1.535,1.5438,1.552,1.5574,1.5779,1.5901,1.5901,1.603,1.609,1.6123,1.6178,1.6218,1.6218,1.6218,1.6279,1.6422,1.649,1.6625,1.687,1.6944,1.6978,1.6978,1.6978,1.6978,1.6978,1.6978,1.6978,1.6978,1.6978,1.7026,1.7107,1.7019,1.7073,1.7243,1.7209,1.729,1.7412,1.748,1.7609,1.7684,1.7758,1.7772,1.7792,1.7846,1.7915,1.7915,1.7915,1.7915,1.7915,1.7915,1.7915,1.7915,1.7915,1.7915,1.7902,1.7792,1.7772,1.7738,1.7528,1.7467,1.7412,1.7168,1.7046,1.6978,1.6978,1.6978,1.6978,1.6978,1.6978,1.6978,1.6978,1.6978,1.6978,1.6978,1.6978,1.6978,1.6978,1.6978,1.6978,1.6978,1.6978,1.6978,1.6978,1.6978,1.6978,1.6978,1.6978,1.6978,1.6978,1.6978,1.6978,1.6978,1.6978,1.6978,1.6978,1.6978,1.6978,1.6978,1.6978,1.6978,1.6978,1.6978,1.6072,1.4658,1.4841,1.503,1.5071,1.5106,1.5181,1.5181,1.5181,1.5181,1.5181,1.5269,1.5357,1.5404,1.5622,1.5854,1.5894,1.603,1.6137,1.6286,1.6307,1.6327,1.6368,1.6415,1.6476,1.6527,1.6632,1.6748,1.6965,1.6978,1.6978,1.6978,1.6978,1.6978,1.6978,1.6978,1.6978,1.6978,1.7026,1.7093,1.7195,1.7134,1.7222,1.7419,1.7358,1.7446,1.7595,1.7649,1.7772,1.7915,1.7915,1.7915,1.7915,1.7915,1.7915,1.7915,1.7915,1.7915,1.7915,1.7915,1.7915,1.7915,1.7915,1.7915,1.7915,1.7915,1.7915,1.7846,1.7738,1.7629,1.7527,1.727,1.7121,1.7032,1.6992,1.6978,1.6978,1.6978,1.6978,1.6978,1.6978,1.6978,1.6978,1.6978,1.6978,1.6978,1.6978,1.6978,1.6978,1.6978,1.6978,1.6978,1.6978,1.6978,1.6978,1.6978,1.6978,1.6978,1.6978,1.6978,1.6978,1.6978,1.6978,1.6978,1.6978,1.6978,1.6978,1.6978,1.6124,1.575,1.5697,1.485,1.3411,1.5018,1.5119,1.5051,1.5147,1.5181,1.5181,1.5181,1.5181,1.5181,1.5181,1.5181,1.5228,1.5384,1.5492,1.5689,1.5881,1.603,1.6137,1.6286,1.6307,1.6361,1.6503,1.6601,1.6696,1.6696,1.689,1.6978,1.6978,1.6978,1.6978,1.6978,1.6978,1.6978,1.6978,1.6978,1.6978,1.6978,1.7121,1.7188,1.7195,1.7344,1.7419,1.7426,1.7521,1.7595,1.7595,1.7792,1.7915,1.7915,1.7915,1.7915,1.7915,1.7915,1.7915,1.7915,1.7915,1.7915,1.7915,1.7915,1.7915,1.7915,1.7915,1.7915,1.7915,1.7915,1.7915,1.7915,1.7915,1.7758,1.7527,1.727,1.7188,1.7154,1.7012,1.6978,1.6978,1.6978,1.6978,1.6978,1.6978,1.6978,1.6978,1.6978,1.6978,1.6978,1.6978,1.6978,1.6978,1.6978,1.6978,1.6978,1.6978,1.6978,1.6978,1.6978,1.6978,1.6978,1.6978,1.6978,1.6978,1.6978,1.6978,1.6978,1.6978,1.6978,1.6978,1.6978,1.4154,1.2716,1.2663,0.9862,0.8593,1.4699,1.4767,1.4821,1.4869,1.4882,1.4882,1.4882,1.4964,1.5038,1.5038,1.516,1.5194,1.5248,1.5377,1.5533,1.5683,1.5832,1.6049,1.6402,1.6456,1.6469,1.6466,1.6564,1.654,1.654,1.6829,1.6978,1.6978,1.6978,1.6978,1.6978,1.7073,1.708,1.6985,1.6978,1.7026,1.7121,1.7168,1.7297,1.7446,1.7446,1.7528,1.7724,1.767,1.7704,1.7792,1.7846,1.7915,1.7915,1.7915,1.7915,1.7915,1.7915,1.7915,1.7915,1.7915,1.7915,1.7915,1.7915,1.7915,1.7915,1.7915,1.7915,1.7915,1.7915,1.7915,1.7915,1.7915,1.7758,1.7548,1.7399,1.727,1.7154,1.7012,1.6978,1.6978,1.6978,1.6978,1.6978,1.6978,1.6978,1.6978,1.6978,1.6978,1.6978,1.6978,1.6978,1.6978,1.6978,1.689,1.677,1.677,1.5084,1.4755,1.6814,1.6978,1.6978,1.6978,1.6978,1.6978,1.6978,1.5113,1.4049,1.4049,1.2194,1.1187,1.1187,1.0285,0.9809,0.9757,0.6899,0.5576,1.4545,1.4579,1.462,1.4681,1.4694,1.4694,1.4694,1.4862,1.5017,1.5017,1.5132,1.5181,1.5181,1.5357,1.5479,1.5573,1.5805,1.6076,1.6469,1.6524,1.6585,1.6754,1.6727,1.6714,1.6768,1.6897,1.6978,1.6978,1.7032,1.706,1.706,1.7202,1.7209,1.7066,1.7114,1.7188,1.7277,1.7338,1.7406,1.7595,1.7609,1.7684,1.7915,1.7772,1.7772,1.7915,1.7915,1.7915,0.0,1.7915,1.7915,1.7915,1.7915,1.7915,1.7915,1.7915,1.7915,1.7915,1.7915,1.7915,1.7915,1.7915,1.7915,1.7915,1.7915,1.7915,1.7915,1.7915,1.7792,1.7684,1.7473,1.7351,1.7229,1.7026,1.6978,1.6978,1.6978,1.6978,1.6978,1.6978,1.6978,1.6978,1.6978,1.6978,1.6978,1.6978,1.6978,1.6958,1.6904,1.6757,1.6306,1.5208,1.3537,1.2834,1.3746,1.3796,1.3802,1.3809,1.3804,1.3804,1.3804,1.2054,1.1111,1.1122,0.9405,0.8527,0.8496,0.7417,0.6316,0.5258,0.3456,0.2606,0.0,1.4469,1.4529,1.4626,1.466,1.466,1.466,1.4835,0.0,1.5003,1.5079,1.5181,1.5181,1.5425,1.558,1.5587,1.5879,1.6171,1.6476,1.653,1.6693,1.7127,1.706,1.7039,1.7175,1.708,1.7012,1.7012,1.7134,1.7209,1.7209,1.7351,1.7372,1.7229,1.7372,1.7439,1.7419,1.7514,1.7595,1.7609,1.7792,1.7915,1.7915,1.7915,1.7915,1.7915,1.7915,1.7915,1.7915,1.7915,1.7915,1.7915,1.7915,1.7915,1.7915,1.7915,1.7915,1.7915,1.7915,1.7915,1.7915,1.7902,1.7902,1.7902,1.7881,1.7902,1.7915,1.7915,1.7915,1.7847,1.75,1.7419,1.7344,1.7053,1.6978,1.6978,1.6978,1.6978,1.6978,1.6978,1.6971,1.6965,1.6965,1.6958,1.6951,1.6951,1.6951,1.6844,1.6437,1.641,1.5305,1.2492,1.2016,1.0877,0.84,0.8369,0.849,0.8524,0.8517,0.8517,0.8517,0.8327,0.8178,0.8211,0.798,0.791,0.7895,0.5228,0.2549,0.0,0.0,0.0,1.1632,0.0,1.436,1.4394,1.4401,1.4401,0.0,1.4604,1.4748,1.4748,1.5004,1.5181,1.5181,1.5337,1.5499,1.5573,1.5791,1.6098,1.6463,1.6567,1.673,1.7005,1.7005,1.7039,1.7175,1.727,1.7317,1.7317,1.7351,1.7365,1.7365,1.746,1.7527,1.7487,1.7684,1.765,1.7419,1.7514,1.7704,1.7812,1.7902,1.7915,1.7915,1.7915,1.7915,1.7915,1.7915,1.7915,1.7915,1.7915,1.7915,1.7915,1.7915,1.7915,1.7915,1.7915,1.7915,1.7915,1.7915,1.7915,1.7846,1.7738,1.7649,1.7629,1.7561,1.7684,1.7915,1.7915,1.7915,1.7847,1.75,1.7419,1.7344,1.7053,1.6978,1.6978,1.6978,1.6978,1.6978,1.6978,1.6883,1.675,1.675,1.6707,1.6632,1.6632,1.6632,1.5834,1.3779,1.3382,1.2288,0.9561,0.7311,0.5762,0.5117,0.7187,0.8486,0.852,0.8517,0.8517,0.8517,0.6368,0.5235,0.5222,0.312,0.198,0.1976,0.1303,0.0627,0.0,0.0,0.0,1.0407,1.2458,1.4299,1.4299,1.4299,1.4299,1.4299,1.4529,1.4694,1.4694,1.4977,1.5181,1.5181,1.5309,1.5459,1.5566,1.5757,1.6058,1.6456,1.6714,1.689,1.6971,1.7039,1.7107,1.7182,1.7331,1.7419,1.7419,1.7487,1.7473,1.7473,1.767,1.7717,1.7595,1.7792,1.7792,1.7623,1.7704,1.7792,1.7915,1.7915,1.7915,1.7915,1.7915,1.7915,1.7915,1.7915,1.7915,1.7915,1.7915,1.7915,1.7915,1.7915,1.7915,1.7915,1.7915,1.7826,1.7772,1.7846,1.7826,1.7738,1.7541,1.7487,1.7473,1.7446,1.7534,1.767,1.7738,1.7758,1.7704,1.748,1.7419,1.7344,1.7053,1.6978,1.6978,1.6978,1.6924,1.6876,1.6876,1.6696,1.6594,1.6594,1.5539,1.4656,1.4656,1.3626,1.2262,1.0781,1.0524,0.9408,0.664,0.4916,0.3492,0.2268,0.3659,0.4596,0.4596,0.4596,0.4596,0.4596,0.308,0.227,0.228,0.0775,0.0,0.0,0.0,0.0,0.0,0.0,0.0,0.9064,1.1388,1.3356,1.4122,1.4299,1.4299,1.4299,1.4529,1.4694,1.4694,1.4977,1.5181,1.5181,1.5323,1.5486,1.5566,1.5818,1.609,1.6469,1.6788,1.6992,1.7012,1.7141,1.7236,1.7256,1.7399,1.7487,1.7487,1.7554,1.7629,1.7629,1.7792,1.7812,1.7629,1.7792,1.7915,1.7915,1.7915,1.7915,1.7915,1.7915,1.7915,1.7915,1.7915,1.7915,1.7915,1.7915,1.7915,1.7915,1.7915,1.7915,1.7915,1.7915,1.7915,1.7915,1.7915,1.7772,1.7609,1.7758,1.7717,1.7534,1.7433,1.7385,1.7385,1.7358,1.7351,1.7385,1.748,1.7527,1.7487,1.7392,1.7338,1.7249,1.6978,1.691,1.691,1.691,1.649,1.619,1.661,1.5917,1.5405,1.5813,1.3632,1.1823,1.1823,0.9869,0.8256,0.7687,0.7629,0.6544,0.3677,0.3372,0.2469,0.0202,0.0,0.0,0.0,0.0,0.0,0.0,0.0,0.0,0.0,0.0,0.0,0.0,0.0,0.0,0.0,0.0,0.0,0.4606,0.6388,0.9197,1.3268,1.4299,1.4299,1.4299,1.4529,1.4694,1.4694,1.4977,1.5181,1.5181,1.5411,1.556,1.5587,1.6026,1.6442,1.651,1.6788,1.7026,1.7148,1.7297,1.7439,1.7514,1.7704,1.7847,1.7847,1.7868,1.7826,1.7826,1.7902,1.7902,1.7826,1.7902,1.7915,1.7915,1.7915,1.7915,1.7915,1.7915,1.7915,1.7915,1.7915,1.7915,1.7915,1.7915,1.7915,1.7915,1.7915,1.7915,1.7915,1.7915,1.7915,1.7915,1.7915,1.7772,1.7575,1.7528,1.7473,1.7433,1.7277,1.7229,1.7202,1.7087,1.7046,1.708,1.7222,1.7263,1.7229,1.7087,1.6951,1.6757,1.6632,1.6592,1.6592,1.6592,1.4756,1.3814,1.609,1.2783,1.0257,1.2551,1.0597,0.8679,0.8679,0.8324,0.7264,0.4942,0.4638,0.363,0.0908,0.0606,0.0454,0.0051,0.0,0.0,0.0,0.0,0.0,0.0,0.0,0.0,0.0,0.0,0.0,0.0,0.0,0.0,0.0,0.0,0.0,0.3268,0.4383,0.6035,0.9557,1.1388,1.2668,1.3927,1.4407,1.4593,1.4674,1.4916,1.5092,1.5167,1.5296,1.5445,1.5566,1.6069,1.6435,1.651,1.6788,1.7005,1.7073,1.7277,1.7392,1.7467,1.7738,1.7915,1.7915,1.7915,1.7915,1.7915,1.7915,1.7915,1.7915,1.7915,1.7915,1.7915,1.7915,1.7915,1.7915,1.7915,1.7915,1.7915,1.7915,1.7915,1.7915,1.7915,1.7915,1.7915,1.7915,1.7915,1.7915,1.7915,1.7915,1.7902,1.7684,1.7629,1.7548,1.729,1.7229,1.727,1.7127,1.6056,1.4757,1.4704,1.3622,1.2405,1.2495,1.4721,1.6743,1.5236,1.4697,1.414,1.2564,1.3262,1.3934,1.2487,1.2288,1.2349,1.2094,0.9923,0.8546,0.9756,0.766,0.5831,0.5831,0.463,0.3224,0.2016,0.1815,0.1362,0.0151,0.0,0.0,0.0,0.0,0.0,0.0,0.0,0.0,0.0,0.0,0.0,0.0,0.0,0.0,0.0,0.0,0.0,0.0,0.0,0.0,0.2248,0.2736,0.331,0.5659,0.853,1.1216,1.2916,1.3947,1.459,1.4626,1.4835,1.5064,1.52,1.5242,1.5391,1.5689,1.6062,1.6361,1.6503,1.6788,1.6978,1.6978,1.7209,1.7385,1.7419,1.765,1.7826,1.7915,1.7915,1.7915,1.7915,1.7915,1.7915,1.7915,1.7915,1.7915,1.7915,1.7915,1.7915,1.7915,1.7915,1.7915,1.7915,1.7915,1.7915,1.7915,1.7915,1.7915,1.7915,1.7915,1.7915,1.7915,1.7915,1.7915,1.7881,1.7528,1.744,1.748,1.7121,1.6624,1.626,1.6802,1.4581,1.1815,1.2505,1.0743,0.8499,0.8493,1.1635,1.4505,1.2447,1.1739,1.1068,0.8888,0.9951,1.0875,0.8822,0.9436,0.9949,0.8481,0.7074,0.6336,0.6935,0.4829,0.3072,0.3072,0.1311,0.0,0.0,0.0,0.0,0.0,0.0,0.0,0.0,0.0,0.0,0.0,0.0,0.0,0.0,0.0,0.0,0.0,0.0,0.0,0.0,0.0,0.0,0.0,0.0,0.0,0.0228,0.0271,0.0805,0.3095,0.7324,1.088,1.095,1.2873,1.464,1.4557,1.4767,1.5064,1.52,1.5411,1.5703,1.6001,1.6198,1.6361,1.6503,1.6788,1.6978,1.6978,1.7114,1.7263,1.7405,1.7514,1.7717,1.7902,1.7915,1.7915,1.7915,1.7915,1.7915,1.7915,1.7915,1.7915,1.7915,1.7915,1.7915,1.7915,1.7915,1.7915,1.7915,1.7915,1.7915,1.7915,1.7915,1.7915,1.7915,1.7915,1.7915,1.7915,1.7915,1.7915,1.7881,1.7528,1.7426,1.7392,1.7087,1.5224,1.3469,1.6131,1.3253,0.9281,1.1925,1.0752,0.8486,0.848,0.8693,0.8895,0.8687,0.8478,0.8263,0.8109,0.8206,0.8256,0.8055,0.6243,0.5285,0.7597,0.3979,0.1362,0.3875,0.2067,0.0303,0.0303,0.0101,0.0,0.0,0.0,0.0,0.0,0.0,0.0,0.0,0.0,0.0,0.0,0.0,0.0,0.0,0.0,0.0,0.0,0.0,0.0,0.0,0.0,0.0,0.0,0.0,0.0,0.0,0.0,0.0225,0.1079,0.3905,0.6831,0.8046,1.0337,1.2301,1.2501,1.3793,1.493,1.5262,1.5343,1.5486,1.5922,1.6037,1.6144,1.6476,1.67,1.687,1.6971,1.7107,1.7249,1.7405,1.7507,1.7704,1.7902,1.7915,1.7915,1.7915,1.7915,1.7915,1.7915,1.7915,1.7915,1.7915,1.7915,1.7915,1.7915,1.7915,1.7915,1.7915,1.7915,1.7915,1.7915,1.7915,1.7915,1.7915,1.7915,1.7915,1.7915,1.7915,1.7812,1.7704,1.7494,1.7358,1.7249,1.7046,1.6288,1.5271,1.4528,1.1662,0.8372,0.7641,0.5466,0.3194,0.3211,0.3184,0.3524,0.5306,0.5623,0.508,0.3426,0.4278,0.508,0.3374,0.3525,0.3825,0.3174,0.1362,0.0303,0.1362,0.0656,0.0,0.0,0.0,0.0,0.0,0.0,0.0,0.0,0.0,0.0,0.0,0.0,0.0,0.0,0.0,0.0,0.0,0.0,0.0,0.0,0.0,0.0,0.0,0.0,0.0,0.0,0.0,0.0,0.0,0.0,0.0,0.0,0.1288,0.2996,0.4387,0.7294,0.9962,1.1039,1.321,1.4998,1.5357,1.5404,1.5541,1.5854,1.5942,1.6049,1.6402,1.6574,1.6736,1.6897,1.7039,1.7202,1.7399,1.746,1.765,1.7902,1.7915,1.7915,1.7915,1.7915,1.7915,1.7915,1.7915,1.7915,1.7915,1.7915,1.7915,1.7915,1.7915,1.7915,1.7915,1.7915,1.7915,1.7915,1.7915,1.7915,1.7915,1.7915,1.7915,1.786,1.7812,1.7176,1.6342,1.7096,1.6147,1.4644,1.5372,1.4476,1.2779,1.1714,0.884,0.56,0.4519,0.225,0.0,0.0,0.0,0.0459,0.2391,0.2784,0.2267,0.0454,0.1412,0.2218,0.0404,0.1462,0.2218,0.0353,0.0,0.0,0.0,0.0,0.0,0.0,0.0,0.0,0.0,0.0,0.0,0.0,0.0,0.0,0.0,0.0,0.0,0.0,0.0,0.0,0.0,0.0,0.0,0.0,0.0,0.0,0.0,0.0,0.0,0.0,0.0,0.0,0.0,0.0,0.0,0.0,0.0,0.0,0.0,0.3802,0.8034,1.0359,1.3254,1.5364,1.5364,1.5649,1.5901,1.5901,1.603,1.613,1.6286,1.6513,1.6696,1.6696,1.689,1.71,1.7392,1.7419,1.7541,1.7846,1.7915,1.7915,1.7915,1.7915,1.7915,1.7915,1.7915,1.7915,1.7915,1.786,1.786,1.786,1.7805,1.7805,1.786,1.786,1.786,1.7805,1.7805,1.7805,1.786,1.786,1.786,1.7784,1.7588,1.5815,1.3638,1.6213,1.3535,0.9071,1.1747,0.8964,0.4729,0.7535,0.4648,0.0579,0.3305,0.223,0.0,0.0,0.0,0.0,0.0,0.0,0.0,0.0,0.0,0.0,0.0,0.0,0.0,0.0,0.0,0.0,0.0,0.0,0.0,0.0,0.0,0.0,0.0,0.0,0.0,0.0,0.0,0.0,0.0,0.0,0.0,0.0,0.0,0.0,0.0,0.0,0.0,0.0,0.0,0.0,0.0,0.0,0.0,0.0,0.0,0.0,0.0,0.0,0.0,0.0,0.0,0.0,0.0,0.2436,0.5456,0.7917,1.0734,1.2749,1.2749,1.4268,1.5608,1.5867,1.5942,1.6058,1.6273,1.6469,1.6574,1.6682,1.689,1.71,1.7392,1.7419,1.7541,1.7846,1.7915,1.7915,1.7915,1.7915,1.7915,1.7915,1.7915,1.7915,1.7915,1.5794,1.473,1.473,1.2557,1.2668,1.473,1.473,1.3561,1.1552,1.1552,1.2784,1.473,1.473,1.35,1.1543,1.1497,1.093,1.0201,1.095,1.0113,0.8677,0.9447,0.8646,0.7052,0.5852,0.431,0.2724,0.1605,0.0668,0.0,0.0,0.0,0.0,0.0,0.0,0.0,0.0,0.0,0.0,0.0,0.0,0.0,0.0,0.0,0.0,0.0,0.0,0.0,0.0,0.0,0.0,0.0,0.0,0.0,0.0,0.0,0.0,0.0,0.0,0.0,0.0,0.0,0.0,0.0,0.0,0.0,0.0,0.0,0.0,0.0,0.0,0.0,0.0,0.0,0.0,0.0,0.0,0.0,0.0,0.0,0.0,0.0,0.1901,0.4115,0.5647,0.8178,1.0395,1.1405,1.2978,1.4473,1.572,1.5956,1.6058,1.6191,1.6347,1.649,1.6588,1.6795,1.7005,1.7304,1.7385,1.7521,1.7758,1.7826,1.7915,1.7915,1.7915,1.7915,1.7915,1.7915,1.7307,1.6133,1.4337,1.2784,1.1608,0.9765,0.9212,0.9876,1.1103,1.0599,0.8878,0.8878,0.9935,1.1612,1.1612,1.0551,0.8868,0.8818,0.8098,0.7179,0.8218,0.7142,0.5258,0.6422,0.6039,0.4859,0.3103,0.2508,0.223,0.0514,0.0,0.0,0.0,0.0,0.0,0.0,0.0,0.0,0.0,0.0,0.0,0.0,0.0,0.0,0.0,0.0,0.0,0.0,0.0,0.0,0.0,0.0,0.0,0.0,0.0,0.0,0.0,0.0,0.0,0.0,0.0,0.0,0.0,0.0,0.0,0.0,0.0,0.0,0.0,0.0,0.0,0.0,0.0,0.0,0.0,0.0,0.0,0.0,0.0,0.0,0.0,0.0,0.0,0.0,0.1775,0.3438,0.3474,0.5557,0.8129,1.0438,1.1533,1.282,1.5152,1.5833,1.6083,1.6083,1.6212,1.6361,1.6483,1.6594,1.6811,1.7148,1.7324,1.7487,1.7575,1.7772,1.7915,1.7915,1.7915,1.7749,1.7522,1.7466,1.6022,1.2996,1.2723,1.1214,0.8485,0.8212,0.6704,0.4195,0.7153,0.837,0.8101,0.8373,0.8324,0.8101,0.8373,0.8314,0.8076,0.795,0.6318,0.4403,0.6834,0.446,0.0373,0.2922,0.2168,0.0,0.0,0.0,0.0,0.0,0.0,0.0,0.0,0.0,0.0,0.0,0.0,0.0,0.0,0.0,0.0,0.0,0.0,0.0,0.0,0.0,0.0,0.0,0.0,0.0,0.0,0.0,0.0,0.0,0.0,0.0,0.0,0.0,0.0,0.0,0.0,0.0,0.0,0.0,0.0,0.0,0.0,0.0,0.0,0.0,0.0,0.0,0.0,0.0,0.0,0.0,0.0,0.0,0.0,0.0,0.0,0.0,0.0,0.0,0.0437,0.0819,0.0827,0.289,0.4826,0.5389,0.8991,1.2027,1.2612,1.4583,1.6083,1.6083,1.6212,1.632,1.6354,1.6533,1.677,1.7012,1.7263,1.7487,1.7575,1.7772,1.7915,1.7915,1.7915,1.6797,1.4448,1.4392,1.2935,0.9876,0.7593,0.6095,0.5422,0.3023,0.157,0.1065,0.4083,0.4139,0.2073,0.4418,0.4083,0.2073,0.4474,0.4068,0.1884,0.1866,0.1524,0.1027,0.1603,0.1061,0.0106,0.0686,0.0525,0.0,0.0,0.0,0.0,0.0,0.0,0.0,0.0,0.0,0.0,0.0,0.0,0.0,0.0,0.0,0.0,0.0,0.0,0.0,0.0,0.0,0.0,0.0,0.0,0.0,0.0,0.0,0.0,0.0,0.0,0.0,0.0,0.0,0.0,0.0,0.0,0.0,0.0,0.0,0.0,0.0,0.0,0.0,0.0,0.0,0.0,0.0,0.0,0.0,0.0,0.0,0.0,0.0,0.0,0.0,0.0,0.0,0.0,0.0,0.0,0.0,0.0,0.107,0.2359,0.366,0.6159,0.8491,0.9753,1.1266,1.2658,1.401,1.4269,1.48,1.6149,1.6503,1.6648,1.6856,1.7134,1.7372,1.7473,1.7684,1.7167,1.5794,1.5733,1.4337,1.133,1.127,0.982,0.6818,0.5255,0.3751,0.2353,0.0729,0.0,0.0056,0.1626,0.1514,0.0112,0.1682,0.1458,0.0112,0.168,0.1395,0.0,0.0,0.0,0.0,0.0,0.0,0.0,0.0,0.0,0.0,0.0,0.0,0.0,0.0,0.0,0.0,0.0,0.0,0.0,0.0,0.0,0.0,0.0,0.0,0.0,0.0,0.0,0.0,0.0,0.0,0.0,0.0,0.0,0.0,0.0,0.0,0.0,0.0,0.0,0.0,0.0,0.0,0.0,0.0,0.0,0.0,0.0,0.0,0.0,0.0,0.0,0.0,0.0,0.0,0.0,0.0,0.0,0.0,0.0,0.0,0.0,0.0,0.0,0.0,0.0,0.0,0.0,0.0,0.0,0.0,0.0,0.0,0.0681,0.2922,0.3696,0.4727,0.6967,0.7687,0.8789,1.1094,1.1394,1.2234,1.4573,1.4979,1.5321,1.5912,1.6255,1.6703,1.7318,1.7053,1.5803,1.3464,1.288,1.127,0.8212,0.8157,0.6706,0.3751,0.3751,0.2465,0.0,0.0,0.0,0.0,0.0,0.0,0.0,0.0,0.0,0.0,0.0,0.0,0.0,0.0,0.0,0.0,0.0,0.0,0.0,0.0,0.0,0.0,0.0,0.0,0.0,0.0,0.0,0.0,0.0,0.0,0.0,0.0,0.0,0.0,0.0,0.0,0.0,0.0,0.0,0.0,0.0,0.0,0.0,0.0,0.0,0.0,0.0,0.0,0.0,0.0,0.0,0.0,0.0,0.0,0.0,0.0,0.0,0.0,0.0,0.0,0.0,0.0,0.0,0.0,0.0,0.0,0.0,0.0,0.0,0.0,0.0,0.0,0.0,0.0,0.0,0.0,0.0,0.0,0.0,0.0,0.0,0.0,0.0,0.0,0.0097,0.0446,0.2416,0.4138,0.4464,0.6484,0.8142,0.8489,0.8543,0.8697,0.9059,0.9299,1.0377,1.2827,1.3337,1.456,1.7056,1.5067,1.3609,1.3246,1.0835,0.8157,0.5199,0.5087,0.3639,0.0617,0.0617,0.0393,0.0,0.0,0.0,0.0,0.0,0.0,0.0,0.0,0.0,0.0,0.0,0.0,0.0,0.0,0.0,0.0,0.0,0.0,0.0,0.0,0.0,0.0,0.0,0.0,0.0,0.0,0.0,0.0,0.0,0.0,0.0,0.0,0.0,0.0,0.0,0.0,0.0,0.0,0.0,0.0,0.0,0.0,0.0,0.0,0.0,0.0,0.0,0.0,0.0,0.0,0.0,0.0,0.0,0.0,0.0,0.0,0.0,0.0,0.0,0.0,0.0,0.0,0.0,0.0,0.0,0.0,0.0,0.0,0.0,0.0,0.0,0.0,0.0,0.0,0.0,0.0,0.0,0.0,0.0,0.0,0.0,0.0,0.0,0.0,0.0,0.0,0.0942,0.1734,0.1749,0.2761,0.4028,0.5532,0.5783,0.6336,0.7838,0.8171,0.8774,1.0013,1.0372,1.1006,1.235,1.1357,0.998,0.843,0.7117,0.5087,0.2073,0.1961,0.1346,0.0,0.0,0.0,0.0,0.0,0.0,0.0,0.0,0.0,0.0,0.0,0.0,0.0,0.0,0.0,0.0,0.0,0.0,0.0,0.0,0.0,0.0,0.0,0.0,0.0,0.0,0.0,0.0,0.0,0.0,0.0,0.0,0.0,0.0,0.0,0.0,0.0,0.0,0.0,0.0,0.0,0.0,0.0,0.0,0.0,0.0,0.0,0.0,0.0,0.0,0.0,0.0,0.0,0.0,0.0,0.0,0.0,0.0,0.0,0.0,0.0,0.0,0.0,0.0,0.0,0.0,0.0,0.0,0.0,0.0,0.0,0.0,0.0,0.0,0.0,0.0,0.0,0.0,0.0,0.0,0.0,0.0,0.0,0.0,0.0,0.0,0.0,0.0,0.0,0.0,0.0,0.0,0.0,0.0707,0.2678,0.2976,0.3726,0.5733,0.6121,0.6494,0.7178,0.7336,0.775,0.8566,0.7997,0.6652,0.4511,0.3722,0.2349,0.0056,0.0,0.0,0.0,0.0,0.0,0.0,0.0,0.0,0.0,0.0,0.0,0.0,0.0,0.0,0.0,0.0,0.0,0.0,0.0,0.0,0.0,0.0,0.0,0.0,0.0,0.0,0.0,0.0,0.0,0.0,0.0,0.0,0.0,0.0,0.0,0.0,0.0,0.0,0.0,0.0,0.0,0.0,0.0,0.0,0.0,0.0,0.0,0.0,0.0,0.0,0.0,0.0,0.0,0.0,0.0,0.0,0.0,0.0,0.0,0.0,0.0,0.0,0.0,0.0,0.0,0.0,0.0,0.0,0.0,0.0,0.0,0.0,0.0,0.0,0.0,0.0,0.0,0.0,0.0,0.0,0.0,0.0,0.0,0.0,0.0,0.0,0.0,0.0,0.0,0.0,0.0,0.0,0.0,0.0,0.0,0.0051,0.0204,0.0203,0.0252,0.0404,0.0407,0.149,0.4135,0.4435,0.558,0.8329,0.6,0.438,0.4198,0.1708,0.0167,0.0,0.0,0.0,0.0,0.0,0.0,0.0,0.0,0.0,0.0,0.0,0.0,0.0,0.0,0.0,0.0,0.0,0.0,0.0,0.0,0.0,0.0,0.0,0.0,0.0,0.0,0.0,0.0,0.0,0.0,0.0,0.0,0.0,0.0,0.0,0.0,0.0,0.0,0.0,0.0,0.0,0.0,0.0,0.0,0.0,0.0,0.0,0.0,0.0,0.0,0.0,0.0,0.0,0.0,0.0,0.0,0.0,0.0,0.0,0.0,0.0,0.0,0.0,0.0,0.0,0.0,0.0,0.0,0.0,0.0,0.0,0.0,0.0,0.0,0.0,0.0,0.0,0.0,0.0,0.0,0.0,0.0,0.0,0.0,0.0,0.0,0.0,0.0,0.0,0.0,0.0,0.0,0.0,0.0,0.0,0.0,0.0,0.0,0.0,0.0,0.0,0.0,0.0411,0.1399,0.1508,0.1939,0.2974,0.2081,0.1503,0.1516,0.0546,0.0,0.0,0.0,0.0,0.0,0.0,0.0,0.0,0.0,0.0,0.0,0.0,0.0,0.0,0.0,0.0,0.0,0.0,0.0,0.0,0.0,0.0,0.0,0.0,0.0,0.0,0.0,0.0,0.0,0.0,0.0,0.0,0.0,0.0,0.0,0.0,0.0,0.0,0.0,0.0,0.0,0.0,0.0,0.0,0.0,0.0,0.0,0.0,0.0,0.0,0.0,0.0,0.0,0.0,0.0,0.0,0.0,0.0,0.0,0.0,0.0,0.0,0.0,0.0,0.0,0.0,0.0,0.0,0.0,0.0,0.0,0.0,0.0,0.0,0.0,0.0,0.0,0.0,0.0,0.0,0.0,0.0,0.0,0.0,0.0,0.0,0.0,0.0,0.0,0.0,0.0,0.0,0.0,0.0,0.0,0.0,0.0,0.0,0.0,0.0,0.0,0.0,0.0,0.0,0.0,0.0,0.0,0.0,0.0,0.0,0.0,0.0,0.0,0.0,0.0,0.0,0.0,0.0,0.0,0.0,0.0,0.0,0.0,0.0,0.0,0.0,0.0,0.0,0.0,0.0,0.0,0.0,0.0,0.0,0.0,0.0,0.0,0.0,0.0,0.0,0.0,0.0,0.0,0.0,0.0,0.0,0.0,0.0,0.0,0.0,0.0,0.0,0.0,0.0,0.0,0.0,0.0,0.0,0.0,0.0,0.0,0.0,0.0,0.0,0.0,0.0,0.0,0.0,0.0,0.0,0.0,0.0,0.0,0.0,0.0,0.0,0.0,0.0,0.0,0.0,0.0,0.0,0.0,0.0,0.0,0.0,0.0,0.0,0.0,0.0,0.0,0.0,0.0,0.0,0.0,0.0,0.0,0.0,0.0,0.0,0.0,0.0,0.0,0.0,0.0,0.0,0.0,0.0,0.0,0.0,0.0,0.0,0.0,0.0,0.0,0.0,0.0,0.0,0.0,0.0,0.0,0.0,0.0,0.0,0.0,0.0,0.0,0.0,0.0,0.0,0.0,0.0,0.0,0.0,0.0,0.0,0.0,0.0,0.0,0.0,0.0,0.0,0.0,0.0,0.0,0.0,0.0,0.0,0.0,0.0,0.0,0.0,0.0,0.0,0.0,0.0,0.0,0.0,0.0,0.0,0.0,0.0,0.0,0.0,0.0,0.0,0.0,0.0,0.0,0.0,0.0,0.0,0.0,0.0,0.0,0.0,0.0,0.0,0.0,0.0,0.0,0.0,0.0,0.0,0.0,0.0,0.0,0.0,0.0,0.0,0.0,0.0,0.0,0.0,0.0,0.0,0.0,0.0,0.0,0.0,0.0,0.0,0.0,0.0,0.0,0.0,0.0,0.0,0.0,0.0,0.0,0.0,0.0,0.0,0.0,0.0,0.0,0.0,0.0,0.0,0.0,0.0,0.0,0.0,0.0,0.0,0.0,0.0,0.0,0.0,0.0,0.0,0.0,0.0,0.0,0.0,0.0,0.0,0.0,0.0,0.0,0.0,0.0,0.0,0.0,0.0,0.0,0.0,0.0,0.0,0.0,0.0,0.0,0.0,0.0,0.0,0.0,0.0,0.0,0.0,0.0,0.0,0.0,0.0,0.0,0.0,0.0,0.0,0.0,0.0,0.0,0.0,0.0,0.0,0.0,0.0,0.0,0.0,0.0,0.0,0.0,0.0,0.0,0.0,0.0,0.0,0.0,0.0,0.0,0.0,0.0,0.0,0.0,0.0,0.0,0.0,0.0,0.0,0.0,0.0,0.0,0.0,0.0,0.0,0.0,0.0,0.0,0.0,0.0,0.0,0.0,0.0,0.0,0.0,0.0,0.0,0.0,0.0,0.0,0.0,0.0,0.0,0.0,0.0,0.0,0.0,0.0,0.0,0.0,0.0,0.0,0.0,0.0,0.0,0.0,0.0,0.0,0.0,0.0,0.0,0.0,0.0,0.0,0.0,0.0,0.0,0.0,0.0,0.0,0.0,0.0,0.0,0.0,0.0,0.0,0.0,0.0,0.0,0.0,0.0,0.0,0.0,0.0,0.0,0.0,0.0,0.0,0.0,0.0,0.0,0.0,0.0,0.0,0.0,0.0,0.0,0.0,0.0,0.0,0.0,0.0,0.0,0.0,0.0,0.0,0.0,0.0,0.0,0.0,0.0,0.0,0.0,0.0,0.0,0.0,0.0,0.0,0.0,0.0,0.0,0.0,0.0,0.0,0.0,0.0,0.0,0.0,0.0,0.0,0.0,0.0,0.0,0.0,0.0,0.0,0.0,0.0,0.0,0.0,0.0,0.0,0.0,0.0,0.0,0.0,0.0,0.0,0.0,0.0,0.0,0.0,0.0,0.0,0.0,0.0,0.0,0.0,0.0,0.0,0.0,0.0,0.0,0.0,0.0,0.0,0.0,0.0,0.0,0.0,0.0,0.0,0.0,0.0,0.0,0.0,0.0,0.0,0.0,0.0,0.0,0.0,0.0,0.0,0.0,0.0,0.0,0.0,0.0,0.0,0.0,0.0,0.0,0.0,0.0,0.0,0.0,0.0,0.0,0.0,0.0,0.0,0.0,0.0,0.0,0.0,0.0,0.0,0.0,0.0,0.0,0.0,0.0,0.0,0.0,0.0,0.0,0.0,0.0,0.0,0.0,0.0,0.0,0.0,0.0,0.0,0.0,0.0,0.0,0.0,0.0,0.0,0.0,0.0,0.0,0.0,0.0,0.0,0.0,0.0,0.0,0.0,0.0,0.0,0.0,0.0,0.0,0.0,0.0,0.0,0.0,0.0,0.0,0.0,0.0,0.0,0.0,0.0,0.0,0.0,0.0,0.0,0.0,0.0,0.0,0.0,0.0,0.0,0.0,0.0,0.0,0.0,0.0,0.0,0.0,0.0,0.0,0.0,0.0,0.0,0.0,0.0,0.0,0.0,0.0,0.0,0.0,0.0,0.0,0.0,0.0,0.0,0.0,0.0,0.0,0.0,0.0,0.0,0.0,0.0,0.0,0.0,0.0,0.0,0.0,0.0,0.0,0.0,0.0,0.0,0.0,0.0,0.0,0.0,0.0,0.0,0.0,0.0,0.0,0.0,0.0,0.0,0.0,0.0,0.0,0.0,0.0,0.0,0.0,0.0,0.0,0.0,0.0,0.0,0.0,0.0,0.0,0.0,0.0,0.0,0.0,0.0,0.0,0.0,0.0,0.0,0.0,0.0,0.0,0.0,0.0,0.0,0.0,0.0,0.0,0.0,0.0,0.0,0.0,0.0,0.0,0.0,0.0,0.0,0.0,0.0,0.0,0.0,0.0,0.0,0.0,0.0,0.0,0.0,0.0,0.0,0.0,0.0,0.0,0.0,0.0,0.0,0.0,0.0,0.0,0.0,0.0,0.0,0.0,0.0,0.0,0.0,0.0,0.0,0.0,0.0,0.0,0.0,0.0,0.0,0.0,0.0,0.0,0.0,0.0,0.0,0.0,0.0,0.0,0.0,0.0,0.0,0.0,0.0,0.0,0.0,0.0,0.0,0.0,0.0,0.0,0.0,0.0,0.0,0.0,0.0,0.0,0.0,0.0,0.0,0.0,0.0,0.0,0.0,0.0,0.0,0.0,0.0,0.0,0.0,0.0,0.0,0.0,0.0,0.0,0.0,0.0,0.0,0.0,0.0,0.0,0.0,0.0,0.0,0.0,0.0,0.0,0.0,0.0,0.0,0.0,0.0,0.0,0.0,0.0,0.0,0.0,0.0,0.0,0.0,0.0,0.0,0.0,0.0,0.0,0.0,0.0,0.0,0.0,0.0,0.0,0.0,0.0,0.0,0.0,0.0,0.0,0.0,0.0,0.0,0.0,0.0,0.0,0.0,0.0,0.0,0.0,0.0,0.0,0.0,0.0,0.0,0.0,0.0,0.0,0.0,0.0,0.0,0.0,0.0,0.0,0.0,0.0,0.0,0.0,0.0,0.0,0.0,0.0,0.0,0.0,0.0,0.0,0.0,0.0,0.0,0.0,0.0,0.0,0.0,0.0,0.0,0.0,0.0,0.0,0.0,0.0,0.0,0.0,0.0,0.0,0.0,0.0,0.0,0.0,0.0,0.0,0.0,0.0,0.0,0.0,0.0,0.0,0.0,0.0,0.0,0.0,0.0,0.0,0.0,0.0,0.0,0.0,0.0,0.0,0.0,0.0,0.0,0.0,0.0,0.0,0.0,0.0,0.0,0.0,0.0,0.0,0.0,0.0,0.0,0.0,0.0,0.0,0.0,0.0,0.0,0.0,0.0,0.0,0.0,0.0,0.0,0.0,0.0,0.0,0.0,0.0,0.0,0.0,0.0,0.0,0.0,0.0,0.0,0.0,0.0,0.0,0.0,0.0,0.0,0.0,0.0,0.0,0.0,0.0,0.0,0.0,0.0,0.0,0.0,0.0,0.0,0.0,0.0,0.0,0.0,0.0,0.0,0.0,0.0,0.0,0.0,0.0,0.0,0.0,0.0,0.0,0.0,0.0,0.0,0.0,0.0,0.0,0.0,0.0,0.0,0.0,0.0,0.0,0.0,0.0,0.0,0.0,0.0,0.0,0.0,0.0,0.0,0.0,0.0,0.0,0.0,0.0,0.0,0.0,0.0,0.0,0.0,0.0,0.0,0.0,0.0,0.0,0.0,0.0,0.0,0.0,0.0,0.0,0.0,0.0,0.0,0.0,0.0,0.0,0.0,0.0,0.0,0.0,0.0,0.0,0.0,0.0,0.0,0.0,0.0,0.0,0.0,0.0,0.0,0.0,0.0,0.0,0.0,0.0,0.0,0.0,0.0,0.0,0.0,0.0,0.0,0.0,0.0,0.0,0.0,0.0,0.0,0.0,0.0,0.0,0.0,0.0,0.0,0.0,0.0,0.0,0.0,0.0,0.0,0.0,0.0,0.0,0.0,0.0,0.0,0.0,0.0,0.0,0.0,0.0,0.0,0.0,0.0,0.0,0.0,0.0,0.0,0.0,0.0,0.0,0.0,0.0,0.0,0.0,0.0,0.0,0.0,0.0,0.0,0.0,0.0,0.0,0.0,0.0,0.0,0.0,0.0,0.0,0.0,0.0,0.0,0.0,0.0,0.0,0.0,0.0,0.0,0.0,0.0,0.0,0.0,0.0,0.0,0.0,0.0,0.0,0.0,0.0,0.0,0.0,0.0,0.0,0.0,0.0,0.0,0.0,0.0,0.0,0.0,0.0,0.0,0.0,0.0,0.0,0.0,0.0,0.0,0.0,0.0,0.0,0.0,0.0,0.0,0.0,0.0,0.0,0.0,0.0,0.0,0.0,0.0,0.0,0.0,0.0,0.0,0.0,0.0,0.0,0.0,0.0,0.0,0.0,0.0,0.0,0.0,0.0,0.0,0.0,0.0,0.0,0.0,0.0,0.0,0.0,0.0,0.0,0.0,0.0,0.0,0.0,0.0,0.0,0.0,0.0,0.0,0.0,0.0,0.0,0.0,0.0,0.0,0.0,0.0,0.0,0.0,0.0,0.0,0.0,0.0,0.0,0.0,0.0,0.0,0.0,0.0,0.0,0.0,0.0,0.0,0.0,0.0,0.0,0.0,0.0,0.0,0.0,0.0,0.0,0.0,0.0,0.0,0.0,0.0,0.0,0.0,0.0,0.0,0.0,0.0,0.0,0.0,0.0,0.0,0.0,0.0,0.0,0.0,0.0,0.0,0.0,0.0,0.0,0.0,0.0,0.0,0.0,0.0,0.0,0.0,0.0,0.0,0.0,0.0,0.0,0.0,0.0,0.0,0.0,0.0,0.0,0.0,0.0,0.0,0.0,0.0,0.0,0.0,0.0,0.0,0.0,0.0,0.0,0.0,0.0,0.0,0.0,0.0,0.0,0.0,0.0,0.0,0.0,0.0,0.0,0.0,0.0,0.0,0.0,0.0,0.0,0.0,0.0,0.0,0.0,0.0,0.0,0.0,0.0,0.0,0.0,0.0,0.0,0.0,0.0,0.0,0.0,0.0,0.0,0.0,0.0,0.0,0.0,0.0,0.0,0.0,0.0,0.0,0.0,0.0,0.0,0.0,0.0,0.0,0.0,0.0,0.0,0.0,0.0,0.0,0.0,0.0,0.0,0.0,0.0,0.0,0.0,0.0,0.0,0.0,0.0,0.0,0.0,0.0,0.0,0.0,0.0,0.0,0.0,0.0,0.0,0.0,0.0,0.0,0.0,0.0,0.0,0.0,0.0,0.0,0.0,0.0,0.0,0.0,0.0,0.0,0.0,0.0,0.0,0.0,0.0,0.0,0.0,0.0,0.0,0.0,0.0,0.0,0.0,0.0,0.0,0.0,0.0,0.0,0.0,0.0,0.0,0.0,0.0,0.0,0.0,0.0,0.0,0.0,0.0,0.0,0.0,0.0,0.0,0.0,0.0,0.0,0.0,0.0,0.0,0.0,0.0,0.0,0.0,0.0,0.0,0.0,0.0,0.0,0.0,0.0,0.0,0.0,0.0,0.0,0.0,0.0,0.0,0.0,0.0,0.0,0.0,0.0,0.0,0.0,0.0,0.0,0.0,0.0,0.0,0.0,0.0,0.0,0.0,0.0,0.0,0.0,0.0,0.0,0.0,0.0,0.0,0.0,0.0,0.0,0.0,0.0,0.0,0.0,0.0,0.0,0.0,0.0,0.0,0.0,0.0,0.0,0.0,0.0,0.0,0.0,0.0,0.0,0.0,0.0,0.0,0.0,0.0,0.0,0.0,0.0,0.0,0.0,0.0,0.0,0.0,0.0,0.0,0.0,0.0,0.0,0.0,0.0,0.0,0.0,0.0,0.0,0.0,0.0,0.0,0.0,0.0,0.0,0.0,0.0,0.0,0.0,0.0,0.0,0.0,0.0,0.0,0.0,0.0,0.0,0.0,0.0,0.0,0.0,0.0,0.0,0.0,0.0,0.0,0.0,0.0,0.0,0.0,0.0,0.0,0.0,0.0,0.0,0.0,0.0,0.0,0.0,0.0,0.0,0.0,0.0,0.0,0.0,0.0,0.0,0.0,0.0,0.0,0.0,0.0,0.0,0.0,0.0,0.0,0.0,0.0,0.0,0.0,0.0,0.0,0.0,0.0,0.0,0.0,0.0,0.0,0.0,0.0,0.0,0.0,0.0,0.0,0.0,0.0,0.0,0.0,0.0,0.0,0.0,0.0,0.0,0.0,0.0,0.0,0.0,0.0,0.0,0.0,0.0,0.0,0.0,0.0,0.0,0.0,0.0,0.0,0.0,0.0,0.0,0.0,0.0,0.0,0.0,0.0]},{"header":{"parameterUnit":"m.s-1","parameterCategory":1,"la1":30.6,"la2":29.2853,"lo1":-89.7004,"lo2":-87.6739,"dx":0.0162,"dy":0.0183,"nx":112,"ny":82,"refTime":"2022-12-14T06:00:00:Z","depth":0,"parameterNumber":3,"parameterNumberName":"V-component_of_WINDS"},"data":[0.0,0.0,0.0,0.0,0.0,0.0,0.0,0.0,0.0,0.0,0.0,0.0,0.0,0.0,0.0,0.0,0.0,0.0,0.0,0.0,0.0,0.0,0.0,0.0,0.0,0.0,0.0,0.0,0.0,0.0,0.0,0.0,0.0,0.0,0.0,0.0,0.0,0.0,0.0,0.0,0.0,0.0,0.0,0.0,0.0,0.0,0.0,0.0,0.0,0.0,0.0,0.0,0.0,0.0,0.0,0.0,0.0,0.0,0.0,0.0,0.0,0.0,0.0,0.0,0.0,0.0,0.0,0.0,0.0,0.0,0.0,0.0,0.0,0.0,0.0,0.0,0.0,0.0,0.0,0.0,0.0,0.0,0.0,0.0,0.0,0.0,0.0,0.0,0.0,0.0,5.2454,5.3141,5.3324,5.2737,5.1132,5.2333,5.2553,5.1096,0.0,0.0,0.0,0.0,0.0,0.0,0.0,0.0,0.0,0.0,0.0,0.0,0.0,0.0,0.0,0.0,0.0,0.0,0.0,0.0,0.0,0.0,0.0,0.0,0.0,0.0,0.0,0.0,0.0,0.0,0.0,0.0,0.0,0.0,0.0,0.0,0.0,0.0,0.0,0.0,0.0,0.0,0.0,0.0,0.0,0.0,0.0,0.0,0.0,0.0,0.0,0.0,0.0,0.0,0.0,0.0,0.0,0.0,0.0,0.0,0.0,0.0,0.0,0.0,0.0,0.0,0.0,0.0,0.0,0.0,0.0,0.0,0.0,0.0,0.0,0.0,0.0,0.0,0.0,0.0,0.0,0.0,0.0,0.0,0.0,0.0,0.0,0.0,0.0,0.0,0.0,0.0,0.0,0.0,0.0,0.0,0.0,0.0,0.0,0.0,0.0,0.0,0.0,0.0,5.3067,5.3177,5.3812,5.3555,5.195,5.2674,5.281,5.1877,0.0,0.0,0.0,0.0,0.0,0.0,0.0,0.0,0.0,0.0,0.0,0.0,0.0,0.0,0.0,0.0,0.0,0.0,0.0,0.0,0.0,0.0,0.0,0.0,0.0,0.0,0.0,0.0,0.0,0.0,0.0,0.0,0.0,0.0,0.0,0.0,0.0,0.0,0.0,0.0,0.0,0.0,0.0,0.0,0.0,0.0,0.0,0.0,0.0,0.0,0.0,0.0,0.0,0.0,0.0,0.0,0.0,0.0,0.0,0.0,0.0,0.0,0.0,0.0,0.0,0.0,0.0,0.0,0.0,0.0,0.0,0.0,0.0,0.0,0.0,0.0,0.0,0.0,0.0,0.0,0.0,0.0,0.0,0.0,0.0,0.0,0.0,0.0,0.0,0.0,0.0,0.0,0.0,0.0,0.0,0.0,0.0,0.0,0.0,0.0,0.0,0.0,0.0,5.3628,5.3838,5.3838,5.3801,5.3261,5.2097,5.2747,5.2847,5.206,5.205,0.0,0.0,0.0,0.0,0.0,0.0,0.0,0.0,0.0,0.0,0.0,0.0,0.0,0.0,0.0,0.0,0.0,0.0,0.0,0.0,0.0,0.0,0.0,0.0,0.0,0.0,0.0,0.0,0.0,0.0,0.0,0.0,0.0,0.0,0.0,0.0,0.0,0.0,0.0,0.0,0.0,0.0,0.0,0.0,0.0,0.0,0.0,0.0,0.0,0.0,0.0,0.0,0.0,0.0,0.0,0.0,0.0,0.0,0.0,0.0,0.0,0.0,0.0,0.0,0.0,0.0,0.0,0.0,0.0,0.0,0.0,0.0,0.0,0.0,0.0,0.0,0.0,0.0,0.0,0.0,0.0,0.0,0.0,0.0,0.0,0.0,0.0,0.0,0.0,0.0,0.0,0.0,0.0,0.0,0.0,0.0,0.0,0.0,0.0,0.0,0.0,0.0,5.4987,5.4876,5.4693,5.4142,5.3371,5.238,5.2858,5.3031,5.2611,5.2968,0.0,0.0,0.0,0.0,0.0,0.0,0.0,0.0,0.0,0.0,0.0,0.0,0.0,0.0,0.0,0.0,0.0,0.0,0.0,0.0,0.0,0.0,0.0,0.0,0.0,0.0,0.0,0.0,0.0,0.0,0.0,0.0,0.0,0.0,0.0,0.0,0.0,0.0,0.0,0.0,0.0,0.0,0.0,0.0,0.0,0.0,0.0,0.0,0.0,0.0,0.0,0.0,0.0,0.0,0.0,0.0,0.0,0.0,0.0,0.0,0.0,0.0,0.0,0.0,0.0,0.0,0.0,0.0,0.0,0.0,0.0,0.0,0.0,0.0,0.0,0.0,0.0,0.0,0.0,0.0,0.0,0.0,0.0,0.0,0.0,0.0,0.0,0.0,0.0,0.0,0.0,0.0,0.0,0.0,0.0,0.0,0.0,0.0,0.0,0.0,0.0,0.0,5.6627,5.6345,5.5585,5.5475,5.4803,5.3251,5.3177,5.3508,5.4179,5.3581,0.0,0.0,0.0,0.0,0.0,0.0,0.0,0.0,0.0,0.0,0.0,0.0,0.0,0.0,0.0,0.0,0.0,0.0,0.0,0.0,0.0,0.0,0.0,0.0,0.0,0.0,0.0,0.0,0.0,0.0,0.0,0.0,0.0,0.0,0.0,0.0,0.0,0.0,0.0,0.0,0.0,0.0,0.0,0.0,0.0,0.0,0.0,0.0,0.0,0.0,0.0,0.0,0.0,0.0,0.0,0.0,0.0,0.0,0.0,0.0,0.0,0.0,0.0,0.0,0.0,0.0,0.0,0.0,0.0,0.0,0.0,0.0,0.0,0.0,0.0,0.0,0.0,0.0,0.0,0.0,0.0,0.0,0.0,0.0,0.0,0.0,0.0,0.0,0.0,0.0,0.0,0.0,0.0,0.0,0.0,0.0,0.0,0.0,0.0,0.0,0.0,0.0,5.6345,5.5952,5.5622,5.4693,5.3849,5.3251,5.3214,5.3544,5.4363,0.0,0.0,0.0,0.0,0.0,0.0,0.0,0.0,0.0,0.0,0.0,0.0,0.0,0.0,0.0,0.0,0.0,0.0,0.0,0.0,0.0,0.0,0.0,0.0,0.0,0.0,0.0,0.0,0.0,0.0,0.0,0.0,0.0,0.0,0.0,0.0,0.0,0.0,0.0,0.0,0.0,0.0,0.0,0.0,0.0,0.0,0.0,0.0,0.0,0.0,0.0,0.0,0.0,0.0,0.0,0.0,0.0,0.0,0.0,0.0,0.0,0.0,0.0,0.0,0.0,0.0,0.0,0.0,0.0,0.0,0.0,0.0,0.0,0.0,0.0,0.0,0.0,0.0,0.0,0.0,0.0,0.0,0.0,0.0,0.0,0.0,0.0,0.0,0.0,0.0,0.0,0.0,0.0,0.0,0.0,0.0,0.0,0.0,0.0,0.0,0.0,0.0,5.7079,5.6712,5.6172,5.5658,5.462,5.3765,5.3251,5.3214,5.3654,5.4693,0.0,0.0,0.0,0.0,0.0,0.0,0.0,0.0,0.0,0.0,0.0,0.0,0.0,0.0,0.0,0.0,0.0,0.0,0.0,0.0,0.0,0.0,0.0,0.0,0.0,0.0,0.0,0.0,0.0,0.0,0.0,0.0,0.0,0.0,0.0,0.0,0.0,0.0,0.0,0.0,0.0,0.0,0.0,0.0,0.0,0.0,0.0,0.0,0.0,0.0,0.0,0.0,0.0,0.0,0.0,0.0,0.0,0.0,0.0,0.0,0.0,0.0,0.0,0.0,0.0,0.0,0.0,0.0,0.0,0.0,0.0,0.0,0.0,0.0,0.0,0.0,0.0,0.0,0.0,0.0,0.0,0.0,0.0,0.0,0.0,0.0,0.0,0.0,0.0,0.0,0.0,0.0,0.0,0.0,0.0,0.0,0.0,0.0,0.0,0.0,0.0,0.0,5.7886,5.7997,5.7373,5.5768,5.5622,5.495,5.3361,5.3214,5.3922,0.0,0.0,0.0,0.0,0.0,0.0,0.0,0.0,0.0,0.0,0.0,0.0,0.0,0.0,0.0,0.0,0.0,0.0,0.0,0.0,0.0,0.0,0.0,0.0,0.0,0.0,0.0,0.0,0.0,0.0,0.0,0.0,0.0,0.0,0.0,0.0,0.0,0.0,0.0,0.0,0.0,0.0,0.0,0.0,0.0,0.0,0.0,0.0,0.0,0.0,0.0,0.0,0.0,0.0,0.0,0.0,0.0,0.0,0.0,0.0,0.0,0.0,0.0,0.0,0.0,0.0,0.0,0.0,0.0,0.0,0.0,0.0,0.0,0.0,0.0,0.0,0.0,0.0,0.0,0.0,0.0,0.0,0.0,0.0,0.0,0.0,0.0,0.0,0.0,0.0,0.0,0.0,0.0,0.0,0.0,0.0,0.0,0.0,0.0,0.0,0.0,0.0,0.0,5.7886,5.7483,5.6969,5.6492,5.5952,5.5401,5.4913,5.4363,5.4987,5.7152,0.0,0.0,0.0,0.0,0.0,0.0,0.0,0.0,0.0,0.0,0.0,0.0,0.0,0.0,0.0,0.0,0.0,0.0,0.0,0.0,0.0,0.0,0.0,0.0,0.0,0.0,0.0,0.0,0.0,0.0,0.0,0.0,0.0,0.0,0.0,0.0,0.0,0.0,0.0,0.0,0.0,0.0,0.0,0.0,0.0,0.0,0.0,0.0,0.0,0.0,0.0,0.0,0.0,0.0,0.0,0.0,0.0,0.0,0.0,0.0,0.0,0.0,0.0,0.0,0.0,0.0,0.0,0.0,0.0,0.0,0.0,0.0,0.0,0.0,0.0,0.0,0.0,0.0,0.0,0.0,0.0,0.0,0.0,0.0,0.0,0.0,0.0,0.0,0.0,0.0,0.0,0.0,0.0,0.0,0.0,0.0,0.0,0.0,0.0,0.0,0.0,0.0,5.8474,5.8058,5.7618,5.7299,5.6565,5.5941,5.5622,5.5144,5.5757,5.785,0.0,0.0,0.0,0.0,0.0,0.0,0.0,0.0,0.0,0.0,0.0,0.0,0.0,0.0,0.0,0.0,0.0,0.0,0.0,0.0,0.0,0.0,0.0,0.0,0.0,0.0,0.0,0.0,0.0,0.0,0.0,0.0,0.0,0.0,0.0,0.0,0.0,0.0,0.0,0.0,0.0,0.0,0.0,0.0,0.0,0.0,0.0,0.0,0.0,0.0,0.0,0.0,0.0,0.0,0.0,0.0,0.0,0.0,0.0,0.0,0.0,0.0,0.0,0.0,0.0,0.0,0.0,0.0,0.0,0.0,0.0,0.0,0.0,0.0,0.0,0.0,0.0,0.0,0.0,0.0,0.0,0.0,0.0,0.0,0.0,0.0,0.0,0.0,0.0,0.0,0.0,0.0,0.0,0.0,0.0,0.0,0.0,0.0,0.0,0.0,0.0,0.0,5.9416,5.9306,5.9013,5.8217,5.7519,5.6859,5.6099,5.5915,5.6503,5.8107,0.0,0.0,0.0,0.0,0.0,0.0,0.0,0.0,0.0,0.0,0.0,0.0,0.0,0.0,0.0,0.0,0.0,0.0,0.0,0.0,0.0,0.0,0.0,0.0,0.0,0.0,0.0,0.0,0.0,0.0,0.0,0.0,0.0,0.0,0.0,0.0,0.0,0.0,0.0,0.0,0.0,0.0,0.0,0.0,0.0,0.0,0.0,0.0,0.0,0.0,0.0,0.0,0.0,0.0,0.0,0.0,0.0,0.0,0.0,0.0,5.3455,5.1646,0.0,0.0,0.0,0.0,0.0,0.0,0.0,0.0,0.0,0.0,0.0,0.0,0.0,0.0,0.0,0.0,0.0,0.0,0.0,0.0,0.0,0.0,0.0,0.0,0.0,0.0,0.0,0.0,0.0,0.0,0.0,0.0,0.0,0.0,0.0,0.0,0.0,0.0,0.0,0.0,6.026,6.015,5.982,5.9013,5.9343,5.9575,5.9391,5.8217,5.818,5.9795,5.9269,0.0,0.0,0.0,0.0,0.0,0.0,0.0,0.0,0.0,0.0,0.0,0.0,0.0,0.0,0.0,0.0,0.0,0.0,0.0,0.0,0.0,0.0,0.0,0.0,0.0,0.0,0.0,0.0,0.0,0.0,0.0,0.0,0.0,0.0,0.0,0.0,0.0,0.0,0.0,0.0,0.0,0.0,0.0,0.0,0.0,0.0,0.0,0.0,0.0,0.0,0.0,0.0,0.0,0.0,0.0,0.0,0.0,0.0,0.0,5.5207,5.4069,0.0,0.0,0.0,0.0,0.0,0.0,0.0,0.0,0.0,0.0,0.0,0.0,0.0,0.0,0.0,0.0,0.0,0.0,0.0,0.0,0.0,0.0,0.0,0.0,0.0,0.0,0.0,0.0,0.0,0.0,0.0,0.0,0.0,0.0,0.0,0.0,0.0,0.0,0.0,0.0,6.1655,6.1227,6.0823,6.0419,6.0382,6.0419,6.0419,5.9648,5.9832,6.1435,6.0811,0.0,0.0,0.0,0.0,0.0,0.0,0.0,0.0,0.0,0.0,0.0,0.0,0.0,0.0,0.0,0.0,0.0,0.0,0.0,0.0,0.0,0.0,0.0,0.0,0.0,0.0,0.0,0.0,0.0,0.0,0.0,0.0,0.0,0.0,0.0,0.0,0.0,0.0,0.0,0.0,0.0,0.0,0.0,0.0,0.0,0.0,0.0,0.0,0.0,0.0,0.0,0.0,0.0,5.7556,5.7618,5.8364,5.7053,5.6785,5.7435,5.7435,5.7104,5.6528,5.5879,0.0,0.0,0.0,0.0,0.0,0.0,0.0,0.0,0.0,0.0,0.0,0.0,0.0,0.0,0.0,0.0,0.0,0.0,0.0,0.0,0.0,0.0,6.0089,5.8914,5.9134,5.9857,6.0627,0.0,0.0,0.0,0.0,0.0,0.0,0.0,0.0,0.0,0.0,0.0,6.2939,6.2365,6.1961,6.1814,6.1484,6.1263,6.1263,6.0994,6.1435,6.2939,6.2254,6.2511,0.0,0.0,0.0,0.0,0.0,0.0,0.0,0.0,0.0,0.0,0.0,0.0,0.0,0.0,0.0,0.0,0.0,0.0,0.0,0.0,0.0,0.0,0.0,0.0,0.0,0.0,0.0,0.0,0.0,0.0,0.0,0.0,5.3287,5.3995,0.0,0.0,0.0,0.0,0.0,0.0,0.0,0.0,0.0,0.0,0.0,0.0,0.0,5.7042,5.7813,5.785,5.8253,5.9049,5.8939,5.9306,6.0089,5.9869,5.9832,5.9942,5.9942,0.0,5.5768,5.5658,0.0,0.0,0.0,0.0,0.0,0.0,0.0,0.0,0.0,0.0,0.0,0.0,0.0,0.0,0.0,0.0,0.0,0.0,0.0,0.0,0.0,0.0,6.0529,6.1006,6.119,6.1484,6.2316,6.0848,5.9526,6.0114,6.0334,6.0848,0.0,0.0,0.0,0.0,0.0,0.0,6.3086,6.3356,6.3466,6.2719,6.3857,6.4664,6.4664,6.3306,6.2915,6.387,6.3135,6.3099,6.4066,6.3992,0.0,0.0,0.0,0.0,0.0,0.0,0.0,0.0,0.0,0.0,0.0,0.0,0.0,0.0,0.0,0.0,0.0,0.0,0.0,0.0,0.0,0.0,0.0,0.0,0.0,0.0,0.0,0.0,0.0,5.3922,5.4326,5.5611,5.5354,5.5071,0.0,0.0,0.0,0.0,0.0,0.0,0.0,0.0,0.0,5.8132,5.8572,5.9208,6.0015,6.0015,6.0419,6.1215,6.1215,6.1398,6.1765,6.1765,6.1765,6.1765,6.1765,6.0958,5.9575,5.8657,5.8767,5.9465,0.0,0.0,0.0,0.0,5.9575,5.982,5.9465,5.9355,5.9355,5.9355,0.0,0.0,0.0,0.0,0.0,0.0,0.0,6.2818,6.1949,6.2462,6.3013,6.2401,6.2658,6.3099,6.3466,6.2695,6.1777,6.119,6.1851,6.2842,6.4004,6.4811,0.0,0.0,0.0,6.6109,6.5007,6.4824,6.464,6.4261,6.4848,6.5288,6.5288,6.4628,6.4751,6.6048,6.4934,6.4787,6.6085,6.5668,6.5228,0.0,0.0,0.0,0.0,0.0,0.0,0.0,0.0,0.0,0.0,0.0,0.0,0.0,0.0,0.0,0.0,0.0,0.0,0.0,0.0,0.0,0.0,0.0,0.0,0.0,0.0,0.0,0.0,5.55,5.5537,5.6932,5.6565,5.6282,0.0,0.0,0.0,0.0,0.0,0.0,5.8914,5.9673,6.0224,6.0444,6.1043,6.1741,6.2548,6.2548,6.2842,6.3453,6.3453,6.3453,6.3453,6.3453,6.3453,6.3453,6.3453,6.3453,6.3306,6.1692,6.1484,6.2193,6.1594,6.1851,6.2438,6.163,6.1337,6.13,6.108,6.0994,6.0994,6.0994,6.1141,6.1337,6.1337,0.0,0.0,0.0,0.0,6.453,6.3673,6.4371,6.4995,6.3747,6.3943,6.442,6.442,6.458,6.4273,6.2842,6.3539,6.4714,6.5742,6.5925,0.0,6.8311,6.7577,6.6659,6.6256,6.5852,6.5632,6.5632,6.5778,6.5925,6.5925,6.5742,6.6219,6.7627,6.6586,6.6549,6.7958,6.721,6.6623,6.6242,0.0,0.0,0.0,0.0,0.0,0.0,0.0,0.0,0.0,0.0,0.0,0.0,0.0,0.0,0.0,0.0,0.0,0.0,0.0,0.0,0.0,0.0,0.0,0.0,0.0,0.0,0.0,0.0,0.0,5.785,5.7886,0.0,0.0,0.0,0.0,6.0236,6.097,6.1422,6.1422,6.2181,6.2976,6.3846,6.3882,6.431,6.5105,6.5105,6.5141,6.5178,6.5178,6.5178,6.5178,6.5178,6.5178,6.5178,6.5178,6.5178,6.5031,6.338,6.3209,6.3956,6.3919,6.442,6.5031,6.42,6.3919,6.3809,6.2976,6.2683,6.2683,6.2683,6.3246,6.3919,6.3919,6.502,0.0,0.0,6.5705,6.6182,6.5362,6.5251,6.5288,6.5178,6.5215,6.5251,6.5251,6.5852,6.6145,6.5301,6.5178,6.5742,6.7297,0.0,6.7627,6.7737,6.77,6.71,6.5545,6.5999,6.6439,6.6439,6.71,6.759,6.759,6.688,6.6806,6.7664,6.7627,6.7958,6.8788,6.8054,6.7994,6.8701,6.6426,0.0,0.0,0.0,0.0,0.0,0.0,0.0,0.0,0.0,0.0,0.0,0.0,0.0,0.0,0.0,0.0,0.0,0.0,0.0,0.0,0.0,0.0,0.0,0.0,0.0,0.0,0.0,0.0,5.9465,6.0015,0.0,6.0713,6.1961,6.2768,6.2768,6.3539,6.398,6.398,6.4261,6.4554,6.4861,6.4861,6.5264,6.6072,6.6072,6.6329,6.6843,6.6843,6.6843,6.6843,6.6843,6.6843,6.6843,6.6843,6.6843,6.6806,6.6182,6.5521,6.4861,6.4861,6.5044,6.5251,6.4971,6.4861,6.4824,6.4517,6.4407,6.4407,6.4407,6.4628,6.4861,6.4861,6.5264,6.5668,6.5362,6.5888,6.6439,6.6145,6.6476,6.6843,6.6843,6.6843,6.6843,6.6843,6.7076,6.7187,6.688,6.6439,6.6402,6.7517,6.726,6.7283,6.8311,6.8017,6.748,6.6916,6.71,6.726,6.726,6.7517,6.77,6.77,6.7444,6.7627,6.8421,6.8458,6.8825,6.9633,6.9376,6.9376,6.9669,6.8311,6.8017,0.0,0.0,0.0,0.0,0.0,0.0,0.0,0.0,0.0,0.0,0.0,0.0,0.0,0.0,0.0,0.0,0.0,0.0,0.0,0.0,0.0,0.0,0.0,0.0,0.0,5.982,6.0407,6.152,6.2108,6.2548,6.2805,6.3833,6.4494,6.4494,6.5264,6.5705,6.5705,6.5962,6.6109,6.6109,6.6109,6.6366,6.688,6.688,6.732,6.8091,6.8091,6.8238,6.8508,6.8508,6.8508,6.8508,6.8508,6.8508,6.8508,6.8508,6.7871,6.688,6.6329,6.6109,6.6109,6.6109,6.6109,6.6109,6.6109,6.6109,6.6109,6.6109,6.6109,6.6109,6.6109,6.6109,6.6182,6.6426,6.6916,6.7357,6.765,6.8091,6.8508,6.8508,6.8508,6.8508,6.8508,6.8508,6.8508,6.8508,6.765,6.7076,6.7627,6.726,6.754,6.9435,6.8568,6.7994,6.8788,6.8214,6.77,6.77,6.77,6.77,6.77,6.8471,6.8788,6.8495,6.9779,7.0257,6.9706,7.0734,7.1174,7.0917,7.0403,7.011,7.0073,0.0,0.0,0.0,0.0,0.0,0.0,0.0,0.0,0.0,0.0,0.0,0.0,0.0,0.0,0.0,0.0,0.0,0.0,0.0,0.0,0.0,0.0,0.0,6.2976,6.2181,6.234,6.3956,6.4176,6.4494,6.5251,6.5362,6.5362,6.5362,6.6109,6.6549,6.6586,6.7297,6.7737,6.7774,6.7774,6.7774,6.7774,6.7774,6.8178,6.8935,6.8935,6.9339,7.011,7.011,7.011,7.011,7.011,7.011,7.011,7.011,7.011,6.9926,6.8398,6.7774,6.7774,6.7774,6.7774,6.7774,6.7774,6.7774,6.7774,6.7774,6.7774,6.7774,6.7774,6.7774,6.7958,6.8715,6.8935,6.9119,6.9889,7.011,7.011,7.011,7.011,7.011,7.011,7.011,7.011,7.011,6.8839,6.7774,6.7774,6.7774,6.8568,7.0903,6.9265,0.0,7.0977,6.9229,6.7811,6.7847,6.7884,6.7884,6.7847,7.0013,7.0358,6.7948,7.1502,7.2273,6.915,7.2053,7.3339,7.2567,7.2539,7.1753,7.0188,0.0,0.0,0.0,0.0,0.0,0.0,0.0,0.0,0.0,0.0,0.0,0.0,0.0,0.0,0.0,0.0,0.0,0.0,0.0,0.0,0.0,6.5338,6.4677,6.387,6.4053,6.4444,6.4934,6.5485,6.5925,6.6145,6.6696,6.7026,6.7026,6.726,6.7614,6.8201,6.8458,6.8825,6.9412,6.9463,6.9463,6.9463,6.9463,6.9559,6.9779,6.9779,6.9889,7.011,7.011,7.011,7.011,7.011,7.011,7.011,7.011,7.011,7.0036,6.9596,6.9463,6.9463,6.9463,6.9463,6.9463,6.9463,6.9463,6.9463,6.9463,6.9463,6.9463,6.9463,6.9463,6.9499,6.9706,6.9779,6.9816,7.0036,7.011,7.011,7.011,7.011,7.011,7.011,7.011,7.011,7.011,6.9743,6.9463,6.9463,6.9463,6.9669,7.033,6.9853,6.9669,7.033,6.9853,6.9889,7.1064,7.1688,7.1798,7.1211,7.2727,7.2663,7.0239,7.2059,7.2794,7.1906,7.3307,7.4019,7.3794,7.3366,7.2936,0.0,0.0,0.0,0.0,0.0,0.0,0.0,0.0,0.0,0.0,0.0,0.0,0.0,0.0,0.0,0.0,0.0,0.0,0.0,0.0,0.0,0.0,6.6329,6.5778,6.5645,6.5705,6.5925,6.6256,6.6733,6.7136,6.7467,6.7944,6.8348,6.8692,6.8728,6.8898,6.9376,6.9412,6.9633,7.0073,7.011,7.011,7.011,7.011,7.0257,7.0624,7.0954,7.1284,7.1615,7.1945,7.2129,7.2129,7.2129,7.2129,7.2129,7.2129,7.2129,7.1982,0.0,0.0,0.0,0.0,7.011,7.011,7.011,7.011,7.011,7.011,7.011,7.011,7.011,7.011,7.022,7.0917,7.1101,7.1248,7.1945,7.2129,7.2129,7.2129,7.2129,7.2129,7.2129,7.2129,7.2129,7.2129,7.2129,0.0,7.2129,7.0991,7.044,7.1468,7.0734,7.0477,7.1468,7.0734,7.044,7.1394,7.2153,7.2381,7.1888,7.41,0.0,0.0,0.0,7.5587,7.5587,7.5776,0.0,0.0,0.0,7.4782,7.377,7.3417,0.0,0.0,7.0927,7.079,0.0,0.0,0.0,0.0,0.0,0.0,0.0,0.0,0.0,0.0,0.0,0.0,0.0,0.0,0.0,0.0,6.7247,6.7026,6.7737,6.7283,6.7136,6.7774,6.7847,6.8128,6.8972,6.9032,6.9339,7.0036,7.011,7.0146,7.022,7.033,0.0,0.0,0.0,7.0624,7.0624,7.0624,7.0991,7.1711,7.2408,7.3156,7.3854,7.4588,7.4903,7.4903,7.4903,7.4903,7.4903,7.4903,7.4903,7.461,7.1762,7.0624,7.0624,7.0624,7.0624,7.0624,7.0624,0.0,0.0,7.0624,7.0624,7.0624,7.0624,7.0624,7.0954,7.2386,7.2789,7.312,7.4536,7.4903,7.4903,7.4903,7.4903,7.4903,7.4903,7.4903,7.4903,7.4903,7.4903,7.4933,7.5,7.259,7.1358,7.3487,7.2018,7.1437,7.3654,7.2002,7.0767,7.1107,7.1648,0.0,7.1924,7.5189,7.6177,7.3756,7.7095,7.9138,7.9138,7.843,7.8041,7.797,7.7915,7.6835,7.4665,7.4638,7.4638,7.4633,7.3311,7.2627,0.0,0.0,0.0,0.0,0.0,0.0,0.0,0.0,0.0,0.0,0.0,0.0,0.0,0.0,0.0,6.8568,6.8531,6.8495,6.8641,6.9082,6.9229,6.8715,6.8678,6.8972,6.9779,6.9853,6.9926,7.0073,7.011,7.0367,7.1013,7.1688,7.2349,7.2987,7.3634,7.3949,7.3949,7.3949,7.4059,7.4206,7.4353,0.0,7.4683,7.483,7.4903,7.4903,7.4903,7.4903,7.4903,7.4903,7.4903,7.483,7.4206,7.3949,7.3949,7.3949,7.3949,7.3949,7.3949,7.3949,7.3949,7.3949,7.3949,7.3949,7.3949,7.3949,0.0,7.4353,7.4426,7.45,7.483,7.4903,7.4903,7.4903,7.4903,7.4903,7.4903,7.4903,7.4903,7.4903,7.4903,7.5073,7.5608,7.475,7.4133,7.461,7.428,7.4343,7.5338,7.4574,7.4857,7.7178,7.7676,7.78,7.7643,7.9318,7.9366,7.697,7.7967,7.8653,7.8653,7.8508,7.8393,7.8385,7.794,7.7522,7.7027,7.6565,7.6586,7.6979,7.4935,7.394,0.0,0.0,0.0,0.0,0.0,0.0,0.0,0.0,0.0,0.0,0.0,6.8898,6.8898,0.0,6.8898,6.8898,6.9229,6.9486,6.9486,6.9853,6.9963,6.9559,6.9486,6.9816,7.0624,7.1064,7.1468,7.1872,7.2275,7.2679,7.3068,7.3472,7.3891,7.4294,7.4683,7.4903,7.4903,7.4903,7.4903,7.4903,7.5307,7.5506,7.5491,7.5931,7.6114,7.6114,7.6114,7.6114,7.6114,7.6114,7.6114,7.6114,7.6114,7.5601,7.4903,7.4903,7.4903,7.4903,7.4903,7.4903,7.4903,7.4903,7.4903,7.4903,7.4903,7.5123,7.5472,7.5879,7.599,7.6101,7.6494,7.6354,7.6114,7.6114,7.6354,7.6605,7.6605,7.7185,7.7716,7.7716,7.8027,7.8407,7.8754,7.8525,7.7878,7.6685,7.6847,7.7214,7.7553,7.7304,7.7641,7.9111,7.961,7.98,7.9729,8.1003,8.1472,8.0711,8.049,8.0408,8.0408,8.0015,7.9592,7.9169,7.8895,7.8556,7.8096,7.7793,7.7802,7.805,7.6944,7.6275,0.0,0.0,0.0,0.0,0.0,0.0,0.0,7.0953,7.0909,6.9787,6.9949,7.0146,6.9486,6.9889,7.0183,6.9669,7.0146,7.066,7.0991,7.1027,7.1138,7.1468,7.0954,7.0954,7.1894,7.2591,7.323,7.3891,7.4536,7.4903,7.4903,7.505,7.5124,7.5124,7.527,7.538,7.538,7.538,7.5454,7.5637,7.6276,7.668,7.6827,7.7472,7.7803,7.7803,7.7803,7.7803,7.7803,7.7803,7.7803,7.7803,7.7949,7.7215,7.6041,7.5527,7.538,7.538,7.538,7.538,7.541,7.5684,7.5779,7.5845,7.6115,7.6604,7.714,7.7813,7.8,7.8136,7.8796,7.8573,7.8138,7.8138,7.8587,7.897,7.897,7.9879,8.0717,8.0717,8.1245,8.1734,8.1862,8.2036,8.1358,7.9139,7.9366,7.9789,7.995,7.9861,7.9872,8.0114,8.0454,8.0717,8.0849,8.1913,8.287,8.3563,8.2947,8.2554,8.2554,8.1939,8.1246,8.0554,8.0554,8.0208,7.9485,7.9485,7.9485,7.9485,7.9485,7.8881,7.3983,7.4063,7.3747,7.3693,7.3835,7.398,0.0,7.2895,7.2013,7.1864,7.1481,7.1123,7.105,7.1123,7.138,7.2018,7.2165,7.2753,7.4169,7.4353,7.4903,7.6335,7.3949,7.2826,7.4353,7.4573,7.4683,7.4757,7.483,7.4903,7.4903,7.5579,7.5983,7.5983,7.6665,7.7032,7.7032,7.7032,7.7436,7.8185,7.8259,7.8699,7.9412,7.9486,7.9522,7.9522,7.9522,7.9522,7.9522,7.9522,7.9522,7.9596,8.0314,8.0498,8.0057,7.7839,7.7032,7.7032,7.7032,7.7032,7.7264,7.8564,7.8972,7.922,8.0556,8.0977,8.1063,8.1138,8.1176,8.1214,8.1289,8.1266,8.1218,8.1218,8.1266,8.1327,8.1327,8.1462,8.1585,8.1585,8.1623,8.1873,8.2499,8.3201,8.3111,8.1528,8.1358,8.1642,8.2226,8.1815,8.1854,8.2992,8.2721,8.2626,8.3157,8.3346,8.3486,8.3601,8.3524,8.3447,8.3447,8.337,8.3255,8.3178,8.3178,8.3139,8.3024,8.3024,8.3024,8.3024,8.3024,8.1385,7.5163,7.528,7.5109,7.5109,7.52,7.5101,7.4443,7.3842,7.3236,7.2519,7.2157,7.2004,7.2004,7.2386,7.2973,7.378,7.4294,7.4992,7.6151,7.6298,7.6738,7.7928,7.6864,7.613,7.6261,7.6298,7.6298,7.6298,7.6298,7.6518,7.7047,7.7378,7.7781,7.8237,7.8589,7.8736,7.8736,7.8736,7.8919,7.9302,7.9302,7.9486,7.9816,7.9816,8.0073,8.0534,8.0975,8.1211,8.1211,8.1211,8.1439,8.1823,8.2156,8.2524,8.2711,8.0853,8.0386,8.0748,8.0748,8.0991,8.1468,8.207,8.2285,8.241,8.3021,8.3453,8.3748,8.3748,8.3748,8.3748,8.3748,8.3464,8.3219,8.3219,8.3476,8.3748,8.3748,8.4421,8.5024,8.5024,8.5445,8.5858,8.6142,8.6486,8.6489,8.5866,8.491,8.4366,8.4638,8.4414,8.4442,8.5022,8.4818,8.4783,8.5038,8.5055,8.5055,8.5055,8.4632,8.4362,8.4362,8.387,8.3601,8.3601,8.3601,8.3601,8.3601,8.3601,8.3601,8.3601,8.3601,8.2832,7.5899,7.6015,7.6053,7.6284,7.6361,7.6209,7.558,7.5332,7.4994,7.4113,7.3972,7.4029,7.408,7.4591,7.5256,7.6123,7.657,7.7157,7.817,7.8133,7.8463,7.9764,7.9727,7.9507,7.9344,7.872,7.8316,7.8316,7.8537,7.8919,7.9543,7.9396,7.9617,8.044,8.0257,8.0257,8.0477,8.0477,8.0587,8.0791,8.0791,8.0918,8.1138,8.1138,8.1452,8.2039,8.259,8.2957,8.3145,8.3145,8.3544,8.4203,8.4427,8.4839,8.521,8.4398,8.3855,8.3505,8.3505,8.3863,8.4362,8.4755,8.4927,8.5,8.5386,8.5814,8.6183,8.6183,8.6183,8.6183,8.6183,8.5835,8.5507,8.5507,8.5845,8.6183,8.6183,8.6991,8.7748,8.7748,8.8256,8.8718,8.8718,8.8718,8.8718,8.8718,8.7632,8.6748,8.6478,8.6247,8.6094,8.6094,8.6094,8.6094,8.6094,8.6094,8.6094,8.6094,8.5547,8.5239,8.5239,8.4632,8.4286,8.4286,8.4286,8.4286,8.4286,8.4524,8.464,8.464,8.4909,8.5025,7.6207,7.6015,7.6207,7.7061,7.7253,7.7476,7.8185,7.7977,7.7608,7.7532,7.772,7.7883,7.8104,7.8119,7.848,7.9501,7.9029,7.9066,8.0681,8.0204,8.0608,8.2977,8.259,8.27,8.4242,8.226,8.0901,8.0901,8.1599,8.2039,8.2076,8.1342,8.1305,8.2076,8.1379,8.1342,8.2113,8.2113,8.2517,8.3271,8.3271,8.3691,8.4462,8.4462,8.4462,8.4499,8.4535,8.488,8.5484,8.5484,8.5919,8.6657,8.7436,8.7789,8.7864,8.863,8.6933,8.4264,8.4264,8.4276,8.4547,8.5985,8.641,8.6704,8.8129,8.8568,8.8585,8.8585,8.8585,8.8585,8.8585,8.8568,8.856,8.856,8.8577,8.8585,8.8585,8.8632,8.8679,8.8679,8.8679,8.8718,8.8718,8.8718,8.8718,8.8718,8.8641,8.8333,8.7478,8.6632,8.6094,8.6094,8.6094,8.6094,8.6094,8.6094,8.6094,8.6094,8.6094,8.6055,8.6055,8.6055,8.6017,8.6017,8.6017,8.6017,8.6017,8.6863,8.7286,8.7325,8.8141,8.8564,7.7599,7.7292,7.7061,7.7907,7.8099,7.8216,7.865,7.8644,7.8551,7.8679,7.9207,7.9691,7.974,7.9849,8.0228,8.111,8.1029,8.1214,8.2327,8.3088,8.3818,8.4614,8.4584,8.4678,8.5219,8.3629,8.2574,8.2574,8.2333,8.2443,8.2994,8.272,8.2957,8.3765,8.3544,8.3508,8.3801,8.3801,8.3948,8.4205,8.4205,8.4352,8.4609,8.5159,8.538,8.5416,8.5967,8.6578,8.725,8.725,8.7933,8.8999,8.9254,8.9653,9.0133,9.0391,8.9799,8.8822,8.833,8.8487,8.8978,8.9477,8.961,8.9715,9.0204,9.0364,9.0364,9.0364,9.0364,9.0364,9.0364,9.0364,9.0364,9.0364,9.0364,9.0364,9.0364,9.0364,9.0364,9.0364,9.0825,9.121,9.121,9.1672,9.1633,9.0517,8.941,8.8603,8.8295,8.8025,8.7825,8.7825,8.7825,8.7825,8.7825,8.7825,8.7825,8.7825,8.7286,8.6978,8.6978,8.6401,8.6094,8.6094,8.6671,8.6978,8.6978,8.7825,8.8256,8.8256,8.8564,8.8718,7.8023,7.7907,7.7946,7.8746,7.8977,7.91,7.9586,7.9898,8.0152,8.0281,8.1247,8.208,8.2129,8.2253,8.2535,8.3137,8.3195,8.3383,8.3907,8.5056,8.599,8.6241,8.6379,8.6429,8.6475,8.5624,8.4845,8.4295,8.4058,8.4132,8.4665,8.4409,8.4646,8.5453,8.5196,8.5159,8.5453,8.5453,8.5453,8.5453,8.5453,8.56,8.5911,8.6688,8.706,8.7139,8.8178,8.8896,8.9388,8.9634,9.0372,9.1378,9.1378,9.151,9.1672,9.1672,9.1479,9.1127,9.0646,9.0791,9.121,9.121,9.121,9.121,9.121,9.121,9.121,9.121,9.121,9.121,9.121,9.121,9.121,9.121,9.121,9.1287,9.1595,9.1672,9.1748,9.2056,9.2556,9.2941,9.2941,9.3364,9.3326,9.2249,9.1171,9.0064,8.8833,8.8718,8.8718,8.8718,8.8718,8.8718,8.8718,8.8718,8.8718,8.8718,8.844,8.8171,8.7872,8.7594,8.747,8.747,8.8017,8.844,8.8748,8.9633,9.0064,9.0064,9.0372,9.0488,7.7676,7.8023,7.8792,7.9669,7.9854,8.0085,8.0977,8.1747,8.2324,8.2401,8.3785,8.4998,8.5176,8.5169,8.5246,8.5407,8.5423,8.5385,8.5461,8.6228,8.7084,8.7903,8.8029,8.8071,8.819,8.8182,8.7548,8.6076,8.6606,8.6978,8.6978,8.6261,8.6224,8.6978,8.6261,8.6261,8.7051,8.7088,8.7159,8.7174,8.7174,8.7595,8.838,8.9108,8.9474,8.9572,9.1003,9.1641,9.1693,9.2416,9.3113,9.371,9.371,9.321,9.2556,9.2556,9.2056,9.1325,9.1325,9.1287,9.121,9.121,9.121,9.121,9.121,9.121,9.121,9.121,9.121,9.121,9.121,9.121,9.121,9.121,9.121,9.1441,9.2326,9.2479,9.2749,9.3518,9.3749,9.3787,9.3826,9.3787,9.3749,9.3749,9.3719,9.2565,8.9372,8.8949,8.8949,8.8949,8.8949,8.8949,8.8949,8.891,8.891,8.8949,8.9594,8.9633,8.891,8.9594,8.997,8.997,9.0009,9.0432,9.1287,9.2133,9.2556,9.2595,9.3326,9.371,7.9823,7.9823,7.9669,8.0554,8.0785,8.0977,8.1823,8.2131,8.267,8.3978,8.5055,8.6022,8.667,8.6432,8.607,8.6122,8.5594,8.5404,8.6062,8.7345,8.851,8.9295,8.9473,8.957,8.9583,8.9161,8.8699,8.8279,8.7486,8.6978,8.6978,8.6811,8.6811,8.6978,8.6794,8.7068,8.7876,8.8482,8.9067,8.9612,8.9612,8.9979,9.0737,9.0935,9.1019,9.1075,9.1428,9.1913,9.2439,9.2638,9.3113,9.371,9.371,9.3557,9.3403,9.3403,9.3249,9.3056,9.3056,9.2249,9.121,9.121,9.121,9.121,9.121,9.121,9.121,9.121,9.121,9.121,9.121,9.121,9.121,9.121,9.121,9.1441,9.2326,9.2479,9.2749,9.3518,9.422,9.4874,9.5518,9.5095,9.4681,9.4681,9.4104,9.3412,9.2527,9.245,9.245,9.245,9.245,9.245,9.245,9.1864,9.1787,9.2411,9.1441,9.1056,9.1518,9.1095,9.0855,9.0855,9.1518,9.1941,9.2172,9.2979,9.3403,9.3403,9.3595,9.371,8.0246,8.0439,8.0477,8.0977,8.1093,8.14,8.2601,8.317,8.3939,8.5632,8.694,8.7932,8.8402,8.7883,8.7399,8.7399,8.7007,8.6853,8.7351,8.8782,8.994,9.0432,9.0541,9.0457,9.0138,8.9763,8.959,8.9638,8.8575,8.8103,8.8453,8.849,8.8654,8.9005,8.9005,8.9228,8.9712,9.0143,9.0562,9.0988,9.0988,9.1367,9.2156,9.2481,9.2632,9.2736,9.3385,9.3705,9.385,9.4543,9.504,9.5403,9.5788,9.5711,9.5365,9.5365,9.5134,9.4826,9.4826,9.4249,9.3249,9.2133,9.1518,9.121,9.121,9.121,9.121,9.121,9.121,9.121,9.121,9.121,9.121,9.121,9.1479,9.2018,9.2826,9.3335,9.3835,9.4672,9.5249,9.5711,9.6211,9.5903,9.5557,9.5557,9.5134,9.4826,9.4826,9.4172,9.371,9.371,9.371,9.371,9.371,9.3287,9.321,9.3672,9.3172,9.2903,9.3018,9.2903,9.2864,9.2864,9.3364,9.3787,9.4172,9.4634,9.4826,9.4826,9.4826,9.4826,7.99,8.0592,8.1246,8.1131,8.1285,8.1823,8.3409,8.4439,8.5555,8.7363,8.8893,8.9932,9.0047,8.9402,8.8833,8.8718,8.8718,8.8718,8.8718,9.0056,9.1056,9.121,9.121,9.0962,9.0315,9.0339,9.0486,9.0676,9.0083,8.9969,9.0519,9.0557,9.0859,9.159,9.1703,9.1741,9.1741,9.1854,9.1982,9.2074,9.2074,9.2478,9.3288,9.3915,9.4275,9.4463,9.5741,9.5961,9.5462,9.6913,9.7519,9.7596,9.8442,9.8327,9.7673,9.7673,9.725,9.6634,9.6634,9.6557,9.6095,9.3749,9.2479,9.1864,9.1748,9.171,9.1672,9.1441,9.1441,9.1518,9.1402,9.1441,9.1518,9.1518,9.2095,9.2864,9.371,9.4566,9.5412,9.6134,9.6288,9.6288,9.6288,9.6288,9.6288,9.6288,9.6288,9.6288,9.6288,9.498,9.4057,9.4057,9.4057,9.4057,9.4057,9.3941,9.3903,9.4018,9.4643,9.472,9.4057,9.4758,9.5181,9.5181,9.5181,9.5518,9.6288,9.6288,9.6288,9.6288,9.6288,9.6288,8.0477,8.1477,8.1939,8.1285,8.2131,8.3439,8.4439,8.5324,8.6547,8.897,8.9701,9.0124,9.0825,9.0278,8.9479,8.8795,8.8718,8.8718,8.8718,8.9517,9.0393,9.1133,9.121,9.1136,9.1017,9.1661,9.2094,9.2124,9.2613,9.2455,9.1467,9.1401,9.1439,9.1603,9.2256,9.2582,9.2582,9.3323,9.3957,9.458,9.458,9.4959,9.572,9.5809,9.5915,9.5912,9.6174,9.6232,9.6165,9.7135,9.7519,9.7596,9.8442,9.8711,9.8557,9.8557,9.8481,9.8365,9.8365,9.7904,9.7096,9.6019,9.5557,9.5288,9.4557,9.4335,9.4066,9.2672,9.2749,9.3095,9.2441,9.2787,9.3249,9.3249,9.3364,9.3719,9.4604,9.5441,9.6134,9.6288,9.6288,9.6288,9.6288,9.6288,9.6288,9.6288,9.6288,9.6288,9.6288,9.6057,9.5865,9.5865,9.5865,9.5865,9.5865,9.5172,9.5057,9.5788,9.5288,9.5258,9.5826,9.598,9.6057,9.6057,9.6057,9.6134,9.6288,9.6288,9.6288,9.6288,9.6288,9.6288,8.0631,8.1708,8.2208,8.1823,8.2678,8.3947,8.5247,8.5824,8.6709,8.8825,8.9624,9.0047,9.0432,9.0163,8.9778,8.9402,8.9325,8.9325,8.9325,9.0056,9.074,9.1171,9.121,9.1364,9.1825,9.2249,9.2864,9.3758,9.4181,9.4091,9.342,9.3818,9.4047,9.4047,9.4406,9.4624,9.4624,9.5044,9.5407,9.5752,9.5752,9.5971,9.6288,9.6288,9.6519,9.6903,9.6903,9.7173,9.7673,9.8519,9.8865,9.8942,9.9788,10.0096,10.0096,10.0096,10.0096,10.0096,10.0096,9.9827,9.9404,9.901,9.7702,9.6211,9.5788,9.5672,9.5403,9.4143,9.4066,9.4181,9.3326,9.3403,9.371,9.371,9.4066,9.4604,9.548,9.6019,9.6288,9.6288,9.6288,9.6288,9.6288,9.6288,9.6288,9.6288,9.6288,9.6288,9.6288,9.6288,9.6288,9.6288,9.6288,9.6288,9.6288,9.5903,9.5865,9.6288,9.5903,9.5865,9.6288,9.6288,9.6288,9.6288,9.6288,9.6288,9.6288,9.6288,9.6288,9.6288,9.6288,9.6288,8.1131,8.2247,8.2824,8.2631,8.3362,8.4478,8.5786,8.6247,8.6824,8.8372,8.921,8.9701,8.9855,8.9893,8.9893,8.9893,9.0047,9.0124,8.9932,9.0663,9.121,9.121,9.121,9.1556,9.2402,9.2672,9.3364,9.4874,9.5181,9.5297,9.5297,9.5942,9.6288,9.6288,9.6288,9.6288,9.6288,9.6288,9.6288,9.6288,9.6288,9.6288,9.6326,9.648,9.6903,9.7519,9.7711,9.8173,9.8865,9.976,10.0106,10.0183,10.1019,10.1279,10.1279,10.1279,10.1279,10.1279,10.1279,10.1279,10.1279,10.1279,9.951,9.7326,9.7173,9.7096,9.6903,9.5835,9.5528,9.5335,9.448,9.4249,9.4249,9.4249,9.4788,9.548,9.6134,9.6288,9.6288,9.6288,9.6288,9.6288,9.6288,9.6288,9.6288,9.6288,9.6288,9.6288,9.6288,9.6288,9.6288,9.6288,9.6288,9.6288,9.6288,9.6288,9.6288,9.6288,9.6288,9.6288,9.6288,9.6288,9.6288,9.6288,9.6288,9.6288,9.6288,9.6288,9.6288,9.6288,9.6288,9.6288,8.2708,8.4016,8.4478,8.3678,8.467,8.5901,8.6055,8.6709,8.7555,8.8487,8.8756,8.9017,8.9778,8.9893,8.9893,8.9893,9.0547,9.0778,9.0009,9.0663,9.121,9.121,9.121,9.1556,9.2402,9.3172,9.3989,9.4912,9.5711,9.6172,9.6172,9.6249,9.6288,9.6288,9.6288,9.6288,9.6288,9.6288,9.6288,9.6288,9.6288,9.6288,9.6326,9.7057,9.7442,9.7557,9.8327,9.8711,9.8865,9.976,10.0106,10.0183,10.1019,10.1279,10.1279,10.1279,10.1279,10.1279,10.1279,10.1279,10.1279,10.1279,10.1087,10.0712,9.9981,9.976,9.9413,9.775,9.7288,9.7096,9.6288,9.6057,9.6057,9.6057,9.6134,9.6211,9.6288,9.6288,9.6288,9.6288,9.6288,9.6288,9.6288,9.6288,9.6288,9.6288,9.6288,9.6288,9.6288,9.6288,9.6288,9.6288,9.6288,9.6288,9.6288,9.6288,9.6288,9.6288,9.6288,9.6288,9.6288,9.6288,9.6288,9.6288,9.6288,9.6288,9.6288,9.6288,9.6288,9.6288,9.6288,9.6288,8.2554,8.3824,8.4816,8.4478,8.5247,8.6094,8.6094,8.6363,8.6709,8.7055,8.7555,8.8017,8.8325,8.9201,8.9893,8.9893,9.0624,9.1248,9.1441,9.1748,9.1979,9.1979,9.1979,9.2326,9.3133,9.3518,9.4287,9.5672,9.6095,9.6288,9.6288,9.6288,9.6288,9.6288,9.6288,9.6288,9.6288,9.6288,9.6557,9.7019,9.6519,9.6826,9.7788,9.7596,9.8057,9.9067,9.9452,9.9865,10.0289,10.0712,10.0789,10.0904,10.1212,10.1279,10.1279,10.1279,10.1279,10.1279,10.1279,10.1279,10.1279,10.1279,10.1279,10.1202,10.0904,10.0789,10.0596,9.9404,9.9058,9.875,9.7365,9.6673,9.6288,9.6288,9.6288,9.6288,9.6288,9.6288,9.6288,9.6288,9.6288,9.6288,9.6288,9.6288,9.6288,9.6288,9.6288,9.6288,9.6288,9.6288,9.6288,9.6288,9.6288,9.6288,9.6288,9.6288,9.6288,9.6288,9.6288,9.6288,9.6288,9.6288,9.6288,9.6288,9.6288,9.6288,9.6288,9.6288,9.6288,9.6288,9.6288,9.6364,8.3131,8.417,8.497,8.5201,8.567,8.6094,8.6094,8.6094,8.6094,8.6094,8.6594,8.7094,8.7363,8.8594,8.9624,8.9855,9.0624,9.1518,9.2364,9.2479,9.2595,9.2826,9.3095,9.3441,9.4027,9.4326,9.498,9.6211,9.6288,9.6288,9.6288,9.6288,9.6288,9.6288,9.6288,9.6288,9.6288,9.6557,9.6942,9.7519,9.7173,9.7673,9.8788,9.8442,9.8942,10.0106,10.0414,10.0789,10.1279,10.1279,10.1279,10.1279,10.1279,10.1279,10.1279,10.1279,10.1279,10.1279,10.1279,10.1279,10.1279,10.1279,10.1279,10.1279,10.1279,10.1279,10.1212,10.0596,10.0298,9.9721,9.7942,9.7096,9.6596,9.6365,9.6288,9.6288,9.6288,9.6288,9.6288,9.6288,9.6288,9.6288,9.6288,9.6288,9.6288,9.6288,9.6288,9.6288,9.6288,9.6288,9.6288,9.6288,9.6288,9.6288,9.6288,9.6288,9.6288,9.6288,9.6288,9.6288,9.6288,9.6288,9.6288,9.6288,9.6288,9.6288,9.6288,9.6355,9.6378,9.6386,9.6481,9.6573,8.517,8.547,8.5085,8.5901,8.6094,8.6094,8.6094,8.6094,8.6094,8.6094,8.6094,8.6363,8.7248,8.8141,8.8979,8.9778,9.0624,9.1518,9.2364,9.2479,9.2787,9.3595,9.445,9.4989,9.4989,9.5788,9.6288,9.6288,9.6288,9.6288,9.6288,9.6288,9.6288,9.6288,9.6288,9.6288,9.6288,9.7096,9.748,9.7519,9.8365,9.8788,9.8827,9.9683,10.0106,10.0106,10.0904,10.1279,10.1279,10.1279,10.1279,10.1279,10.1279,10.1279,10.1279,10.1279,10.1279,10.1279,10.1279,10.1279,10.1279,10.1279,10.1279,10.1279,10.1279,10.1279,10.1279,10.1279,10.0712,9.9721,9.7942,9.748,9.7288,9.648,9.6288,9.6288,9.6288,9.6288,9.6288,9.6288,9.6288,9.6288,9.6288,9.6288,9.6288,9.6288,9.6288,9.6288,9.6288,9.6288,9.6288,9.6288,9.6288,9.6288,9.6288,9.6288,9.6288,9.6288,9.6288,9.6288,9.6288,9.6288,9.6288,9.6288,9.6288,9.6288,9.6288,9.6506,9.6588,9.6595,9.6882,9.7003,8.3362,8.3747,8.4055,8.4324,8.4401,8.4401,8.4401,8.4863,8.5286,8.5286,8.5701,8.617,8.6478,8.7209,8.8094,8.894,8.9787,9.1018,9.3018,9.3326,9.3403,9.3681,9.3941,9.4104,9.4104,9.5441,9.6288,9.6288,9.6288,9.6288,9.6288,9.6826,9.6865,9.6326,9.6288,9.6557,9.7096,9.7365,9.8096,9.9259,9.8942,9.9404,10.0519,10.0212,10.0404,10.0904,10.1212,10.1279,10.1279,10.1279,10.1279,10.1279,10.1279,10.1279,10.1279,10.1279,10.1279,10.1279,10.1279,10.1279,10.1279,10.1279,10.1279,10.1279,10.1279,10.1279,10.1279,10.1279,10.0712,9.9837,9.8673,9.7942,9.7288,9.648,9.6288,9.6288,9.6288,9.6288,9.6288,9.6288,9.6288,9.6288,9.6288,9.6288,9.6288,9.6288,9.6288,9.6288,9.6288,9.5788,9.5412,9.5412,9.5575,9.5863,9.6277,9.6288,9.6288,9.6288,9.6288,9.6288,9.6288,9.644,9.6522,9.6522,9.6695,9.6777,9.6777,9.6838,9.6887,9.6893,9.7138,9.7262,8.2755,8.2947,8.3178,8.3524,8.3601,8.3601,8.3601,8.4286,8.4893,8.4893,8.5547,8.6094,8.6094,8.7094,8.8064,8.8603,8.9633,9.1171,9.3403,9.371,9.4057,9.5018,9.4864,9.4788,9.5095,9.5826,9.6288,9.6288,9.6596,9.6749,9.6749,9.7557,9.7596,9.6788,9.7057,9.748,9.798,9.8327,9.9029,10.0106,9.9865,10.0289,10.1279,10.0789,10.0789,10.1279,10.1279,10.1279,0.0,10.1279,10.1279,10.1279,10.1279,10.1279,10.1279,10.1279,10.1279,10.1279,10.1279,10.1279,10.1279,10.1279,10.1279,10.1279,10.1279,10.1279,10.1279,10.1279,10.0904,10.0289,9.9096,9.8404,9.7711,9.6557,9.6288,9.6288,9.6288,9.6288,9.6288,9.6288,9.6288,9.6288,9.6288,9.6288,9.6288,9.6288,9.6288,9.6172,9.5865,9.5335,9.4898,9.4685,9.482,9.5075,9.5539,9.5887,9.5926,9.5609,9.5571,9.5571,9.5571,9.6004,9.6118,9.5762,9.6574,9.6852,9.6502,9.6943,9.7178,9.728,9.7439,9.7504,0.0,8.2847,8.2401,8.3216,8.3409,8.3409,8.3409,8.4132,0.0,8.4816,8.5517,8.6094,8.6094,8.7478,8.8641,8.8679,9.0056,9.171,9.3441,9.3749,9.4672,9.7134,9.6749,9.6634,9.7403,9.6865,9.648,9.648,9.7173,9.7596,9.7596,9.8404,9.8519,9.7711,9.8519,9.8904,9.8788,9.9644,10.0106,10.0183,10.0904,10.1279,10.1279,10.1279,10.1279,10.1279,10.1279,10.1279,10.1279,10.1279,10.1279,10.1279,10.1279,10.1279,10.1279,10.1279,10.1279,10.1279,10.1279,10.1279,10.1279,10.1202,10.1202,10.1202,10.1087,10.1202,10.1279,10.1279,10.1279,10.0894,9.925,9.8788,9.8365,9.6711,9.6288,9.6288,9.6288,9.6288,9.6288,9.6288,9.6249,9.6211,9.6211,9.6172,9.6134,9.6134,9.6134,9.5835,9.5034,9.488,9.4629,9.4096,9.404,9.41,9.4236,9.5062,9.5247,9.446,9.4382,9.4382,9.4382,9.5183,9.5274,9.4448,9.6036,9.6473,9.5651,9.6734,9.7349,9.7539,9.7539,9.7539,8.1794,0.0,8.1439,8.1631,8.167,8.167,0.0,8.2824,8.3909,8.3909,8.5093,8.6094,8.6094,8.6978,8.7902,8.8603,8.9556,9.1009,9.3364,9.4258,9.5181,9.6442,9.6442,9.6634,9.7403,9.7942,9.8211,9.8211,9.8404,9.8481,9.8481,9.9336,9.9721,9.949,10.0289,10.0096,9.8788,9.9644,10.0404,10.1019,10.1202,10.1279,10.1279,10.1279,10.1279,10.1279,10.1279,10.1279,10.1279,10.1279,10.1279,10.1279,10.1279,10.1279,10.1279,10.1279,10.1279,10.1279,10.1279,10.1279,10.1212,10.0596,10.0414,10.0298,9.9596,10.0289,10.1279,10.1279,10.1279,10.0894,9.925,9.8788,9.8365,9.6711,9.6288,9.6288,9.6288,9.6288,9.6288,9.6288,9.5749,9.5297,9.5297,9.4749,9.4326,9.4326,9.4326,9.4305,9.4311,9.3737,9.3335,9.3418,9.3543,9.3377,9.2789,9.3944,9.462,9.4421,9.4382,9.4382,9.4382,9.4786,9.4934,9.47,9.53,9.5526,9.5331,9.5577,9.574,9.5781,9.5781,9.5781,8.1447,8.1238,8.1093,8.1093,8.1093,8.1093,8.1093,8.2401,8.3601,8.3601,8.4939,8.6094,8.6094,8.6824,8.7671,8.8564,8.9363,9.0778,9.3326,9.4788,9.5788,9.6249,9.6634,9.7019,9.7442,9.8288,9.8788,9.8788,9.9173,9.9413,9.9413,10.0212,10.0481,10.0106,10.0904,10.0904,9.9942,10.0404,10.0904,10.1279,10.1279,10.1279,10.1279,10.1279,10.1279,10.1279,10.1279,10.1279,10.1279,10.1279,10.1279,10.1279,10.1279,10.1279,10.1279,10.1279,10.1096,10.0789,10.1212,10.1096,10.0596,9.9798,9.949,9.9413,9.8942,9.9442,10.0212,10.0596,10.0712,10.0404,9.9135,9.8788,9.8365,9.6711,9.6288,9.6288,9.6288,9.598,9.5711,9.5711,9.4989,9.4412,9.4412,9.4116,9.3862,9.3862,9.3978,9.3929,9.3718,9.3275,9.2923,9.277,9.2838,9.2747,9.2394,9.3131,9.3559,9.3559,9.3559,9.3559,9.3559,9.409,9.4582,9.4972,9.4723,9.4804,9.5195,9.5195,9.5195,9.5195,9.5195,9.5195,8.1529,8.1355,8.1174,8.1124,8.1093,8.1093,8.1093,8.2401,8.3601,8.3601,8.4939,8.6094,8.6094,8.6901,8.7825,8.8564,8.971,9.1248,9.3403,9.5211,9.6365,9.648,9.7211,9.775,9.7865,9.8673,9.9173,9.9173,9.9875,10.0298,10.0298,10.0904,10.1019,10.0298,10.0904,10.1279,10.1279,10.1279,10.1279,10.1279,10.1279,10.1279,10.1279,10.1279,10.1279,10.1279,10.1279,10.1279,10.1279,10.1279,10.1279,10.1279,10.1279,10.1279,10.1279,10.1279,10.0789,10.0183,10.0712,10.0481,9.976,9.8865,9.8596,9.8596,9.8442,9.8404,9.8596,9.9452,9.9721,9.949,9.8634,9.8327,9.7827,9.6288,9.5903,9.5903,9.5903,9.5342,9.4839,9.4806,9.4172,9.3624,9.3556,9.3661,9.3749,9.3749,9.3897,9.3778,9.3121,9.3047,9.2855,9.2309,9.2243,9.235,9.2578,9.2617,9.2617,9.2617,9.2617,9.2617,9.2617,9.332,9.4062,9.4804,9.4062,9.4062,9.4804,9.4804,9.4804,9.4804,9.4804,9.4804,8.1902,8.1743,8.1514,8.1188,8.1093,8.1093,8.1093,8.2401,8.3601,8.3601,8.4939,8.6094,8.6094,8.7401,8.8526,8.8679,9.118,9.3249,9.3633,9.5211,9.6557,9.725,9.8096,9.8904,9.9644,10.0404,10.0894,10.0894,10.101,10.1096,10.1096,10.1202,10.1202,10.1096,10.1202,10.1279,10.1279,10.1279,10.1279,10.1279,10.1279,10.1279,10.1279,10.1279,10.1279,10.1279,10.1279,10.1279,10.1279,10.1279,10.1279,10.1279,10.1279,10.1279,10.1279,10.1279,10.0789,9.999,9.9404,9.9096,9.8865,9.798,9.7711,9.7557,9.6903,9.6673,9.6865,9.7673,9.7904,9.7711,9.6903,9.6134,9.5335,9.4326,9.4095,9.4095,9.4095,9.4163,9.4187,9.3944,9.3544,9.3187,9.2985,9.2559,9.2249,9.2249,9.2242,9.2293,9.2368,9.2344,9.2389,9.2534,9.2537,9.2577,9.2617,9.2617,9.2617,9.2617,9.2617,9.2617,9.2617,9.2734,9.2851,9.3008,9.2851,9.2851,9.3008,9.3008,9.3008,9.3008,9.3008,9.3008,8.2044,8.1914,8.1809,8.1512,8.1355,8.1126,8.0523,8.1708,8.3024,8.3486,8.4593,8.5593,8.6017,8.6748,8.7594,8.8564,9.1133,9.321,9.3633,9.5211,9.6442,9.6826,9.798,9.8952,9.9375,10.0596,10.1279,10.1279,10.1279,10.1279,10.1279,10.1279,10.1279,10.1279,10.1279,10.1279,10.1279,10.1279,10.1279,10.1279,10.1279,10.1279,10.1279,10.1279,10.1279,10.1279,10.1279,10.1279,10.1279,10.1279,10.1279,10.1279,10.1279,10.1279,10.1202,10.0289,9.9981,9.9837,9.8057,9.7711,9.7942,9.7134,9.6921,9.693,9.6582,9.6543,9.6668,9.6538,9.6698,9.6805,9.6539,9.5833,9.4968,9.4244,9.3991,9.3933,9.4057,9.3729,9.3406,9.3439,9.2948,9.2457,9.2337,9.2182,9.2042,9.2042,9.2188,9.2326,9.24,9.2404,9.2451,9.2578,9.2617,9.2617,9.2617,9.2617,9.2617,9.2617,9.2617,9.2617,9.2617,9.2617,9.2617,9.2617,9.2617,9.2617,9.2617,9.2617,9.2617,9.2617,9.2617,9.2617,8.243,8.222,8.1964,8.1562,8.1586,8.1418,8.0414,8.1431,8.2747,8.3216,8.4132,8.5162,8.5931,8.644,8.7286,8.8979,9.1095,9.2787,9.3595,9.5211,9.6288,9.6288,9.7596,9.8596,9.8788,10.0096,10.1096,10.1279,10.1279,10.1279,10.1279,10.1279,10.1279,10.1279,10.1279,10.1279,10.1279,10.1279,10.1279,10.1279,10.1279,10.1279,10.1279,10.1279,10.1279,10.1279,10.1279,10.1279,10.1279,10.1279,10.1279,10.1279,10.1279,10.1279,10.1087,9.9404,9.9221,9.9452,9.7096,9.6746,9.7164,9.6517,9.6482,9.6663,9.6616,9.6631,9.654,9.5874,9.5623,9.5625,9.5757,9.5177,9.4392,9.3916,9.3692,9.3628,9.3765,9.3195,9.271,9.2855,9.2464,9.2048,9.1965,9.2139,9.2292,9.2292,9.2451,9.2617,9.2617,9.2617,9.2617,9.2617,9.2617,9.2617,9.2617,9.2617,9.2617,9.2617,9.2617,9.2617,9.2617,9.2617,9.2617,9.2617,9.2617,9.2617,9.2617,9.2617,9.2617,9.2617,9.2617,9.2617,8.3476,8.289,8.2027,8.1034,8.1664,8.2292,8.1455,8.2438,8.3293,8.2554,8.3747,8.5162,8.5931,8.7401,8.9056,9.0748,9.1864,9.2787,9.3595,9.5211,9.6288,9.6288,9.7057,9.7904,9.8711,9.9644,10.0481,10.1202,10.1279,10.1279,10.1279,10.1279,10.1279,10.1279,10.1279,10.1279,10.1279,10.1279,10.1279,10.1279,10.1279,10.1279,10.1279,10.1279,10.1279,10.1279,10.1279,10.1279,10.1279,10.1279,10.1279,10.1279,10.1279,10.1279,10.1087,9.9404,9.8827,9.8634,9.6903,9.6462,9.6604,9.6394,9.6595,9.6939,9.6689,9.6237,9.5796,9.5719,9.4601,9.3445,9.3425,9.2817,9.213,9.2104,9.2057,9.2052,9.207,9.2171,9.2192,9.2031,9.2297,9.2451,9.2223,9.2399,9.2577,9.2577,9.2578,9.2617,9.2617,9.2617,9.2617,9.2617,9.2617,9.2617,9.2617,9.2617,9.2617,9.2617,9.2617,9.2617,9.2617,9.2617,9.2617,9.2617,9.2617,9.2617,9.2617,9.2617,9.2617,9.2617,9.2617,9.2617,8.3594,8.2969,8.2343,8.2454,8.3189,8.3314,8.1243,8.1968,8.3236,8.3957,8.4111,8.467,8.6555,8.7017,8.7825,9.0009,9.0663,9.1556,9.3441,9.4711,9.5672,9.6249,9.7019,9.7827,9.8711,9.9606,10.0404,10.1202,10.1279,10.1279,10.1279,10.1279,10.1279,10.1279,10.1279,10.1279,10.1279,10.1279,10.1279,10.1279,10.1279,10.1279,10.1279,10.1279,10.1279,10.1279,10.1279,10.1279,10.1279,10.1279,10.1279,10.1279,10.1279,10.1019,10.0404,9.9211,9.8442,9.7827,9.6673,9.6367,9.6415,9.649,9.6721,9.6904,9.6416,9.6251,9.5962,9.4906,9.4126,9.3605,9.3443,9.2759,9.2125,9.2319,9.2205,9.2125,9.2282,9.2276,9.2225,9.2328,9.249,9.2577,9.2451,9.2537,9.2617,9.2617,9.2617,9.2617,9.2617,9.2617,9.2617,9.2617,9.2617,9.2617,9.2617,9.2617,9.2617,9.2617,9.2617,9.2617,9.2617,9.2617,9.2617,9.2617,9.2617,9.2617,9.2617,9.2617,9.2617,9.2617,9.2617,9.2617,8.4023,8.3359,8.2851,8.3437,8.4365,8.4478,8.1992,8.2334,8.3391,8.4201,8.46,8.5332,8.7094,8.7363,8.7855,8.9624,9.0124,9.1018,9.3018,9.4296,9.522,9.5826,9.6634,9.7557,9.8673,9.9336,10.0096,10.1202,10.1279,10.1279,10.1279,10.1279,10.1279,10.1279,10.1279,10.1279,10.1279,10.1279,10.1279,10.1279,10.1279,10.1279,10.1279,10.1279,10.1279,10.1279,10.1279,10.1279,10.1279,10.1279,10.1279,10.1289,10.1019,10.0615,10.0001,9.8845,9.8133,9.7618,9.6715,9.6498,9.6659,9.6715,9.6784,9.6752,9.6261,9.5911,9.5429,9.4258,9.3711,9.3436,9.325,9.2771,9.2355,9.2577,9.245,9.2395,9.2577,9.2449,9.2395,9.2577,9.2617,9.2617,9.2617,9.2617,9.2617,9.2617,9.2617,9.2617,9.2617,9.2617,9.2617,9.2617,9.2617,9.2617,9.2617,9.2617,9.2617,9.2617,9.2617,9.2617,9.2617,9.2617,9.2617,9.2617,9.2617,9.2617,9.2617,9.2617,9.2617,9.2617,9.2617,9.2617,8.4922,8.4258,8.3594,8.3633,8.4922,8.5742,8.4023,8.3937,8.3913,8.2871,8.5186,8.741,8.741,8.8748,8.9893,8.9893,9.0624,9.1479,9.2364,9.395,9.4989,9.4989,9.5788,9.698,9.8634,9.8788,9.9481,10.1212,10.1279,10.1279,10.1279,10.1279,10.1279,10.1279,10.1279,10.1279,10.1279,10.1289,10.1289,10.1289,10.1299,10.1299,10.1289,10.1289,10.1289,10.1299,10.1299,10.1299,10.1289,10.1289,10.1289,10.1183,10.0385,10.0205,10.0209,9.8202,9.7857,9.8136,9.6986,9.6969,9.7346,9.7091,9.6763,9.6443,9.6154,9.5052,9.3906,9.3906,9.3281,9.2617,9.2617,9.2617,9.2617,9.2617,9.2617,9.2617,9.2617,9.2617,9.2617,9.2617,9.2617,9.2617,9.2617,9.2617,9.2617,9.2617,9.2617,9.2617,9.2617,9.2617,9.2617,9.2617,9.2617,9.2617,9.2617,9.2617,9.2617,9.2617,9.2617,9.2617,9.2617,9.2617,9.2617,9.2617,9.2617,9.2617,9.2617,9.2617,9.2617,9.2617,9.2617,9.2617,8.582,8.4726,8.3906,8.5117,8.5351,8.5312,8.539,8.5864,8.6116,8.565,8.6642,8.7592,8.7592,8.7912,8.8517,8.9701,9.0124,9.0778,9.2287,9.3403,9.4296,9.4912,9.5788,9.698,9.8634,9.8788,9.9481,10.1212,10.1279,10.1279,10.1279,10.1279,10.1279,10.1279,10.1279,10.1279,10.1279,10.1513,10.1594,10.1594,10.1806,10.1793,10.1594,10.1594,10.1717,10.1886,10.1886,10.1818,10.1594,10.1594,10.1686,10.1808,10.0909,10.0304,9.9674,9.8495,9.7759,9.7348,9.7002,9.6998,9.7049,9.6541,9.631,9.6016,9.4908,9.4255,9.3789,9.3164,9.2812,9.2617,9.2617,9.2617,9.2617,9.2617,9.2617,9.2617,9.2617,9.2617,9.2617,9.2617,9.2617,9.2617,9.2617,9.2617,9.2617,9.2617,9.2617,9.2617,9.2617,9.2617,9.2617,9.2617,9.2617,9.2617,9.2617,9.2617,9.2617,9.2617,9.2617,9.2617,9.2617,9.2617,9.2617,9.2617,9.2617,9.2617,9.2617,9.2617,9.2617,9.2617,9.2617,9.2617,8.5273,8.4414,8.3945,8.5312,8.5547,8.582,8.7344,8.7127,8.666,8.6887,8.7431,8.7824,8.7738,8.8151,8.8868,8.9727,9.0201,9.0778,9.1825,9.271,9.3518,9.4373,9.5249,9.6442,9.8134,9.8596,9.9365,10.0712,10.1096,10.1279,10.1279,10.1279,10.1279,10.1279,10.1279,10.1385,10.1499,10.161,10.1818,10.188,10.1994,10.2085,10.1984,10.1897,10.1911,10.2115,10.2115,10.2017,10.1919,10.1919,10.1995,10.1998,10.0787,10.0102,9.9546,9.825,9.7551,9.728,9.7171,9.6999,9.6753,9.6395,9.5787,9.5052,9.4178,9.3672,9.3281,9.2734,9.2617,9.2617,9.2617,9.2617,9.2617,9.2617,9.2617,9.2617,9.2617,9.2617,9.2617,9.2617,9.2617,9.2617,9.2617,9.2617,9.2617,9.2617,9.2617,9.2617,9.2617,9.2617,9.2617,9.2617,9.2617,9.2617,9.2617,9.2617,9.2617,9.2617,9.2617,9.2617,9.2617,9.2617,9.2617,9.2617,9.2617,9.2617,9.2617,9.2617,9.2617,9.2617,9.2617,9.2617,8.4062,8.3711,8.3828,8.4765,8.5664,8.6953,8.9453,8.7951,8.6299,8.7196,8.7715,8.7945,8.778,8.91,9.0147,8.9943,9.0659,9.121,9.121,9.1941,9.2787,9.348,9.4412,9.5643,9.725,9.825,9.9173,9.999,10.0789,10.1279,10.1279,10.1279,10.1308,10.1308,10.1318,10.1517,10.1712,10.1786,10.1884,10.2109,10.2209,10.228,10.2492,10.2289,10.2079,10.2218,10.2118,10.22,10.2218,10.2118,10.2084,10.1907,10.031,9.9722,9.959,9.773,9.728,9.7577,9.7378,9.6929,9.6367,9.6289,9.5195,9.3906,9.3828,9.3242,9.2617,9.2617,9.2617,9.2617,9.2617,9.2617,9.2617,9.2617,9.2617,9.2617,9.2617,9.2617,9.2617,9.2617,9.2617,9.2617,9.2617,9.2617,9.2617,9.2617,9.2617,9.2617,9.2617,9.2617,9.2617,9.2617,9.2617,9.2617,9.2617,9.2617,9.2617,9.2617,9.2617,9.2617,9.2617,9.2617,9.2617,9.2617,9.2617,9.2617,9.2617,9.2617,9.2617,9.2617,9.2617,9.2617,8.5703,8.4648,8.3984,8.5547,8.6562,8.7695,8.957,8.8983,8.8316,8.9215,8.8273,8.7523,8.8116,8.8804,8.9468,9.0098,9.0789,9.121,9.121,9.1941,9.2556,9.2749,9.4066,9.5412,9.648,9.7904,9.9173,9.999,10.0789,10.1279,10.1279,10.1279,10.1391,10.1595,10.1603,10.168,10.1984,10.2179,10.2397,10.2395,10.2611,10.28,10.2807,10.2497,10.2494,10.2713,10.2483,10.2497,10.2713,10.248,10.2106,10.1584,10.0607,9.9754,9.9057,9.7955,9.7221,9.6758,9.6716,9.617,9.5351,9.4687,9.4219,9.3789,9.3086,9.2734,9.2617,9.2617,9.2617,9.2617,9.2617,9.2617,9.2617,9.2617,9.2617,9.2617,9.2617,9.2617,9.2617,9.2617,9.2617,9.2617,9.2617,9.2617,9.2617,9.2617,9.2617,9.2617,9.2617,9.2617,9.2617,9.2617,9.2617,9.2617,9.2617,9.2617,9.2617,9.2617,9.2617,9.2617,9.2617,9.2617,9.2617,9.2617,9.2617,9.2617,9.2617,9.2617,9.2617,9.2617,9.2617,9.2617,8.5078,8.4297,8.3906,8.5234,8.6562,8.7929,8.9609,8.9336,8.9062,9.0351,8.9134,8.825,8.9417,8.9476,8.9716,9.0884,9.1339,9.1511,9.1354,9.1709,9.2139,9.2467,9.3595,9.472,9.5595,9.7173,9.8519,9.9413,10.0289,10.0893,10.1513,10.1483,10.161,10.1911,10.1878,10.1989,10.2312,10.2404,10.2587,10.2707,10.281,10.289,10.289,10.2799,10.2801,10.289,10.2798,10.2802,10.289,10.2681,10.2295,10.1484,10.0586,9.9765,9.8867,9.7578,9.6875,9.6445,9.6015,9.5312,9.4492,9.4062,9.3633,9.3203,9.2734,9.2617,9.2617,9.2617,9.2617,9.2617,9.2617,9.2617,9.2617,9.2617,9.2617,9.2617,9.2617,9.2617,9.2617,9.2617,9.2617,9.2617,9.2617,9.2617,9.2617,9.2617,9.2617,9.2617,9.2617,9.2617,9.2617,9.2617,9.2617,9.2617,9.2617,9.2617,9.2617,9.2617,9.2617,9.2617,9.2617,9.2617,9.2617,9.2617,9.2617,9.2617,9.2617,9.2617,9.2617,9.2617,9.2617,9.2617,8.4219,8.3945,8.3984,8.4726,8.6094,8.7695,8.9375,8.9336,8.9375,9.0976,8.9922,8.9177,9.0773,9.0315,9.0189,9.1728,9.1905,9.1807,9.1596,9.1559,9.1766,9.2333,9.3258,9.4073,9.4767,9.6492,9.7842,9.8528,9.9566,10.0483,10.1415,10.1687,10.1878,10.2209,10.2214,10.2319,10.2587,10.2587,10.2705,10.289,10.289,10.289,10.289,10.289,10.289,10.289,10.289,10.289,10.289,10.2695,10.2187,10.1289,10.039,9.9453,9.8398,9.6992,9.6328,9.5937,9.5234,9.4414,9.3672,9.3672,9.3203,9.2617,9.2617,9.2617,9.2617,9.2617,9.2617,9.2617,9.2617,9.2617,9.2617,9.2617,9.2617,9.2617,9.2617,9.2617,9.2617,9.2617,9.2617,9.2617,9.2617,9.2617,9.2617,9.2617,9.2617,9.2617,9.2617,9.2617,9.2617,9.2617,9.2617,9.2617,9.2617,9.2617,9.2617,9.2617,9.2617,9.2617,9.2617,9.2617,9.2617,9.2617,9.2617,9.2617,9.2617,9.2617,9.2617,9.2617,9.2617,9.2617,8.5664,8.5312,8.4765,8.4883,8.5625,8.6797,8.8476,8.9375,9.0117,9.1094,8.9922,8.9218,9.0936,9.0397,9.0257,9.1884,9.1998,9.1905,9.1835,9.1869,9.1894,9.1977,9.3366,9.4274,9.4248,9.6426,9.7789,9.7662,9.9332,10.041,10.0616,10.1493,10.2214,10.2407,10.2413,10.2592,10.281,10.281,10.289,10.289,10.289,10.289,10.289,10.289,10.289,10.289,10.289,10.289,10.2812,10.2109,10.1289,10.039,9.9492,9.8203,9.6797,9.6562,9.5547,9.4219,9.4101,9.3515,9.2773,9.2773,9.2695,9.2617,9.2617,9.2617,9.2617,9.2617,9.2617,9.2617,9.2617,9.2617,9.2617,9.2617,9.2617,9.2617,9.2617,9.2617,9.2617,9.2617,9.2617,9.2617,9.2617,9.2617,9.2617,9.2617,9.2617,9.2617,9.2617,9.2617,9.2617,9.2617,9.2617,9.2617,9.2617,9.2617,9.2617,9.2617,9.2617,9.2617,9.2617,9.2617,9.2617,9.2617,9.2617,9.2617,9.2617,9.2617,9.2617,9.2617,9.2617,9.2617,8.5351,8.5195,8.4883,8.4883,8.5547,8.664,8.832,8.9375,9.0234,9.1133,9.0703,9.039,9.1172,9.0893,9.0843,9.1585,9.2029,9.2256,9.2099,9.2084,9.2048,9.1893,9.3393,9.4358,9.4274,9.6161,9.7545,9.7935,9.9196,10.0207,10.0781,10.1782,10.2413,10.2713,10.2715,10.2803,10.289,10.289,10.289,10.289,10.289,10.289,10.289,10.289,10.289,10.289,10.289,10.289,10.289,10.25,10.1484,10.0195,9.9336,9.7969,9.6367,9.539,9.457,9.3828,9.3359,9.2929,9.2617,9.2617,9.2617,9.2617,9.2617,9.2617,9.2617,9.2617,9.2617,9.2617,9.2617,9.2617,9.2617,9.2617,9.2617,9.2617,9.2617,9.2617,9.2617,9.2617,9.2617,9.2617,9.2617,9.2617,9.2617,9.2617,9.2617,9.2617,9.2617,9.2617,9.2617,9.2617,9.2617,9.2617,9.2617,9.2617,9.2617,9.2617,9.2617,9.2617,9.2617,9.2617,9.2617,9.2617,9.2617,9.2617,9.2617,9.2617,9.2617,9.2617,9.2617,9.2617,8.5234,8.5234,8.5195,8.4961,8.5547,8.6523,8.7773,8.8906,8.9922,9.0781,9.1133,9.1289,9.1289,9.1289,9.1445,9.1875,9.2304,9.2614,9.2617,9.2452,9.2268,9.2087,9.3393,9.4347,9.4493,9.5891,9.7113,9.7907,9.8857,9.9817,10.0797,10.1807,10.2512,10.289,10.289,10.289,10.289,10.289,10.289,10.289,10.289,10.289,10.289,10.289,10.289,10.289,10.289,10.289,10.289,10.2383,10.1484,10.0195,9.8867,9.7461,9.5976,9.4453,9.375,9.3476,9.2812,9.2617,9.2617,9.2617,9.2617,9.2617,9.2617,9.2617,9.2617,9.2617,9.2617,9.2617,9.2617,9.2617,9.2617,9.2617,9.2617,9.2617,9.2617,9.2617,9.2617,9.2617,9.2617,9.2617,9.2617,9.2617,9.2617,9.2617,9.2617,9.2617,9.2617,9.2617,9.2617,9.2617,9.2617,9.2617,9.2617,9.2617,9.2617,9.2617,9.2617,9.2617,9.2617,9.2617,9.2617,9.2617,9.2617,9.2617,9.2617,9.2617,9.2617,9.2617,9.2617,9.2617,8.6133,8.6133,8.5937,8.5117,8.5547,8.6211,8.6328,8.7578,8.9023,8.9883,9.0703,9.1289,9.1289,9.1289,9.1836,9.3515,9.3125,9.289,9.371,9.3085,9.2578,9.2577,9.3358,9.4168,9.4714,9.56,9.6401,9.7026,9.8098,9.9083,9.9912,10.1001,10.1992,10.289,10.289,10.289,10.289,10.289,10.289,10.289,10.289,10.289,10.289,10.289,10.289,10.289,10.289,10.289,10.2812,10.1094,10.039,10.0117,9.7578,9.6054,9.5156,9.4258,9.3398,9.2656,9.2617,9.2617,9.2617,9.2617,9.2617,9.2617,9.2617,9.2617,9.2617,9.2617,9.2617,9.2617,9.2617,9.2617,9.2617,9.2617,9.2617,9.2617,9.2617,9.2617,9.2617,9.2617,9.2617,9.2617,9.2617,9.2617,9.2617,9.2617,9.2617,9.2617,9.2617,9.2617,9.2617,9.2617,9.2617,9.2617,9.2617,9.2617,9.2617,9.2617,9.2617,9.2617,9.2617,9.2617,9.2617,9.2617,9.2617,9.2617,9.2617,9.2617,9.2617,9.2617,9.2617,9.2617,8.5508,8.5781,8.6133,8.582,8.5547,8.5664,8.6797,8.75,8.8164,8.8984,8.9844,9.0625,9.1211,9.1758,9.2148,9.2226,9.1953,9.207,9.2929,9.2304,9.1953,9.2539,9.3359,9.4218,9.4989,9.5339,9.6074,9.7337,9.7829,9.8426,9.9285,10.0194,10.1211,10.1992,10.2109,10.2304,10.289,10.289,10.289,10.289,10.289,10.289,10.289,10.289,10.289,10.289,10.289,10.289,10.2812,10.1601,10.0508,9.9258,9.7265,9.5625,9.4258,9.3398,9.2851,9.2617,9.2617,9.2617,9.2617,9.2617,9.2617,9.2617,9.2617,9.2617,9.2617,9.2617,9.2617,9.2617,9.2617,9.2617,9.2617,9.2617,9.2617,9.2617,9.2617,9.2617,9.2617,9.2617,9.2617,9.2617,9.2617,9.2617,9.2617,9.2617,9.2617,9.2617,9.2617,9.2617,9.2617,9.2617,9.2617,9.2617,9.2617,9.2617,9.2617,9.2617,9.2617,9.2617,9.2617,9.2617,9.2617,9.2617,9.2617,9.2617,9.2617,9.2617,9.2617,9.2617,9.2617,9.2617,8.5312,8.5742,8.6211,8.6211,8.5976,8.5937,8.6484,8.707,8.7656,8.8203,8.8984,8.9844,9.0703,9.1562,9.2187,9.2187,9.1914,9.1953,9.2539,9.2109,9.1953,9.2539,9.3359,9.4258,9.5117,9.5195,9.5781,9.7187,9.7304,9.7812,9.8945,9.9531,10.039,10.1601,10.1601,10.1992,10.289,10.289,10.289,10.289,10.289,10.289,10.289,10.289,10.289,10.289,10.289,10.289,10.2812,10.1289,10.0,9.8789,9.6523,9.4922,9.3789,9.2929,9.2617,9.2617,9.2617,9.2617,9.2617,9.2617,9.2617,9.2617,9.2617,9.2617,9.2617,9.2617,9.2617,9.2617,9.2617,9.2617,9.2617,9.2617,9.2617,9.2617,9.2617,9.2617,9.2617,9.2617,9.2617,9.2617,9.2617,9.2617,9.2617,9.2617,9.2617,9.2617,9.2617,9.2617,9.2617,9.2617,9.2617,9.2617,9.2617,9.2617,9.2617,9.2617,9.2617,9.2617,9.2617,9.2617,9.2617,9.2617,9.2617,9.2617,9.2617,9.2617,9.2617,9.2617,9.2617,9.2617,0.0,0.0,0.0,8.6211,8.6836,8.7031,8.5351,8.6289,8.7461,8.75,8.8125,8.8945,8.9804,9.0664,9.1797,9.3515,9.3086,9.2578,9.2578,9.2578,9.2539,9.2539,9.3281,9.4179,9.5039,9.5117,9.5469,9.6406,9.6445,9.7187,9.8828,9.8984,9.9765,10.1484,10.1601,10.1992,10.289,10.289,10.289,10.289,10.289,10.289,10.289,10.289,10.289,10.289,10.289,10.289,10.2617,10.0117,9.8984,9.8633,9.5234,9.3867,9.375,9.289,9.2617,9.2617,9.2617,9.2617,9.2617,9.2617,9.2617,9.2617,9.2617,9.2617,9.2617,9.2617,9.2617,9.2617,9.2617,9.2617,9.2617,9.2617,9.2617,9.2617,9.2617,9.2617,9.2617,9.2617,9.2617,9.2617,9.2617,9.2617,9.2617,9.2617,9.2617,9.2617,9.2617,9.2617,9.2617,9.2617,9.2617,9.2617,9.2617,9.2617,9.2617,9.2617,9.2617,9.2617,9.2617,9.2617,9.2617,9.2617,9.2617,9.2617,9.2617,9.2617,9.2617,9.2617,9.2617,9.2617,8.4179,0.0,0.0,0.0,0.0,0.0,8.6758,8.6679,8.6758,8.7383,8.7695,8.8086,8.8906,8.9258,8.9765,9.0898,9.1406,9.164,9.164,9.164,9.1445,9.0781,9.1484,9.2344,9.3242,9.2734,9.3242,9.539,9.5547,9.6054,9.7148,9.8359,9.9219,9.9687,10.0898,10.1719,10.1992,10.2617,10.289,10.289,10.289,10.289,10.289,10.289,10.289,10.289,10.289,10.2187,10.0898,9.957,9.8633,9.7773,9.5,9.3515,9.2929,9.2695,9.2617,9.2617,9.2617,9.2617,9.2617,9.2617,9.2617,9.2617,9.2617,9.2617,9.2617,9.2617,9.2617,9.2617,9.2617,9.2617,9.2617,9.2617,9.2617,9.2617,9.2617,9.2617,9.2617,9.2617,9.2617,9.2617,9.2617,9.2617,9.2617,9.2617,9.2617,9.2617,9.2617,9.2617,9.2617,9.2617,9.2617,9.2617,9.2617,9.2617,9.2617,9.2617,9.2617,9.2617,9.2617,9.2617,9.2617,9.2617,9.2617,9.2617,9.2617,9.2617,9.2617,9.2617,9.2617,9.2617,8.3594,8.4609,8.5742,8.6094,0.0,0.0,8.6484,8.6289,8.6133,8.5937,8.6172,8.6679,8.75,8.7969,8.8476,8.9336,9.0195,9.0742,9.0742,9.1054,9.125,9.1094,9.1211,9.164,9.2539,9.2148,9.2461,9.3984,9.4453,9.5195,9.6445,9.7734,9.8633,9.8984,10.0,10.0898,10.1601,10.2109,10.25,10.289,10.289,10.289,10.289,10.289,10.289,10.289,10.289,10.1914,10.0195,9.8984,9.7734,9.6445,9.4219,9.3047,9.2617,9.2617,9.2617,9.2617,9.2617,9.2617,9.2617,9.2617,9.2617,9.2617,9.2617,9.2617,9.2617,9.2617,9.2617,9.2617,9.2617,9.2617,9.2617,9.2617,9.2617,9.2617,9.2617,9.2617,9.2617,9.2617,9.2617,9.2617,9.2617,9.2617,9.2617,9.2617,9.2617,9.2617,9.2617,9.2617,9.2617,9.2617,9.2617,9.2617,9.2617,9.2617,9.2617,9.2617,9.2617,9.2617,9.2617,9.2617,9.2617,9.2617,9.2617,9.2617,9.2617,9.2617,9.2617,9.2617,9.2617,9.2617,8.3554,8.4179,0.0,8.5859,8.6719,0.0,8.5508,8.5781,8.5898,8.4336,8.4648,8.5429,8.6211,8.6914,8.7578,8.832,8.914,8.9726,8.9726,9.0547,9.1328,9.1836,9.1367,9.1328,9.2109,9.2187,9.2226,9.2304,9.3281,9.4648,9.6406,9.7265,9.8047,9.8828,9.8945,9.9726,10.1289,10.1406,10.1914,10.2812,10.2812,10.2812,10.289,10.289,10.2812,10.2812,10.2812,10.1719,9.9765,9.8203,9.664,9.5039,9.3281,9.2617,9.2617,9.2617,9.2617,9.2617,9.2617,9.2617,9.2617,9.2617,9.2617,9.2617,9.2617,9.2617,9.2617,9.2617,9.2617,9.2617,9.2617,9.2617,9.2617,9.2617,9.2617,9.2617,9.2617,9.2617,9.2617,9.2617,9.2617,9.2617,9.2617,9.2617,9.2617,9.2617,9.2617,9.2617,9.2617,9.2617,9.2617,9.2617,9.2617,9.2617,9.2617,9.2617,9.2617,9.2617,9.2617,9.2617,9.2617,9.2617,9.2617,9.2617,9.2617,9.2617,9.2617,9.2617,9.2617,9.2617,9.2617,9.2617,8.3398,8.3711,8.4062,8.4922,8.582,0.0,8.6914,8.7109,8.7148,8.6797,8.6875,8.7031,8.7226,8.6797,8.6523,8.664,8.7422,8.8008,8.8008,8.9297,8.957,8.7656,8.8476,8.9258,8.9453,8.9453,8.9765,9.0469,9.2617,9.4648,9.6406,9.7265,9.7773,9.7969,9.8633,9.914,9.9492,10.0195,10.1015,10.1914,10.1914,10.2187,10.289,10.289,10.25,10.1914,10.1914,10.0117,9.7226,9.6875,9.6133,9.5039,9.3281,9.2617,9.2617,9.2617,9.2617,9.2617,9.2617,9.2617,9.2617,9.2617,9.2617,9.2617,9.2617,9.2617,9.2617,9.2617,9.2617,9.2617,9.2617,9.2617,9.2617,9.2617,9.2617,9.2617,9.2617,9.2617,9.2617,9.2617,9.2617,9.2617,9.2617,9.2617,9.2617,9.2617,9.2617,9.2617,9.2617,9.2617,9.2617,9.2617,9.2617,9.2617,9.2617,9.2617,9.2617,9.2617,9.2617,9.2617,9.2617,9.2617,9.2617,9.2617,9.2617,9.2617,9.2617,9.2617,9.2617,9.2617,9.2617,9.2617,8.414,8.457,8.5,8.5429,8.6211,0.0,0.0,8.6836,8.6719,8.6289,8.6211,8.6328,8.6758,8.6484,8.6211,8.6211,8.6562,8.6562,8.5664,8.7734,8.9023,8.8203,8.7734,8.7773,8.8633,8.8359,8.8633,8.9883,9.2031,9.3828,9.5117,9.6406,9.7304,9.7695,9.8125,9.8554,9.8984,9.9414,10.0117,10.1015,10.1015,10.1211,10.1601,10.1601,10.1406,10.0898,10.0508,9.8867,9.6484,9.6015,9.5078,9.3828,9.2929,9.2617,9.2617,9.2617,9.2617,9.2617,9.2617,9.2617,9.2617,9.2617,9.2617,9.2617,9.2617,9.2617,9.2617,9.2617,9.2617,9.2617,9.2617,9.2617,9.2617,9.2617,9.2617,9.2617,9.2617,9.2617,9.2617,9.2617,9.2617,9.2617,9.2617,9.2617,9.2617,9.2617,9.2617,9.2617,9.2617,9.2617,9.2617,9.2617,9.2617,9.2617,9.2617,9.2617,9.2617,9.2617,9.2617,9.2617,9.2617,9.2617,9.2617,9.2617,9.2617,9.2617,9.2617,9.2617,9.2617,9.2617,9.2617,9.2617,8.5078,8.5547,8.5976,8.6172,8.6719,8.7109,0.0,0.0,0.0,8.5547,8.539,8.5625,8.6328,8.6328,8.6094,8.5742,8.5859,8.5351,8.3594,8.6015,8.8242,8.8945,8.7344,8.6719,8.8086,8.7929,8.8281,8.9648,9.1523,9.289,9.3594,9.5312,9.6601,9.7422,9.7617,9.8047,9.875,9.875,9.9179,10.0,10.0,10.0117,10.0312,10.0117,9.9961,9.9765,9.8906,9.7578,9.5937,9.5234,9.4023,9.2617,9.2617,9.2617,9.2617,9.2617,9.2617,9.2617,9.2617,9.2617,9.2617,9.2617,9.2617,9.2617,9.2617,9.2617,9.2617,9.2617,9.2617,9.2617,9.2617,9.2617,9.2617,9.2617,9.2617,9.2617,9.2617,9.2617,9.2617,9.2617,9.2617,9.2617,9.2617,9.2617,9.2617,9.2617,9.2617,9.2617,9.2617,9.2617,9.2617,9.2617,9.2617,9.2617,9.2617,9.2617,9.2617,9.2617,9.2617,9.2617,9.2617,9.2617,9.2617,9.2617,9.2617,9.2617,9.2617,9.2617,9.2617,9.2617,9.2617,9.2617,8.5625,8.5547,8.5234,8.6015,8.6289,8.6523,8.7187,0.0,8.7304,8.7226,0.0,8.7226,8.7344,0.0,0.0,8.414,8.4531,8.4453,8.2695,8.4101,8.5351,8.5469,8.5898,8.6289,8.6484,8.7734,8.8633,8.8828,9.1172,9.2656,9.2734,9.4414,9.5742,9.6601,9.7344,9.7734,9.7851,9.7851,9.8281,9.914,9.914,9.9531,10.0312,9.9492,9.8711,9.7969,9.7148,9.5781,9.4179,9.4101,9.3476,9.2617,9.2617,9.2617,9.2617,9.2617,9.2617,9.2617,9.2617,9.2617,9.2617,9.2617,9.2617,9.2617,9.2617,9.2617,9.2617,9.2617,9.2617,9.2617,9.2617,9.2617,9.2617,9.2617,9.2617,9.2617,9.2617,9.2617,9.2617,9.2617,9.2617,9.2617,9.2617,9.2617,9.2617,9.2617,9.2617,9.2617,9.2617,9.2617,9.2617,9.2617,9.2617,9.2617,9.2617,9.2617,9.2617,9.2617,9.2617,9.2617,9.2617,9.2617,9.2617,9.2617,9.2617,9.2617,9.2617,9.2617,9.2617,9.2617,9.2617,9.2617,8.6758,8.6328,8.5859,8.6758,8.6562,8.6445,8.7304,8.75,8.75,8.75,0.0,0.0,0.0,0.0,0.0,0.0,8.4258,8.3711,8.2461,8.3359,8.4336,8.4844,8.5234,8.5469,8.5469,8.789,8.8828,8.7344,9.0117,9.1601,9.1133,9.3203,9.4844,9.5703,9.7031,9.7695,9.7695,9.7695,9.789,9.8242,9.8242,9.8437,9.8789,9.8398,9.7773,9.6953,9.6094,9.5039,9.3867,9.3359,9.2929,9.2617,9.2617,9.2617,9.2617,9.2617,9.2617,9.2617,9.2617,9.2617,9.2617,9.2617,9.2617,9.2617,9.2617,9.2617,9.2617,9.2617,9.2617,9.2617,9.2617,9.2617,9.2617,9.2617,9.2617,9.2617,9.2617,9.2617,9.2617,9.2617,9.2617,9.2617,9.2617,9.2617,9.2617,9.2617,9.2617,9.2617,9.2617,9.2617,9.2617,9.2617,9.2617,9.2617,9.2617,9.2617,9.2617,9.2617,9.2617,9.2617,9.2617,9.2617,9.2617,9.2617,9.2617,9.2617,9.2617,9.2617,9.2617,9.2617,9.2617,9.2617,8.7422,8.7031,8.6719,8.7344,8.7031,8.6719,8.7344,8.75,8.75,8.75,8.75,0.0,0.0,0.0,0.0,0.0,0.0,8.3203,0.0,8.2695,0.0,0.0,0.0,8.4648,8.4883,8.7578,8.8554,8.6719,8.9297,9.0547,8.9687,9.1679,9.3437,9.4804,9.625,9.7226,9.7695,9.7695,9.7695,9.7695,9.7695,9.7578,9.7344,9.7109,9.6562,9.5742,9.4883,9.414,9.3476,9.2851,9.2617,9.2617,9.2617,9.2617,9.2617,9.2617,9.2617,9.2617,9.2617,9.2617,9.2617,9.2617,9.2617,9.2617,9.2617,9.2617,9.2617,9.2617,9.2617,9.2617,9.2617,9.2617,9.2617,9.2617,9.2617,9.2617,9.2617,9.2617,9.2617,9.2617,9.2617,9.2617,9.2617,9.2617,9.2617,9.2617,9.2617,9.2617,9.2617,9.2617,9.2617,9.2617,9.2617,9.2617,9.2617,9.2617,9.2617,9.2617,9.2617,9.2617,9.2617,9.2617,9.2617,9.2617,9.2617,9.2617,9.2617,9.2617,9.2617,9.2617,9.2617,9.2617,8.7265,8.7461,8.7461,8.75,8.7461,8.7461,8.75,8.75,8.75,8.75,8.75,0.0,0.0,0.0,0.0,0.0,0.0,0.0,0.0,0.0,0.0,0.0,0.0,0.0,0.0,8.6523,8.7539,8.7461,8.9062,8.9648,8.8789,8.9609,9.1289,9.3867,9.4804,9.6054,9.7695,9.7695,9.7695,9.7695,9.7695,9.7304,9.6523,9.5664,9.4804,9.3945,9.3047,9.2656,9.2656,9.2617,9.2617,9.2617,9.2617,9.2617,9.2617,9.2617,9.2617,9.2617,9.2617,9.2617,9.2617,9.2617,9.2617,9.2617,9.2617,9.2617,9.2617,9.2617,9.2617,9.2617,9.2617,9.2617,9.2617,9.2617,9.2617,9.2617,9.2617,9.2617,9.2617,9.2617,9.2617,9.2617,9.2617,9.2617,9.2617,9.2617,9.2617,9.2617,9.2617,9.2617,9.2617,9.2617,9.2617,9.2617,9.2617,9.2617,9.2617,9.2617,9.2617,9.2617,9.2617,9.2617,9.2617,9.2617,9.2617,9.2617,9.2617,9.2617,9.2617,9.2617,9.2617,9.2617,8.6719,8.664,8.6797,8.7344,8.707,8.6797,8.7383,8.7031,8.6797,8.7383,8.7031,0.0,0.0,0.0,0.0,0.0,0.0,0.0,0.0,0.0,0.0,0.0,0.0,0.0,0.0,0.0,0.0,0.0,8.7539,8.8515,8.7109,8.8906,9.039,9.1289,9.3281,9.4609,9.5195,9.6328,9.6914,9.6914,9.7461,9.7265,9.6484,9.6172,9.5273,9.3867,9.3594,9.3125,9.2617,9.2617,9.2617,9.2617,9.2617,9.2617,9.2617,9.2617,9.2617,9.2617,9.2617,9.2617,9.2617,9.2617,9.2617,9.2617,9.2617,9.2617,9.2617,9.2617,9.2617,9.2617,9.2617,9.2617,9.2617,9.2617,9.2617,9.2617,9.2617,9.2617,9.2617,9.2617,9.2617,9.2617,9.2617,9.2617,9.2617,9.2617,9.2617,9.2617,9.2617,9.2617,9.2617,9.2617,9.2617,9.2617,9.2617,9.2617,9.2617,9.2617,9.2617,9.2617,9.2617,9.2617,9.2617,9.2617,9.2617,9.2617,9.2617,9.2617,9.2617,9.2617,9.2617,9.2617,8.6367,8.6211,8.6328,8.6914,8.6836,8.6875,8.7734,8.7265,8.6836,8.7383,8.6797,0.0,0.0,0.0,0.0,0.0,0.0,0.0,0.0,8.2304,0.0,0.0,0.0,0.0,0.0,0.0,0.0,0.0,0.0,0.0,0.0,8.7773,8.9062,8.9961,9.1953,9.3281,9.3906,9.5312,9.6172,9.6484,9.6719,9.6523,9.6015,9.5703,9.4804,9.3437,9.3437,9.3125,9.2617,9.2617,9.2617,9.2617,9.2617,9.2617,9.2617,9.2617,9.2617,9.2617,9.2617,9.2617,9.2617,9.2617,9.2617,9.2617,9.2617,9.2617,9.2539,9.2226,9.2344,9.2539,9.2226,9.2383,9.2617,9.2617,9.2617,9.2617,9.2617,9.2617,9.2617,9.2617,9.2617,9.2617,9.2617,9.2617,9.2617,9.2617,9.2617,9.2617,9.2617,9.2617,9.2617,9.2617,9.2617,9.2617,9.2617,9.2617,9.2617,9.2617,9.2617,9.2617,9.2617,9.2617,9.2461,9.2148,9.2422,9.2461,9.2148,9.2461,9.2617,9.2617,9.2617,9.2617]}]]